     2              OBSERVATION DATA    GPS                 RINEX VERSION / TYPE
teqc 2000Feb29 Duncan Agnew 20000517 23:40:27UTC            PGM / RUN BY / DATE
                                                            COMMENT
L2: 1 -> 1; 5 -> 5; 60 -> 9                                 COMMENT
L2: 1 -> 1; 5 -> 5; 60 -> 9                                 COMMENT
L2: 1 -> 1; 5 -> 5; 60 -> 9                                 COMMENT
L2: 1 -> 1; 5 -> 5; 60 -> 9                                 COMMENT
L2: 1 -> 1; 5 -> 5; 60 -> 9                                 COMMENT
Original Marker Name: GODW                                  COMMENT
Campaign Name: Post Hector                                  COMMENT
4-Character Station Name: GODW                              COMMENT
6-Character Antenna Code: TRMCMP                            COMMENT
Vertical Measurement Point: BPA                             COMMENT
Vertical Offset to Rinex Ref. Point: 0.0000                 COMMENT
Radial Measurement Point: RRP                               COMMENT
Radial Offset to Rinex Ref. Point: 0.0000                   COMMENT
Antenna Height from Field Measurement: 1.8940 m             COMMENT
Additional Antenna Identification Info.:                    COMMENT
Model 22020.00+GP                                           COMMENT
Original XYZ: -2311200.5156 -4753068.1175 3559265.6852      COMMENT
New XYZ position is based on association with SCEC monument COMMENT
E1D0Y8P7+0011. Position of that monument is believed to be  COMMENT
valid to within 1 m horizontally; vertical accuracy         COMMENT
should be no worse than 3-times this value.                 COMMENT
                                                            COMMENT
Revised Rinex header created by UCSD GPS archive for        COMMENT
GSAC on 16-Jun-2000 (2000:168) 02:58:41 GMT                 COMMENT
For assistance contact dagnew@ucsd.edu                      COMMENT
or anderson@python.ucsd.edu                                 COMMENT
                                                            COMMENT
GODWIN 1965                                                 MARKER NAME
GODW                                                        MARKER NUMBER
-Unknown- CALIF DEPT TRANSPORTATION                         OBSERVER / AGENCY
1538 TRIMBLE 4000 SSI NP 7.29; SP 3.07                      REC # / TYPE / VERS
64100 TR GEOD L1/L2 GP                                      ANT # / TYPE
 -2311202.8197 -4753070.1168  3559264.4553                  APPROX POSITION XYZ
        1.8940        0.0000        0.0000                  ANTENNA: DELTA H/E/N
     1     1     0                                          WAVELENGTH FACT L1/2
     7    C1    L1    L2    P1    P2    S1    S2            # / TYPES OF OBSERV
     0                                                      INTERVAL
  2000     5     2    14    55    0.000000                  TIME OF FIRST OBS
  2000     5     2    20    32   15.000000                  TIME OF LAST OBS
                                                            END OF HEADER
 00  5  2 14 55  0.0000000  0  7G 2G 4G 7G 8G 9G26G27
  21443943.8594     595243.02357    431209.64957                  21443949.9184
        27.7504         26.5004
  23178080.3594   -1320795.73056   -914539.86756                  23178089.0704
        13.5004         13.0004
  20650096.2034     495345.00158    362917.67257                  20650102.2034
        29.7504         28.2504
  22592047.2194    1987553.10256   1437017.39556                  22592054.2074
        18.5004         17.7504
  23909265.6024   -1206018.55255   -853545.70955                  23909271.6134
         9.7504         10.2504
  23050851.0394    1001550.77556    725132.64756                  23050857.1214
        16.5004         16.0004
  23630837.8834    2166818.62855   1552724.43855                  23630848.0234
         9.5004         11.0004
 00  5  2 14 55 15.0000000  0  7G 2G 4G 7G 8G 9G26G27
  21447514.8054     614008.10247    445831.77447                  21447520.8054
        27.7504         26.5004
  23170685.8834   -1359654.69846   -944819.46746                  23170694.3714
        13.2504         13.0004
  20653283.2424     512092.33148    375967.53547                  20653289.3364
        30.0004         28.0004
  22603653.0784    2048543.09446   1484541.99446                  22603660.2774
        18.0004         17.7504
  23902561.6724   -1241247.08945   -880996.49045                  23902566.7344
        10.5004         10.7504
  23056963.6564    1033672.90346    750162.85546                  23056969.6564
        16.5004         16.2504
  23643418.0314    2232926.12145   1604236.64245                  23643428.7704
         9.0004         10.7504
 00  5  2 14 55 30.0000000  0  7G 2G 4G 7G 8G 9G26G27
  21451095.4454     632823.77247    460493.32947                  21451101.4924
        27.5004         26.5004
  23163298.5784   -1398474.38346   -975068.47846                  23163307.4304
        13.0004         12.5004
  20656489.8054     528944.03048    389098.73147                  20656495.7584
        30.0004         28.2504
  22615274.3834    2109611.56746   1532127.76046                  22615281.7814
        18.2504         17.5004
  23895867.2114   -1276426.39545   -908408.93645                  23895872.0394
        10.7504         10.2504
  23063098.3674    1065910.91846    775283.38046                  23063104.5904
        16.5004         16.2504
  23656010.7584    2299097.02445   1655798.26245                  23656021.8484
         9.5004         11.0004
 00  5  2 14 55 45.0000000  0  7G 2G 4G 7G 8G 9G26G27
  21454685.3524     651689.09847    475193.56747                  21454691.1764
        27.7504         26.5004
  23155919.1254   -1437255.41046  -1005287.35746                  23155927.6134
        13.0004         13.0004
  20659716.1804     545899.00648    402310.39847                  20659722.1914
        30.0004         28.5004
  22626910.1804    2170757.23246   1579773.68246                  22626917.1684
        18.7504         17.5004
  23889182.4924   -1311557.05445   -935783.48245                  23889188.2114
        11.0004         11.5004
  23069254.8834    1098263.64546    800493.26846                  23069261.3984
        16.0004         16.2504
  23668614.4384    2365329.97645   1707408.21545                  23668625.3054
         9.5004         11.2504
 00  5  2 14 56  0.0000000  0  7G 2G 4G 7G 8G 9G26G27
  21458284.9144     670605.27347    489933.43447                  21458290.8674
        27.7504         26.5004
  23148546.7584   -1475996.40946  -1035475.06046                  23148554.9414
        13.5004         13.0004
  20662962.6024     562958.22048    415603.29447                  20662968.6024
        30.0004         28.2504
  22638560.2734    2231980.79846   1627480.30646                  22638567.5314
        18.5004         17.5004
  23882506.6174   -1346637.68545   -963119.01445                  23882512.5004
        11.2504         11.2504
  23075433.3754    1130731.96146    825793.24646                  23075439.8444
        16.2504         16.5004
  23681230.1884    2431625.79945   1759067.20145                  23681239.8834
         9.7504         11.0004
 00  5  2 14 56 15.0000000  0  7G 2G 4G 7G 8G 9G26G27
  21461895.0474     689575.78748    504715.64847                  21461901.1174
        28.0004         26.5004
  23141182.7664   -1514693.57846  -1065628.60646                  23141191.7114
        13.5004         13.2504
  20666229.2114     580124.74948    428979.80547                  20666235.1174
        30.0004         28.2504
  22650226.2664    2293285.44946   1675250.10646                  22650233.7814
        18.2504         17.5004
  23875840.8754   -1381664.77645   -990412.85545                  23875847.1094
        11.0004         11.7504
  23081634.5084    1163318.80346    851185.57046                  23081641.2814
        16.2504         16.2504
  23693858.0004    2497987.54945   1810777.52745                  23693868.1524
         9.7504         11.0004
 00  5  2 14 56 30.0000000  0  7G 2G 4G 7G 8G 9G26G27
  21465514.8914     708598.68848    519538.67347                  21465521.0084
        28.0004         26.7504
  23133826.7584   -1553348.50246  -1095749.22946                  23133835.8324
        13.0004         13.5004
  20669515.9064     597396.48348    442438.29947                  20669521.8244
        30.0004         28.5004
  22661907.5474    2354668.90146   1723081.31546                  22661915.0984
        18.5004         16.7504
  23869185.2584   -1416640.08145  -1017666.30545                  23869190.4264
        10.7504         11.2504
  23087857.7584    1196021.97346    876668.54346                  23087864.5554
        15.7504         16.2504
  23706499.0234    2564412.94545   1862537.46845                  23706509.1414
         9.7504         11.2504
 00  5  2 14 56 45.0000000  0  7G 2G 4G 7G 8G 9G26G27
  21469144.4224     727671.27047    534400.41847                  21469150.3404
        27.7504         26.5004
  23126478.4694   -1591963.70846  -1125838.89846                  23126487.2504
        13.0004         13.2504
  20672821.9224     614770.45448    455976.45747                  20672827.8874
        30.0004         28.2504
  22673602.5474    2416128.22846   1770971.66046                  22673609.6764
        18.2504         17.0004
  23862539.3364   -1451566.00345  -1044881.31745                  23862546.0634
        10.0004         11.0004
  23094102.2734    1228838.43946    902239.80746                  23094108.8834
        16.0004         16.5004
  23719151.0084    2630898.92145   1914344.61045                  23719160.7384
        10.2504         11.0004
 00  5  2 14 57  0.0000000  0  7G 2G 4G 7G 8G 9G26G27
  21472783.6564     746796.14848    549302.91147                  21472789.6914
        28.0004         26.7504
  23119138.1564   -1630536.25446  -1155895.33446                  23119146.4694
        13.2504         13.5004
  20676148.1254     632248.95948    469596.07347                  20676154.0784
        30.0004         28.5004
  22685312.8054    2477665.54846   1818922.75346                  22685319.9694
        18.7504         17.5004
  23855902.6804   -1486439.91245  -1072055.77045                  23855910.1724
         9.5004         11.7504
  23100369.0004    1261770.31346    927900.99646                  23100375.6564
        16.2504         16.7504
  23731814.9144    2697447.56745   1966200.59145                  23731825.2304
        10.7504         11.0004
 00  5  2 14 57 15.0000000  0  7G 2G 4G 7G 8G 9G26G27
  21476432.4694     765971.11748    564244.44047                  21476438.4104
        28.2504         26.7504
  23111805.9534   -1669068.00746  -1185919.99446                  23111813.7034
        13.2504         13.5004
  20679493.6564     649829.57348    483295.25247                  20679499.5984
        29.7504         28.5004
  22697037.4534    2539278.54246   1866932.82446                  22697044.8754
        18.5004         17.0004
  23849276.1954   -1521263.74345  -1099191.19245                  23849283.3714
         9.2504         11.5004
  23106657.2664    1294815.10946    953650.17546                  23106664.1374
        16.2504         16.7504
  23744490.2664    2764056.47245   2018103.50145                  23744501.2274
        10.7504         11.0004
 00  5  2 14 57 30.0000000  0  7G 2G 4G 7G 8G 9G26G27
  21480091.0944     785197.28448    579225.85747                  21480097.0824
        28.2504         27.0004
  23104481.1094   -1707557.48446  -1215911.68546                  23104489.5044
        13.7504         13.7504
  20682858.7894     667513.27048    497074.76047                  20682864.7424
        30.0004         28.5004
  22708776.8594    2600967.91146   1915002.41446                  22708784.2704
        18.2504         17.2504
  23842659.2034   -1556036.08845  -1126286.48445                  23842666.2504
         9.7504         11.5004
  23112967.3984    1327973.68946    979488.00846                  23112974.1374
        16.5004         16.7504
  23757177.1954    2830726.44845   2070054.02245                  23757186.4224
        11.0004         11.0004
 00  5  2 14 57 45.0000000  0  7G 2G 4G 7G 8G 9G26G27
  21483759.6884     804475.76948    594248.04747                  21483765.8164
        28.2504         26.7504
  23097165.4064   -1746003.28646  -1245869.35846                  23097173.6254
        14.0004         14.0004
  20686243.7114     685300.82348    510935.18647                  20686249.7704
        30.2504         28.2504
  22720530.7504    2662734.48646   1963132.14946                  22720537.9024
        18.2504         16.7504
  23836051.6884   -1590755.65045  -1153340.66245                  23836058.6884
        10.0004         11.5004
  23119298.7974    1361246.63746   1005414.97246                  23119305.2894
        16.5004         17.0004
  23769876.2114    2897458.26645   2122052.71045                  23769886.4454
        11.2504         11.5004
 00  5  2 14 58  0.0000000  0  7G 2G 4G 7G 8G 9G26G27
  21487438.1954     823806.57048    609310.99847                  21487444.0784
        28.2504         27.0004
  23089857.6334   -1784405.09346  -1275792.76646                  23089865.9454
        14.0004         13.2504
  20689648.1254     703192.03148    524876.39047                  20689654.0784
        30.0004         28.2504
  22732298.9534    2724577.94046   2011321.80646                  22732306.0824
        18.7504         17.0004
  23829455.3364   -1625422.06045  -1180353.43145                  23829462.3364
        10.2504         11.2504
  23125652.3524    1394633.79346   1031430.92046                  23125658.9024
        16.2504         16.7504
  23782586.0944    2964251.57045   2174099.34145                  23782597.1254
        11.2504         11.2504
 00  5  2 14 58 15.0000000  0  7G 2G 4G 7G 8G 9G26G27
  21491126.6484     843188.44748    624413.75247                  21491132.6254
        28.2504         26.7504
  23082558.2894   -1822763.88846  -1305682.64846                  23082566.5784
        14.0004         14.0004
  20693072.2894     721185.36048    538897.16547                  20693078.1954
        29.7504         28.2504
  22744081.7034    2786496.59446   2059570.05746                  22744088.8794
        18.5004         17.0004
  23822868.5234   -1660036.48645  -1207325.68445                  23822875.0744
        11.0004         11.5004
  23132027.1564    1428133.43046   1057534.52346                  23132033.5084
        16.2504         17.0004
  23795307.9694    3031104.68145   2226192.54945                  23795318.2154
        11.0004         11.0004
 00  5  2 14 58 30.0000000  0  7G 2G 4G 7G 8G 9G26G27
  21494825.1884     862624.69948    639558.87847                  21494831.1764
        28.0004         26.7504
  23075267.6174   -1861076.05146  -1335536.18946                  23075275.3204
        14.0004         13.7504
  20696516.2814     739283.89548    552999.92347                  20696522.1644
        30.0004         28.2504
  22755879.4534    2848493.62646   2107879.39046                  22755885.9694
        18.2504         16.5004
  23816291.6254   -1694595.47645  -1234254.75945                  23816297.6604
        11.7504         11.7504
  23138423.8204    1461748.47846   1083728.04546                  23138429.9844
        16.7504         16.7504
  23808041.1334    3098020.61145   2278334.72045                  23808051.1564
        11.0004         11.2504
 00  5  2 14 58 45.0000000  0  7G 2G 4G 7G 8G 9G26G27
  21498533.1724     882110.93948    654742.95247                  21498539.1254
        28.2504         27.0004
  23067985.1334   -1899345.77446  -1365356.67346                  23067993.4694
        14.0004         14.0004
  20699979.4774     757482.93548    567180.99147                  20699985.5354
        29.7504         28.7504
  22767691.1564    2910564.18346   2156245.99846                  22767698.0514
        18.2504         17.0004
  23809725.6564   -1729103.16346  -1261143.85746                  23809731.7154
        12.0004         12.2504
  23144841.7114    1495474.20746   1110007.82146                  23144847.6294
        16.2504         16.2504
  23820786.7814    3164994.52945   2330522.06445                  23820796.9454
        11.2504         10.5004
 00  5  2 14 59  0.0000000  0  7G 2G 4G 7G 8G 9G26G27
  21502251.7424     901651.60048    669969.43647                  21502257.7304
        28.2504         26.7504
  23060711.7034   -1937568.11146  -1395140.21946                  23060720.2154
        14.5004         14.5004
  20703462.3834     775786.70948    581443.67647                  20703468.3364
        29.7504         28.5004
  22779517.6024    2972712.31646   2204673.06246                  22779524.5784
        18.5004         17.2504
  23803169.9774   -1763555.01946  -1287989.44746                  23803175.6844
        12.2504         12.2504
  23151281.5394    1529314.67546   1136376.99246                  23151287.7734
        16.5004         16.7504
  23833543.5164    3232030.49745   2382757.76745                  23833553.6334
        11.2504         11.2504
 00  5  2 14 59 15.0000000  0  7G 2G 4G 7G 8G 9G26G27
  21505980.2344     921244.78848    685236.84547                  21505986.2114
        28.0004         26.7504
  23053446.6564   -1975744.85346  -1424888.25746                  23053454.3834
        14.5004         14.5004
  20706965.0474     794193.03548    595786.27047                  20706971.0704
        30.0004         28.5004
  22791358.4224    3034935.95146   2253158.94446                  22791365.1374
        18.2504         17.0004
  23796623.6724   -1797952.71446  -1314792.81545                  23796629.9304
        12.2504         11.7504
  23157742.6334    1563267.69146   1162833.87446                  23157748.9024
        16.2504         16.7504
  23846311.3054    3299126.17945   2435040.00945                  23846322.3484
        11.2504         11.2504
 00  5  2 14 59 30.0000000  0  7G 2G 4G 7G 8G 9G26G27
  21509718.2974     940888.03748    700543.26547                  21509724.2854
        28.2504         26.7504
  23046190.2814   -2013877.98146  -1454602.29346                  23046197.6564
        14.5004         14.0004
  20710486.6954     812699.22048    610206.67747                  20710492.6844
        29.7504         28.2504
  22803212.8054    3097232.28146   2301701.49546                  22803219.7584
        18.5004         16.5004
  23790088.0944   -1832298.39845  -1341555.69045                  23790094.3754
        11.7504         11.7504
  23164224.4384    1597330.33846   1189376.18146                  23164230.4384
        16.0004         16.0004
  23859089.6174    3366278.90945   2487366.68845                  23859099.8054
        10.5004         10.5004
 00  5  2 14 59 45.0000000  0  7G 2G 4G 7G 8G 9G26G27
  21513465.8284     960582.08748    715889.26647                  21513471.8634
        28.2504         26.7504
  23038942.5474   -2051966.53446  -1484281.62946                  23038949.5234
        14.7504         14.2504
  20714027.2974     831305.74948    624705.26947                  20714033.2274
        29.7504         28.2504
  22815081.7034    3159601.65146   2350300.94046                  22815088.9024
        18.5004         16.7504
  23783562.4064   -1866591.18345  -1368277.33145                  23783568.6294
        11.2504         11.2504
  23170727.5554    1631503.13546   1216004.31246                  23170733.6844
        16.2504         16.2504
  23871879.8284    3433489.07445   2539738.11345                  23871891.5394
        10.5004         11.2504
 00  5  2 15  0  0.0000000  0  7G 2G 4G 7G 8G 9G26G27
  21517223.3984     980328.30547    731275.91947                  21517229.3754
        27.7504         26.5004
  23031702.7974   -2090008.87646  -1513924.93946                  23031710.4774
        15.0004         14.2504
  20717587.4224     850013.79548    639282.96947                  20717593.3874
        29.7504         28.5004
  22826964.3054    3222045.20646   2398958.18746                  22826971.5164
        18.0004         16.2504
  23777046.8754   -1900829.49445  -1394956.50545                  23777052.6414
        11.0004         11.5004
  23177251.5554    1665786.84546   1242718.87446                  23177258.1174
        16.0004         16.5004
  23884680.3674    3500757.60545   2592155.03245                  23884690.2974
        10.0004         10.7504
 00  5  2 15  0 15.0000000  0  7G 2G 4G 7G 8G 9G26G27
  21520990.7974    1000126.80747    746703.31247                  21520996.7734
        27.7504         26.5004
  23024472.6174   -2128004.53546  -1543531.87646                  23024480.6254
        14.7504         14.2504
  20721166.5944     868823.09648    653939.56547                  20721172.5234
        29.7504         28.0004
  22838861.2114    3284562.53746   2447672.93246                  22838867.9384
        18.0004         16.5004
  23770542.2814   -1935012.97845  -1421592.98145                  23770548.7274
        11.2504         11.2504
  23183796.3054    1700181.38446   1269519.79546                  23183802.6564
        16.2504         16.2504
  23897492.5944    3568084.30445   2644617.23645                  23897502.5594
         9.7504         10.7504
 00  5  2 15  0 30.0000000  0  7G 2G 4G 7G 8G 9G26G27
  21524768.3204    1019976.32848    762170.46047                  21524774.3794
        28.0004         26.5004
  23017250.5634   -2165954.50246  -1573103.21746                  23017258.4304
        15.0004         14.5004
  20724765.0164     887732.21948    668673.94747                  20724770.9924
        29.5004         28.2504
  22850771.3444    3347152.30946   2496444.13046                  22850778.2734
        18.2504         16.2504
  23764047.5864   -1969142.67045  -1448187.51945                  23764053.5044
        11.2504         11.7504
  23190362.0944    1734685.18446   1296405.85246                  23190368.3874
        15.7504         16.5004
  23910315.2274    3635467.56645   2697123.56345                  23910326.1174
         9.5004         10.5004
 00  5  2 15  0 45.0000000  0  7G 2G 4G 7G 8G 9G26G27
  21528554.6644    1039873.78647    777674.96847                  21528560.6524
        27.7504         26.5004
  23010037.3134   -2203861.49746  -1602641.06146                  23010045.1214
        15.2504         15.0004
  20728381.4384     906737.73548    683483.43847                  20728387.4264
        29.5004         28.2504
  22862694.7894    3409811.00346   2545269.02646                  22862702.0124
        17.7504         16.7504
  23757562.4224   -2003221.48645  -1474742.41946                  23757568.8204
        11.5004         12.0004
  23196947.9454    1769294.64146   1323374.24946                  23196954.2504
        15.7504         16.5004
  23923147.6094    3702903.87145   2749671.20845                  23923158.6644
         9.0004          9.5004
 00  5  2 15  1  0.0000000  0  7G 2G 4G 7G 8G 9G26G27
  21532350.9144    1059823.28648    793220.02147                  21532356.8324
        28.0004         26.7504
  23002833.0864   -2241721.08646  -1632141.97746                  23002840.8484
        15.5004         14.7504
  20732017.3054     925843.67448    698371.18547                  20732023.2934
        29.5004         28.0004
  22874632.5554    3472542.40546   2594150.57646                  22874639.6954
        17.5004         16.2504
  23751088.1884   -2037245.08346  -1501254.28345                  23751094.5274
        12.2504         11.7504
  23203554.8674    1804013.58046   1350427.95646                  23203561.7624
        16.0004         16.5004
  23935991.3364    3770397.00745   2802263.10145                  23936002.5664
         8.0004         10.0004
 00  5  2 15  1 15.0000000  0  7G 2G 4G 7G 8G 9G26G27
  21536157.3594    1079826.43747    808806.87547                  21536163.3014
        27.7504         26.5004
  22995637.6024   -2279531.38446  -1661604.49346                  22995645.6334
        15.0004         14.7504
  20735672.4224     945051.28148    713338.14747                  20735678.3634
        29.7504         28.2504
  22886583.8134    3535347.75846   2643089.74746                  22886591.2234
        17.2504         16.5004
  23744624.4454   -2071211.70646  -1527721.78046                  23744630.6564
        12.7504         12.0004
  23210182.7194    1838843.21146   1377567.91346                  23210189.1174
        16.0004         16.5004
  23948845.5944    3837948.15845   2854900.22045                  23948856.4264
         7.7504          9.7504
 00  5  2 15  1 30.0000000  0  7G 2G 4G 7G 8G 9G26G27
  21539974.1414    1099883.28347    824435.58247                  21539980.0474
        27.7504         26.5004
  22988452.0704   -2317292.21446  -1691028.46146                  22988459.5044
        15.2504         14.5004
  20739346.5944     964360.28848    728384.12747                  20739352.5594
        29.7504         28.2504
  22898549.3444    3598226.71546   2692086.27646                  22898556.4494
        17.2504         16.2504
  23738172.1334   -2105121.07246  -1554144.64846                  23738178.3324
        12.7504         12.2504
  23216831.8134    1873783.13546   1404793.81646                  23216838.7424
        16.2504         16.7504
  23961712.2974    3905556.98545   2907582.26545                  23961723.5274
         8.5004         10.0004
 00  5  2 15  1 45.0000000  0  7G 2G 4G 7G 8G 9G26G27
  21543800.3754    1119991.25147    840104.12147                  21543806.4104
        27.7504         26.5004
  22981275.0634   -2355005.64046  -1720415.48046                  22981281.8834
        15.0004         14.2504
  20743039.9454     983767.97648    743507.00047                  20743045.9454
        29.7504         28.2504
  22910528.3984    3661176.52846   2741138.01346                  22910535.4344
        17.0004         16.2504
  23731729.3834   -2138975.50846  -1580524.72846                  23731735.1374
        12.7504         12.5004
  23223501.2664    1908830.55546   1432103.47846                  23223507.8284
        16.2504         16.7504
  23974587.7114    3973220.61145   2960307.05345                  23974598.5084
         8.7504         10.0004
 00  5  2 15  2  0.0000000  0  7G 2G 4G 7G 8G 9G26G27
  21547636.5394    1140150.59847    855812.69547                  21547642.4574
        27.7504         26.2504
  22974108.3284   -2392671.07446  -1749765.12346                  22974116.0084
        15.5004         14.7504
  20746751.9224    1003274.25848    758706.69447                  20746757.8634
        29.7504         28.2504
  22922520.7974    3724197.06646   2790244.86146                  22922527.8794
        17.0004         16.0004
  23725297.5314   -2172774.58446  -1606861.67445                  23725303.8364
        12.5004         11.5004
  23230190.4924    1943985.24546   1459496.72046                  23230197.2194
        16.2504         16.5004
  23987474.2344    4040938.96445   3013074.41645                  23987483.4614
         8.5004          9.5004
 00  5  2 15  2 15.0000000  0  7G 2G 4G 7G 8G 9G26G27
  21551482.7194    1160360.84047    871560.93047                  21551488.6844
        27.2504         26.5004
  22966949.5784   -2430288.81846  -1779077.58946                  22966956.7774
        15.7504         15.0004
  20750482.4064    1022878.36348    773982.62247                  20750488.5124
        29.5004         28.2504
  22934526.3754    3787287.47646   2839406.14946                  22934533.9024
        16.7504         16.2504
  23718876.6094   -2206518.60645  -1633155.71245                  23718882.7624
        11.7504         11.0004
  23236900.6644    1979246.30746   1486972.85646                  23236907.2624
        16.2504         16.5004
  24000371.1414    4108711.04845   3065883.71345                  24000382.7584
         8.2504         10.0004
 00  5  2 15  2 30.0000000  0  7G 2G 4G 7G 8G 9G26G27
  21555338.2584    1180623.05947    887349.65847                  21555344.2934
        27.2504         26.7504
  22959800.3364   -2467857.52746  -1808351.85746                  22959807.5824
        15.7504         14.5004
  20754231.6484    1042581.15048    789335.43647                  20754237.6954
        29.5004         28.5004
  22946545.7114    3850448.50346   2888622.47146                  22946553.2974
        16.0004         16.0004
  23712465.4454   -2240206.24745  -1659405.81845                  23712471.2344
        11.5004         11.0004
  23243631.2114    2014614.47046   1514532.44946                  23243637.6454
        16.2504         16.5004
  24013278.4454    4176537.58445   3118735.40045                  24013288.5514
         8.0004          9.5004
 00  5  2 15  2 45.0000000  0  7G 2G 4G 7G 8G 9G26G27
  21559203.9304    1200937.17847    903178.83547                  21559209.8594
        27.2504         26.5004
  22952660.9384   -2505376.88546  -1837587.65946                  22952668.5234
        16.0004         15.0004
  20757999.8674    1062382.25148    804764.86447                  20758005.8914
        29.2504         28.0004
  22958578.5004    3913679.65846   2937893.43546                  22958585.8984
        16.5004         16.0004
  23706065.5784   -2273837.40145  -1685611.87945                  23706072.3754
        10.7504         11.2504
  23250381.9064    2050089.29046   1542175.15946                  23250388.2584
        16.0004         16.2504
  24026194.8204    4244418.21845   3171629.24845                  24026205.9344
         7.5004          9.5004
 00  5  2 15  3  0.0000000  0  7G 2G 4G 7G 8G 9G26G27
  21563079.3364    1221302.68247    919048.05147                  21563085.4184
        27.2504         26.5004
  22945530.3444   -2542847.16246  -1866785.23046                  22945537.5904
        16.0004         15.0004
  20761786.5234    1082280.85748    820270.26747                  20761792.5354
        29.7504         28.2504
  22970623.9064    3976980.25846   2987218.51446                  22970631.5984
        16.2504         15.5004
  23699676.4224   -2307412.47245  -1711774.26545                  23699682.9024
        11.0004         11.5004
  23257152.5634    2085669.87546   1569900.27046                  23257158.8204
        16.2504         16.0004
  24039122.5164    4312351.98245   3224564.47945                  24039134.7304
         7.5004          9.2504
 00  5  2 15  3 15.0000000  0  7G 2G 4G 7G 8G 9G26G27
  21566964.9844    1241720.82647    934958.28047                  21566970.9844
        27.2504         26.5004
  22938409.6954   -2580266.81046  -1895943.36146                  22938417.4344
        15.7504         14.7504
  20765591.6954    1102277.92548    835852.40047                  20765597.6134
        29.7504         28.5004
  22982683.0474    4040351.11746   3036598.33346                  22982690.8554
        15.7504         15.2504
  23693298.0784   -2340929.92645  -1737891.72245                  23693304.3484
        11.0004         11.5004
  23263943.7274    2121357.05646   1597708.44046                  23263949.5274
        16.2504         16.0004
  24052060.8754    4380339.78245   3277541.84345                  24052072.8324
         8.0004          9.7504
 00  5  2 15  3 30.0000000  0  7G 2G 4G 7G 8G 9G26G27
  21570860.3284    1262192.00647    950909.84147                  21570866.3404
        27.2504         26.5004
  22931298.3594   -2617635.12746  -1925061.47646                  22931305.8054
        15.7504         15.0004
  20769415.6644    1122373.70048    851511.44247                  20769421.6294
        29.7504         28.5004
  22994755.6804    4103792.25046   3086032.90946                  22994763.6174
        16.0004         15.2504
  23686931.4924   -2374389.18945  -1763963.87346                  23686937.7734
        11.2504         12.0004
  23270754.7664    2157150.91646   1625599.74146                  23270760.9884
        16.0004         15.7504
  24065008.5864    4448381.65245   3330561.34045                  24065019.2544
         8.7504         10.0004
 00  5  2 15  3 45.0000000  0  7G 2G 4G 7G 8G 9G26G27
  21574765.4844    1282713.45747    966900.57447                  21574771.6484
        27.2504         26.2504
  22924196.8054   -2654954.53546  -1954141.48346                  22924203.6884
        16.0004         14.7504
  20773258.1804    1142565.04248    867244.95347                  20773264.1804
        30.0004         28.2504
  23006840.9614    4167300.70046   3135519.95446                  23006849.0744
        16.0004         15.5004
  23680574.9924   -2407792.80945  -1789992.64946                  23680581.6484
        11.2504         12.0004
  23277585.7814    2193048.18746   1653571.62146                  23277591.6884
        15.7504         15.5004
  24077966.5394    4516474.44545   3383620.52245                  24077978.3794
         9.0004         10.2504
 00  5  2 15  4  0.0000000  0  7G 2G 4G 7G 8G 9G26G27
  21578681.6884    1303292.94547    982936.53047                  21578687.7704
        27.2504         26.5004
  22917105.7274   -2692217.02646  -1983177.14446                  22917113.4064
        16.0004         15.0004
  20777120.0704    1162859.55348    883058.85647                  20777126.0944
        29.7504         28.2504
  23018940.3984    4230883.80246   3185065.17646                  23018948.3834
        16.0004         15.0004
  23674230.4304   -2441132.85945  -1815971.88146                  23674237.2384
        11.5004         12.0004
  23284438.2194    2229056.35846   1681629.91146                  23284444.3364
        15.5004         15.5004
  24090934.8754    4584625.59145   3436725.15945                  24090945.4614
         9.5004         10.5004
 00  5  2 15  4 15.0000000  0  7G 2G 4G 7G 8G 9G26G27
  21582608.0864    1323927.16947    999015.13447                  21582614.0634
        27.2504         26.5004
  22910025.5234   -2729425.47846  -2012170.71146                  22910033.5434
        16.0004         15.0004
  20781001.0314    1183253.70648    898950.39947                  20781007.0784
        29.5004         28.2504
  23031053.2664    4294538.03946   3234665.81046                  23031061.0984
        15.7504         14.7504
  23667897.4774   -2474412.36045  -1841903.95046                  23667903.5824
        11.7504         12.2504
  23291310.3364    2265171.75446   1709771.74446                  23291316.5004
        15.5004         15.2504
  24103914.7424    4652831.43045   3489872.41645                  24103926.2424
         9.7504         11.0004
 00  5  2 15  4 30.0000000  0  7G 2G 4G 7G 8G 9G26G27
  21586544.7664    1344614.11047   1015134.81947                  21586550.8134
        27.2504         26.2504
  22902954.9384   -2766581.64946  -2041123.53346                  22902962.4304
        16.2504         15.2504
  20784900.2734    1203745.08048    914917.70047                  20784906.1804
        29.2504         28.2504
  23043179.2194    4358260.79346   3284319.83746                  23043186.8754
        15.7504         15.0004
  23661576.0864   -2507633.09645  -1867790.22546                  23661582.5434
        11.7504         12.5004
  23298202.9614    2301391.94846   1737995.25946                  23298209.1604
        15.5004         15.5004
  24116903.8054    4721089.55145   3543060.41745                  24116914.1804
         9.5004         10.2504
 00  5  2 15  4 45.0000000  0  7G 2G 4G 7G 8G 9G26G27
  21590491.3754    1365353.59947   1031295.46047                  21590497.4224
        27.2504         26.5004
  22895893.9774   -2803685.38846  -2070035.48746                  22895901.5164
        16.5004         15.7504
  20788817.9844    1224333.37548    930960.52547                  20788823.9844
        29.0004         28.2504
  23055318.4384    4422051.72146   3334026.98346                  23055326.4224
        15.7504         15.0004
  23655265.1724   -2540794.97345  -1893630.64646                  23655271.4064
        11.5004         12.5004
  23305115.2424    2337716.39846   1766300.01346                  23305121.2194
        15.2504         15.2504
  24129903.0554    4789399.46345   3596288.75745                  24129914.2854
         9.5004         10.2504
 00  5  2 15  5  0.0000000  0  7G 2G 4G 7G 8G 9G26G27
  21594448.4924    1386148.01347   1047498.88847                  21594454.5044
        27.5004         26.7504
  22888844.0084   -2840734.08346  -2098904.55546                  22888851.2304
        16.2504         15.7504
  20792754.7734    1245020.65448    947080.48347                  20792760.8674
        29.0004         28.2504
  23067470.9144    4485913.05246   3383789.00246                  23067478.2664
        16.2504         15.0004
  23648966.7274   -2573895.49145  -1919423.22846                  23648972.8554
        11.0004         12.2504
  23312047.5634    2374146.99946   1794687.46246                  23312053.8674
        15.0004         15.5004
  24142912.2114    4857763.07845   3649558.95345                  24142923.1724
        10.5004         10.5004
 00  5  2 15  5 15.0000000  0  7G 2G 4G 7G 8G 9G26G27
  21598415.7814    1406995.52147   1063743.68947                  21598421.6764
        27.7504         26.0004
  22881803.7504   -2877729.16046  -2127731.84446                  22881811.3484
        16.5004         15.2504
  20796709.7034    1265804.74848    963275.88447                  20796715.7034
        29.0004         27.5004
  23079636.6644    4549842.39846   3433604.01146                  23079644.8714
        16.2504         15.2504
  23642678.8054   -2606936.29245  -1945169.28745                  23642684.6294
        10.2504         11.7504
  23319000.1414    2410681.64946   1823156.00446                  23319005.9304
        15.0004         14.7504
  24155931.2504    4926178.22245   3702869.33045                  24155941.1454
        10.5004         11.0004
 00  5  2 15  5 30.0000000  0  7G 2G 4G 7G 8G 9G26G27
  21602392.4924    1427892.70548   1080027.24547                  21602398.3874
        28.0004         26.7504
  22874773.6884   -2914673.78746  -2156519.82446                  22874781.1214
        16.5004         16.0004
  20800682.5784    1286682.12248    979543.92247                  20800688.6844
        29.0004         28.0004
  23091814.0084    4613836.02346   3483469.11246                  23091821.6294
        15.7504         15.0004
  23636402.0784   -2639920.57945  -1970871.31345                  23636408.7234
        10.5004         11.5004
  23325971.5474    2447316.54246   1851702.63746                  23325977.6994
        15.0004         15.0004
  24168959.8364    4994641.15845   3756216.90645                  24168970.4344
        10.2504         10.5004
 00  5  2 15  5 45.0000000  0  7G 2G 4G 7G 8G 9G26G27
  21606378.9614    1448842.88247   1096351.99747                  21606384.9734
        27.5004         25.7504
  22867753.4224   -2951564.33646  -2185265.67846                  22867761.2424
        16.0004         15.5004
  20804673.6884    1307655.77348    995887.05947                  20804679.6294
        29.0004         27.5004
  23104004.5164    4677896.99146   3533386.67846                  23104012.7584
        15.7504         14.5004
  23630136.5944   -2672844.76445  -1996526.48846                  23630142.8054
        11.2504         12.5004
  23332962.6094    2484054.57646   1880329.66146                  23332969.4064
        15.0004         15.0004
  24181997.1254    5063154.80945   3809604.03945                  24182008.2154
         9.7504         10.0004
 00  5  2 15  6  0.0000000  0  7G 2G 4G 7G 8G 9G26G27
  21610375.8984    1469847.51147   1112719.22647                  21610381.9224
        27.5004         26.2504
  22860743.6954   -2988399.12546  -2213968.05846                  22860751.8324
        16.2504         15.5004
  20808683.4064    1328726.77248   1012306.02747                  20808689.3484
        29.2504         28.0004
  23116208.1644    4742026.24046   3583357.46246                  23116215.6094
        15.7504         14.2504
  23623883.5864   -2705707.32146  -2022133.66946                  23623889.1524
        12.0004         12.7504
  23339973.6724    2520896.75046   1909037.82846                  23339979.9884
        15.2504         15.2504
  24195044.5634    5131720.18445   3863031.44845                  24195055.5004
         9.2504          9.5004
 00  5  2 15  6 15.0000000  0  7G 2G 4G 7G 8G 9G26G27
  21614382.9064    1490904.52247   1129127.28547                  21614388.9534
        27.7504         26.5004
  22853744.8984   -3025179.94746  -2242628.40046                  22853752.4144
        16.5004         16.2504
  20812711.1954    1349892.69848   1028798.93947                  20812717.1954
        29.5004         28.2504
  23128424.0634    4806221.45846   3633379.63646                  23128431.3794
        16.0004         14.7504
  23617641.5474   -2738510.07246  -2047694.25546                  23617647.3714
        12.7504         13.0004
  23347003.6644    2557840.56946   1937825.19846                  23347010.0394
        15.0004         15.0004
  24208102.2034    5200334.83845   3916497.23745                  24208114.0434
         9.5004          9.2504
 00  5  2 15  6 30.0000000  0  7G 2G 4G 7G 8G 9G26G27
  21618400.6884    1512017.73947   1145579.12747                  21618406.7814
        27.7504         26.2504
  22846757.0634   -3061902.47646  -2271243.31846                  22846764.9774
        16.7504         16.0004
  20816757.6564    1371157.33048   1045368.78047                  20816763.6804
        29.5004         28.2504
  23140653.0084    4870486.19546   3683455.99646                  23140660.6524
        16.2504         15.2504
  23611411.4454   -2771248.89446  -2073205.00846                  23611417.8094
        13.0004         13.7504
  23354053.9224    2594889.62746   1966694.55846                  23354060.7424
        15.0004         15.2504
  24221169.5394    5269002.25445   3970004.17845                  24221180.6414
         8.2504          8.7504
 00  5  2 15  6 45.0010000  0  7G 2G 4G 7G 8G 9G26G27
  21622428.9424    1533186.32047   1162074.11247                  21622435.0954
        27.7504         26.2504
  22839778.8964   -3098571.35546  -2299816.43846                  22839786.5284
        17.0004         16.0004
  20820822.9114    1392519.43148   1062014.57247                  20820828.8534
        29.5004         28.2504
  23152896.0834    4934822.04846   3733587.75846                  23152903.7984
        16.2504         14.7504
  23605192.8644   -2803928.07646  -2098669.29746                  23605199.5914
        13.0004         14.0004
  23361123.9354    2632043.66346   1995645.73746                  23361130.3104
        15.0004         15.2504
  24234246.8644    5337724.34145   4023553.70845                  24234256.7944
         8.2504          8.2504
 00  5  2 15  7  0.0010000  0  7G 2G 4G 7G 8G 9G26G27
  21626467.7554    1554410.78347   1178612.64947                  21626473.6964
        27.7504         26.2504
  22832812.9034   -3135177.81246  -2328340.91846                  22832820.8174
        17.0004         16.2504
  20824906.5604    1413979.28348   1078736.53647                  20824912.6304
        29.5004         28.0004
  23165151.1384    4999223.43146   3783770.58046                  23165158.5834
        16.0004         14.5004
  23598986.8494   -2836539.71746  -2124080.94946                  23598993.0714
        13.2504         14.2504
  23368213.8334    2669300.66146   2024677.14146                  23368220.3844
        14.7504         15.2504
  24247333.1464    5406494.96945   4077141.05345                  24247344.3414
         8.2504          8.5004
 00  5  2 15  7 15.0010000  0  7G 2G 4G 7G 8G 9G26G27
  21630516.7394    1575687.72747   1195192.07647                  21630522.6924
        27.7504         26.2504
  22825857.2784   -3171728.90246  -2356822.24846                  22825864.6654
        17.2504         16.0004
  20829008.0054    1435533.24148   1095531.82447                  20829013.9934
        29.7504         28.2504
  23177418.9114    5063689.55846   3834003.85046                  23177426.7784
        16.5004         14.5004
  23592792.6384   -2869090.56046  -2149445.21546                  23592798.5914
        13.5004         13.7504
  23375322.8104    2706657.94146   2053786.68446                  23375329.4664
        15.0004         15.2504
  24260429.2714    5475313.57245   4130765.79445                  24260441.7434
         7.5004          8.2504
 00  5  2 15  7 30.0010000  0  7G 2G 4G 7G 8G 9G26G27
  21634575.4114    1597015.91747   1211811.43947                  21634581.3294
        27.7504         26.2504
  22818912.1384   -3208225.72746  -2385261.28746                  22818919.9704
        17.0004         15.7504
  20833127.1924    1457179.76648   1112399.24647                  20833133.1344
        29.5004         28.0004
  23189698.7004    5128218.87446   3884286.36246                  23189706.0284
        16.2504         14.5004
  23586610.0674   -2901581.66046  -2174762.94346                  23586616.1264
        13.2504         14.0004
  23382450.4894    2744113.81546   2082973.05146                  23382457.5834
        14.5004         15.7504
  24273533.6304    5544178.42245   4184426.56245                  24273545.3064
         7.5004          8.2504
 00  5  2 15  7 45.0010000  0  7G 2G 4G 7G 8G 9G26G27
  21638643.5754    1618394.36547   1228469.96047                  21638649.6814
        27.7504         26.0004
  22811977.4424   -3244668.71446  -2413658.38946                  22811984.9464
        17.5004         16.2504
  20837263.8174    1478917.61248   1129337.82647                  20837269.8064
        29.5004         28.0004
  23201989.8964    5192809.90746   3934616.98546                  23201997.0604
        16.2504         14.5004
  23580438.0914   -2934013.76646  -2200034.69946                  23580444.2314
        13.2504         14.0004
  23389596.2634    2781666.82646   2112235.11846                  23389603.6734
        14.5004         15.2504
  24286646.9974    5613088.23045   4238122.34545                  24286657.8294
         7.5004          8.0004
 00  5  2 15  8  0.0010000  0  7G 2G 4G 7G 8G 9G26G27
  21642723.1774    1639832.27147   1245174.81647                  21642729.2474
        27.7504         26.2504
  22805054.5054   -3281048.38446  -2442006.14946                  22805062.0674
        17.5004         16.2504
  20841419.4814    1500755.70448   1146354.52047                  20841425.4584
        29.5004         27.7504
  23214294.4354    5257471.61146   3985002.65246                  23214302.1854
        15.7504         14.7504
  23574279.5914   -2966377.49246  -2225253.16946                  23574286.2354
        13.0004         13.5004
  23396762.8494    2819325.95046   2141579.85846                  23396769.2004
        14.5004         15.2504
  24299770.8024    5682051.80544   4291860.05445                  24299778.9034
         6.7504          7.0004
 00  5  2 15  8 15.0010000  0  7G 2G 4G 7G 8G 9G26G27
  21646813.4424    1661327.17947   1261924.08747                  21646819.4074
        27.5004         26.2504
  22798143.5754   -3317367.06746  -2470306.38746                  22798151.0094
        17.5004         16.2504
  20845593.7084    1522691.28848   1163447.18147                  20845599.6494
        29.0004         28.2504
  23226612.1144    5322201.27746   4035441.28146                  23226619.3374
        16.0004         13.7504
  23568133.5054   -2998675.07946  -2250420.10346                  23568139.5874
        13.2504         14.0004
  23403948.5914    2857088.24446   2171004.99546                  23403955.0364
        14.0004         15.2504
  24312902.4034    5751066.33443   4345637.41345                  24312913.3534
         5.7504          7.7504
 00  5  2 15  8 30.0010000  0  7G 2G 4G 7G 8G 9G26G27
  21650913.9504    1682875.71847   1278715.14347                  21650920.0094
        27.2504         26.2504
  22791242.7714   -3353627.63446  -2498561.32546                  22791250.1694
        17.5004         16.5004
  20849785.7084    1544720.74748   1180612.99147                  20849791.6734
        29.0004         28.0004
  23238942.0054    5386995.07246   4085929.88846                  23238949.3564
        15.7504         14.5004
  23561999.4664   -3030909.71246  -2275537.98846                  23562005.7474
        13.7504         14.0004
  23411153.3494    2894950.02046   2200507.66946                  23411160.0874
        14.0004         14.7504
  24326045.9114    5820128.05743   4399451.62145                  24326057.4814
         6.0004          6.7504
 00  5  2 15  8 45.0010000  0  7G 2G 4G 7G 8G 9G26G27
  21655024.5834    1704477.37447   1295547.59247                  21655030.5244
        27.2504         26.2504
  22784353.8334   -3389830.31646  -2526771.16546                  22784361.2434
        17.7504         16.2504
  20853995.4424    1566843.40448   1197851.42647                  20854001.3604
        29.0004         28.0004
  23251284.1854    5451852.18446   4136467.81746                  23251291.7824
        15.7504         14.2504
  23555877.5284   -3063081.75546  -2300607.11046                  23555883.7744
        14.0004         13.5004
  23418377.1144    2932910.24846   2230087.04346                  23418384.0444
        14.0004         14.7504
  24339196.0604    5889236.11644   4453301.82245                  24339209.2124
         6.2504          7.0004
 00  5  2 15  9  0.0010000  0  7G 2G 4G 7G 8G 9G26G27
  21659145.7554    1726133.74147   1312422.67147                  21659151.8374
        27.0004         26.5004
  22777476.0754   -3425973.28546  -2554934.48246                  22777483.1224
        18.0004         16.0004
  20858223.2784    1589060.48548   1215163.43347                  20858229.2434
        29.0004         27.7504
  23263638.2474    5516773.90146   4187056.11046                  23263645.2944
        16.0004         14.7504
  23549767.6464   -3095189.29446  -2325625.95846                  23549773.8564
        14.0004         14.0004
  23425619.7784    2970970.23746   2259744.15446                  23425626.8254
        14.2504         15.0004
  24352355.9034    5958391.72044   4507189.16545                  24352365.5874
         6.2504          7.5004
 00  5  2 15  9 15.0010000  0  7G 2G 4G 7G 8G 9G26G27
  21663277.3804    1747845.24447   1329340.71647                  21663283.6734
        27.0004         26.5004
  22770609.8964   -3462055.81846  -2583050.69746                  22770616.9194
        18.0004         16.5004
  20862469.0914    1611372.08848   1232549.09447                  20862475.0674
        29.0004         28.0004
  23276004.8494    5581760.27346   4237694.77046                  23276013.0914
        15.5004         14.7504
  23543670.5834   -3127231.82746  -2350594.16046                  23543676.5604
        13.7504         14.0004
  23432881.1224    3009130.00646   2289479.01746                  23432888.1104
        14.5004         15.0004
  24365525.4424    6027594.89343   4561113.59645                  24365537.7394
         5.5004          7.0004
 00  5  2 15  9 30.0010000  0  7G 2G 4G 7G 8G 9G26G27
  21667419.3724    1769611.79047   1346301.65747                  21667425.3494
        27.2504         26.5004
  22763755.0674   -3498077.68346  -2611119.63746                  22763762.1854
        17.5004         16.2504
  20866732.6854    1633777.66848   1250007.98547                  20866738.6854
        28.7504         27.7504
  23288383.7314    5646810.71346   4288383.35746                  23288391.5174
        15.5004         14.0004
  23537584.9194   -3159209.19446  -2375511.58346                  23537591.0134
        13.5004         14.0004
  23440161.8804    3047388.87946   2319291.10346                  23440168.7634
        14.2504         15.0004
  24378703.3414    6096845.09443   4615074.54945                  24378716.9384
         5.5004          7.2504
 00  5  2 15  9 45.0010000  0  7G 2G 4G 7G 8G 9G26G27
  21671571.6924    1791432.80347   1363305.03947                  21671577.7514
        27.2504         26.2504
  22756912.0444   -3534039.35446  -2639141.67846                  22756919.1264
        18.0004         16.5004
  20871013.9424    1656276.65148   1267539.65747                  20871019.9314
        28.7504         27.7504
  23300774.5214    5711924.30946   4339121.15146                  23300782.4934
        14.7504         14.0004
  23531512.0214   -3191121.70146  -2400378.45046                  23531518.0564
        13.0004         13.7504
  23447460.9744    3085745.90646   2349179.67046                  23447467.5954
        14.2504         15.0004
  24391890.3644    6166141.31544   4669071.45345                  24391903.0364
         6.2504          7.0004
 00  5  2 15 10  0.0010000  0  7G 2G 4G 7G 8G 9G26G27
  21675734.5754    1813308.71147   1380351.19347                  21675740.7284
        27.2504         26.7504
  22750079.8564   -3569939.96846  -2667116.13946                  22750087.0214
        17.7504         16.5004
  20875313.1534    1678869.02348   1285144.10547                  20875319.2124
        28.7504         28.0004
  23313177.4114    5777101.18946   4389908.26446                  23313185.4314
        14.7504         14.2504
  23525451.7864   -3222968.68946  -2425194.26446                  23525458.0324
        13.2504         14.0004
  23454778.6694    3124201.12346   2379144.75046                  23454785.5754
        14.7504         15.0004
  24405086.7004    6235483.72244   4723104.32045                  24405100.4154
         7.0004          8.5004
 00  5  2 15 10 15.0010000  0  7G 2G 4G 7G 8G 9G26G27
  21679908.1774    1835241.15447   1397441.40247                  21679914.3414
        27.0004         26.7504
  22743260.3884   -3605777.59646  -2695041.51846                  22743267.7864
        18.2504         16.7504
  20879630.5214    1701556.19948   1302822.41847                  20879636.6034
        28.7504         28.0004
  23325592.0834    5842342.64046   4440745.68046                  23325600.0444
        15.0004         14.5004
  23519404.1774   -3254748.38246  -2449957.65146                  23519410.3644
        13.0004         14.2504
  23462115.5364    3162755.85646   2409187.37946                  23462121.7594
        15.0004         15.2504
  24418290.5604    6304873.55544   4777174.14345                  24418304.0054
         7.2504          9.5004
 00  5  2 15 10 30.0010000  0  7G 2G 4G 7G 8G 9G26G27
  21684091.9894    1857227.44547   1414573.56947                  21684098.0364
        27.7504         26.7504
  22736452.3024   -3641554.59646  -2722919.64346                  22736459.3134
        18.2504         16.5004
  20883965.2474    1724335.13548   1320572.23647                  20883971.2714
        28.7504         28.0004
  23338018.9424    5907645.65346   4491631.06546                  23338026.5054
        14.5004         14.0004
  23513368.9194   -3286463.25446  -2474670.51046                  23513374.9894
        12.5004         13.7504
  23469470.6464    3201406.87146   2439305.02046                  23469477.0094
        15.0004         15.0004
  24431504.3254    6374307.68545   4831278.44345                  24431516.7984
         8.5004          9.5004
 00  5  2 15 10 45.0010000  0  7G 2G 4G 7G 8G 9G26G27
  21688285.9584    1879266.16147   1431746.58847                  21688292.0054
        27.7504         27.0004
  22729655.5134   -3677272.10046  -2750751.42746                  22729661.9814
        18.2504         16.7504
  20888317.0214    1747204.21848   1338392.29847                  20888323.0674
        28.7504         28.0004
  23350457.0444    5973008.38246   4542562.99046                  23350465.4624
        14.2504         13.7504
  23507346.2004   -3318114.51146  -2499333.80546                  23507352.4584
        12.5004         13.5004
  23476844.2864    3240152.40146   2469496.31346                  23476851.2164
        15.0004         15.0004
  24444724.9354    6443784.38145   4885415.95545                  24444737.7004
         8.5004          9.7504
 00  5  2 15 11  0.0010000  0  7G 2G 4G 7G 8G 9G26G27
  21692490.8494    1901362.60847   1448964.59247                  21692496.9784
        27.7504         27.0004
  22722870.6534   -3712924.49946  -2778532.47246                  22722877.2164
        18.2504         16.5004
  20892686.8564    1770168.50448   1356286.54647                  20892692.9274
        28.7504         27.7504
  23362907.8494    6038435.90546   4593545.41246                  23362915.5754
        14.2504         14.0004
  23501336.2474   -3349696.64946  -2523943.24646                  23501342.3884
        12.7504         13.7504
  23484235.9194    3278997.40446   2499765.12546                  23484242.3174
        15.0004         15.0004
  24457955.5604    6513308.50945   4939590.43345                  24457967.3884
         9.0004         10.0004
 00  5  2 15 11 15.0010000  0  7G 2G 4G 7G 8G 9G26G27
  21696706.3414    1923515.37147   1466226.47847                  21696712.3534
        27.7504         27.0004
  22716098.4744   -3748512.85746  -2806263.61146                  22716105.1184
        18.2504         16.5004
  20897074.6464    1793226.22748   1374253.59347                  20897080.7164
        28.7504         28.0004
  23375369.9744    6103926.41846   4644576.90346                  23375378.1694
        14.2504         13.2504
  23495339.4584   -3381210.88946  -2548499.79246                  23495346.2434
        13.0004         14.2504
  23491646.1064    3317939.95946   2530109.94046                  23491652.9274
        15.0004         15.2504
  24471193.9584    6582878.35645   4993800.52045                  24471206.9934
         8.5004          9.5004
 00  5  2 15 11 30.0010000  0  7G 2G 4G 7G 8G 9G26G27
  21700932.3174    1945723.15048   1483531.23447                  21700938.4354
        28.0004         26.7504
  22709338.0364   -3784038.28646  -2833945.70646                  22709344.5524
        18.2504         16.5004
  20901479.9584    1816375.89048   1392292.29147                  20901485.8294
        28.7504         27.7504
  23387844.3104    6169478.39346   4695656.27546                  23387852.1774
        14.0004         13.2504
  23489355.0214   -3412658.31846  -2573004.26046                  23489361.5364
        13.2504         14.0004
  23499075.1384    3356978.53346   2560529.57946                  23499081.5014
        15.0004         15.0004
  24484441.2004    6652492.25045   5048044.94945                  24484454.2004
         8.7504         10.0004
 00  5  2 15 11 45.0010000  0  7G 2G 4G 7G 8G 9G26G27
  21705168.5524    1967984.12948   1500877.43947                  21705174.5524
        28.0004         27.0004
  22702589.7314   -3819502.12346  -2861579.82546                  22702596.2354
        18.2504         16.7504
  20905902.3564    1839615.39648   1410400.99447                  20905908.3454
        28.5004         27.7504
  23400329.6304    6235089.48946   4746781.74246                  23400336.8764
        13.5004         13.5004
  23483382.7944   -3444040.52246  -2597457.92446                  23483388.5954
        13.2504         13.5004
  23506521.9504    3396110.83246   2591022.25846                  23506528.4894
        15.0004         15.0004
  24497696.0524    6722147.94045   5102321.89745                  24497707.8804
         9.2504          9.7504
 00  5  2 15 12  0.0010000  0  7G 2G 4G 7G 8G 9G26G27
  21709414.5524    1990298.38547   1518265.16347                  21709420.6224
        27.7504         27.2504
  22695852.8334   -3854904.15946  -2889165.77346                  22695859.6424
        18.2504         16.5004
  20910341.7164    1862944.53148   1428579.53947                  20910347.7514
        28.5004         27.7504
  23412826.5214    6300759.55046   4797953.14246                  23412834.4704
        13.5004         13.2504
  23477423.5994   -3475357.17846  -2621860.49946                  23477430.0444
        13.0004         13.7504
  23513986.0444    3435336.48546   2621587.66646                  23513992.1264
        15.0004         14.7504
  24510958.8414    6791845.15045   5156631.25645                  24510971.2554
         9.0004         10.7504
 00  5  2 15 12 15.0010000  0  7G 2G 4G 7G 8G 9G26G27
  21713671.4894    2012668.03748   1535696.05447                  21713677.5604
        28.0004         27.2504
  22689128.2634   -3890241.86546  -2916701.59346                  22689135.0364
        18.5004         16.7504
  20914798.5444    1886365.07748   1446829.31147                  20914804.5214
        28.7504         27.5004
  23425334.3644    6366490.21546   4849171.77046                  23425342.5244
        13.2504         13.0004
  23471477.1614   -3506605.98946  -2646210.20646                  23471483.4074
        13.0004         14.0004
  23521468.6144    3474657.14546   2652227.11146                  23521475.0954
        15.0004         15.0004
  24524231.2714    6861585.57045   5210974.22545                  24524244.3534
         9.2504          9.7504
 00  5  2 15 12 30.0010000  0  7G 2G 4G 7G 8G 9G26G27
  21717939.9744    2035099.08148   1553174.79147                  21717946.0324
        28.0004         27.0004
  22682416.9274   -3925509.02046  -2944182.45046                  22682424.1034
        18.2504         16.5004
  20919273.7004    1909882.78248   1465154.79547                  20919279.6534
        28.7504         27.5004
  23437855.4424    6432287.19146   4900442.06446                  23437863.7434
        13.2504         13.5004
  23465544.9744   -3537780.75046  -2670502.20946                  23465551.3134
        13.2504         14.5004
  23528970.3334    3514078.41146   2682944.95246                  23528976.6264
        14.5004         14.7504
  24537511.0284    6931374.82345   5265355.27745                  24537523.7824
         9.0004          9.7504
 00  5  2 15 12 45.0010000  0  7G 2G 4G 7G 8G 9G26G27
  21722218.8104    2057584.22247   1570695.66647                  21722224.8804
        27.7504         27.0004
  22675717.8804   -3960712.52246  -2971613.69946                  22675724.7864
        18.0004         16.7504
  20923766.0134    1933490.00648   1483550.02947                  20923772.0134
        28.5004         27.5004
  23450387.1924    6498142.76246   4951758.02546                  23450395.8564
        13.0004         13.0004
  23459624.9584   -3568888.60646  -2694742.09046                  23459631.2044
        13.5004         14.7504
  23536489.2004    3553592.59046   2713735.20146                  23536496.3764
        14.2504         14.7504
  24550799.7084    7001205.20245   5319768.35545                  24550813.4704
         8.7504          9.7504
 00  5  2 15 13  0.0010000  0  7G 2G 4G 7G 8G 9G26G27
  21726507.7864    2080123.08847   1588258.41547                  21726513.7864
        27.7504         27.0004
  22669030.8724   -3995852.65446  -2998995.55946                  22669037.7784
        18.5004         17.0004
  20928275.3414    1957186.16448   1502014.56947                  20928281.3174
        28.7504         27.5004
  23462929.9274    6564056.40546   5003119.21146                  23462938.2984
        12.7504         12.7504
  23453718.6774   -3599929.66246  -2718929.90246                  23453724.6534
        14.2504         14.7504
  23544026.6534    3593199.03546   2744597.32146                  23544033.0994
        14.5004         14.7504
  24564095.6694    7071075.99345   5374212.94645                  24564108.3764
         8.5004          9.2504
 00  5  2 15 13 15.0010000  0  7G 2G 4G 7G 8G 9G26G27
  21730807.6464    2102719.41247   1605865.92847                  21730813.7984
        27.7504         27.0004
  22662356.7164   -4030925.18246  -3026324.76546                  22662363.6464
        18.2504         16.5004
  20932801.9814    1980974.64848   1520551.04647                  20932807.9354
        28.5004         27.5004
  23475485.0754    6630031.17746   5054528.05846                  23475493.4464
        13.0004         12.7504
  23447824.7634   -3630900.00846  -2743062.62246                  23447830.7864
        14.5004         15.0004
  23551581.5994    3632900.75146   2775533.70346                  23551588.2784
        14.7504         15.0004
  24577400.3804    7140990.42845   5428691.55845                  24577413.1814
         8.0004         10.0004
 00  5  2 15 13 30.0010000  0  7G 2G 4G 7G 8G 9G26G27
  21735117.5674    2125367.85447   1623514.06147                  21735123.5674
        27.2504         27.0004
  22655694.6224   -4065935.32146  -3053605.33646                  22655701.7044
        18.0004         16.5004
  20937345.4664    2004849.89048   1539155.12547                  20937351.3964
        28.5004         27.5004
  23488050.2244    6696061.51046   5105980.19046                  23488058.2674
        13.2504         12.7504
  23441943.9814   -3661804.75846  -2767144.24346                  23441950.2284
        14.5004         15.0004
  23559153.5994    3672692.21446   2806540.00446                  23559159.5174
        14.7504         14.5004
  24590712.2554    7210942.83244   5483199.73045                  24590724.5524
         7.0004          8.2504
 00  5  2 15 13 45.0010000  0  7G 2G 4G 7G 8G 9G26G27
  21739437.7084    2148070.67047   1641204.56147                  21739443.7784
        27.2504         27.0004
  22649044.7714   -4100880.46746  -3080835.26846                  22649052.0754
        17.7504         17.0004
  20941905.5604    2028813.76748   1557828.27547                  20941911.4784
        28.5004         27.5004
  23500626.5364    6762149.43446   5157477.19246                  23500635.4234
        14.0004         13.2504
  23436075.9354   -3692641.49546  -2791172.84946                  23436082.4504
        14.7504         15.2504
  23566743.0524    3712575.20246   2837617.63746                  23566749.7314
        14.5004         14.5004
  24604029.9664    7280935.12143   5537738.93445                  24604042.7434
         6.0004          8.5004
 00  5  2 15 14  0.0010000  0  7G 2G 4G 7G 8G 9G26G27
  21743768.6144    2170829.38847   1658938.61747                  21743774.7084
        27.7504         27.0004
  22642407.3564   -4135758.80246  -3108013.13946                  22642414.4854
        18.0004         17.2504
  20946482.9504    2052867.53348   1576571.46647                  20946488.8334
        28.2504         27.5004
  23513213.5214    6828296.07146   5209019.94646                  23513221.9274
        14.0004         13.2504
  23430221.4354   -3723408.44046  -2815147.08446                  23430227.5874
        15.0004         15.5004
  23574350.6854    3752550.74946   2868767.38446                  23574357.5674
        14.7504         14.7504
  24617358.0284    7350968.41043   5592310.11745                  24617371.5564
         6.0004          7.0004
 00  5  2 15 14 15.0010000  0  7G 2G 4G 7G 8G 9G26G27
  21748109.8964    2193642.79847   1676715.29047                  21748116.0244
        27.5004         26.7504
  22635782.5834   -4170571.15146  -3135139.58746                  22635789.8174
        18.0004         17.5004
  20951076.8884    2077009.74748   1595383.57447                  20951083.0174
        28.2504         27.7504
  23525812.1854    6894499.75046   5260607.17346                  23525819.8294
        13.5004         12.7504
  23424379.2164   -3754106.54646  -2839067.68846                  23424385.8254
        14.7504         14.7504
  23581974.5834    3792617.40146   2899988.12246                  23581980.7594
        15.2504         14.5004
  24630692.4504    7421041.13944   5646912.02945                  24630705.9664
         6.2504          7.5004
 00  5  2 15 14 30.0010000  0  7G 2G 4G 7G 8G 9G26G27
  21752461.6774    2216511.31247   1694534.90647                  21752467.7474
        27.5004         26.5004
  22629170.7004   -4205316.75346  -3162214.02746                  22629177.6534
        18.5004         17.0004
  20955687.8494    2101240.62348   1614264.77847                  20955693.8604
        28.5004         27.5004
  23538421.0914    6960760.60946   5312238.90946                  23538430.0244
        14.2504         13.2504
  23418550.9814   -3784735.15046  -2862934.11846                  23418557.0404
        14.7504         14.7504
  23589616.4274    3832775.03446   2931279.75346                  23589622.6494
        15.0004         14.5004
  24644034.9424    7491153.33444   5701544.70245                  24644047.7674
         6.7504          6.7504
 00  5  2 15 14 45.0010000  0  7G 2G 4G 7G 8G 9G26G27
  21756824.0604    2239436.67947   1712398.81547                  21756830.0954
        27.2504         26.5004
  22622572.2944   -4239993.64346  -3189234.93846                  22622579.3534
        18.5004         17.2504
  20960315.9664    2125561.48148   1633216.09047                  20960321.9784
        28.0004         27.5004
  23551041.5914    7027080.14046   5363916.39446                  23551049.6464
        14.5004         13.0004
  23412736.0524   -3815292.48146  -2886745.00946                  23412742.1574
        15.0004         15.0004
  23597275.9424    3873025.06446   2962643.37646                  23597282.0954
        15.0004         14.2504
  24657385.0754    7561306.30943   5756209.20045                  24657399.5874
         6.0004          6.2504
 00  5  2 15 15  0.0010000  0  7G 2G 4G 7G 8G 9G26G27
  21761197.9194    2262420.16247   1730308.02247                  21761204.0954
        27.5004         26.5004
  22615986.7474   -4274600.32246  -3216201.11446                  22615993.9234
        18.5004         17.5004
  20964961.4974    2149973.43348   1652238.38847                  20964967.4854
        28.0004         27.5004
  23563673.4274    7093459.06646   5415640.15946                  23563681.0244
        14.7504         13.2504
  23406935.4034   -3845776.92946  -2910499.10546                  23406941.6264
        15.2504         15.0004
  23604952.8804    3913368.29146   2994079.62446                  23604958.8214
        14.7504         14.0004
  24670742.0364    7631500.99643   5810906.13045                  24670752.6464
         5.5004          7.0004
 00  5  2 15 15 15.0010000  0  7G 2G 4G 7G 8G 9G26G27
  21765581.2864    2285456.12747   1748258.11747                  21765587.2864
        27.5004         26.5004
  22609413.6614   -4309142.13646  -3243116.76846                  22609420.2714
        18.7504         17.5004
  20969623.0674    2174470.37148   1671326.90847                  20969629.0674
        28.0004         27.2504
  23576314.9274    7159891.47746   5467405.61046                  23576323.2044
        15.2504         13.0004
  23401147.1064   -3876194.01346  -2934200.73146                  23401153.0954
        15.5004         15.0004
  23612646.6304    3953798.54946   3025583.70046                  23612652.5014
        14.7504         14.0004
  24684106.7634    7701731.28443   5865630.80845                  24684124.5914
         5.0004          6.0004
 00  5  2 15 15 30.0010000  0  7G 2G 4G 7G 8G 9G26G27
  21769975.7084    2308547.88847   1766251.69147                  21769981.8254
        27.2504         26.7504
  22602853.6774   -4343615.46246  -3269979.04846                  22602860.3924
        19.0004         17.7504
  20974301.3564    2199055.47048   1690484.12547                  20974307.3564
        28.0004         27.5004
  23588967.1464    7226380.33546   5519215.02646                  23588975.0954
        15.0004         13.7504
  23395372.6464   -3906540.16046  -2957847.07346                  23395378.6574
        15.2504         15.7504
  23620357.2714    3994318.79446   3057157.88146                  23620363.1654
        14.5004         14.0004
  24697478.7084    7772000.21443   5920385.58245                  24697492.7744
         5.0004          5.7504
 00  5  2 15 15 45.0010000  0  7G 2G 4G 7G 8G 9G26G27
  21774380.2164    2331694.45347   1784287.97147                  21774386.2164
        27.2504         26.7504
  22596306.5364   -4378020.75946  -3296788.31046                  22596313.4314
        19.0004         18.0004
  20978996.5364    2223727.52348   1709709.09547                  20979002.6184
        28.0004         27.5004
  23601630.3024    7292924.47646   5571067.52346                  23601637.9934
        14.7504         13.5004
  23389610.7944   -3936816.10446  -2981438.69446                  23389617.0524
        15.0004         15.5004
  23628084.6774    4034927.71346   3088801.16846                  23628091.2164
        14.7504         14.2504
  24710857.4664    7842306.46143   5975169.51945                  24710869.5174
         5.5004          6.0004
 00  5  2 15 16  0.0010000  0  7G 2G 4G 7G 8G 9G26G27
  21778795.8964    2354898.34747   1802368.91147                  21778801.9784
        27.7504         26.7504
  22589772.4114   -4412355.57446  -3323542.66346                  22589778.9624
        19.0004         18.0004
  20983708.2634    2248488.58448   1729003.42247                  20983714.2284
        28.0004         27.5004
  23614304.1064    7359525.69946   5622964.49946                  23614312.2904
        14.5004         13.2504
  23383863.6534   -3967019.13946  -3004973.51146                  23383869.6884
        15.0004         15.5004
  23635829.6224    4075627.32546   3120515.11246                  23635836.2084
        14.5004         14.5004
  24724243.1144    7912652.07643   6029984.04145                  24724258.4114
         5.5004          6.5004
 00  5  2 15 16 15.0010000  0  7G 2G 4G 7G 8G 9G26G27
  21783221.7394    2378156.03747   1820491.77847                  21783227.8804
        27.5004         26.5004
  22583251.8024   -4446622.90346  -3350244.41546                  22583258.8604
        19.2504         18.2504
  20988436.2784    2273334.93748   1748364.20847                  20988442.3964
        28.0004         27.2504
  23626988.3564    7426180.33346   5674903.08746                  23626996.7634
        14.5004         13.7504
  23378129.4894   -3997152.62546  -3028454.14446                  23378135.8294
        14.7504         15.5004
  23643591.2474    4116413.71046   3152296.68446                  23643597.9854
        14.5004         14.2504
  24737637.2554    7983033.12344   6084826.26145                  24737654.1924
         6.2504          5.7504
 00  5  2 15 16 30.0010000  0  7G 2G 4G 7G 8G 9G26G27
  21787658.5284    2401471.89247   1838659.97647                  21787664.5054
        27.7504         26.7504
  22576744.7314   -4480818.16746  -3376890.02446                  22576751.9784
        19.2504         18.2504
  20993181.4894    2298270.58148   1767794.57847                  20993187.5014
        28.0004         27.5004
  23639682.9814    7492892.34546   5726886.38546                  23639691.2124
        14.7504         13.7504
  23372408.9424   -4027211.99246  -3051877.01646                  23372415.1884
        14.7504         15.2504
  23651369.6064    4157290.70846   3184148.84046                  23651375.5834
        14.0004         14.2504
  24751038.1774    8053453.61244   6139699.11645                  24751052.4544
         6.5004          7.7504
 00  5  2 15 16 45.0010000  0  7G 2G 4G 7G 8G 9G26G27
  21792106.7474    2424846.95848   1856874.30347                  21792112.7944
        28.0004         26.5004
  22570251.4424   -4514940.05446  -3403478.45146                  22570258.2744
        19.5004         18.2504
  20997943.7314    2323296.33148   1787295.15547                  20997949.6384
        28.0004         27.2504
  23652389.3334    7559662.34046   5778914.88146                  23652397.4114
        14.7504         13.5004
  23366703.5994   -4057195.91046  -3075241.09346                  23366709.7284
        14.5004         15.0004
  23659165.8724    4198259.03946   3216072.19446                  23659171.8604
        13.5004         13.7504
  24764445.8024    8123914.14544   6194603.20945                  24764461.1224
         6.5004          7.5004
 00  5  2 15 17  0.0010000  0  6G 2G 4G 7G 8G 9G26
  21796565.4114    2448278.26447   1875132.45347                  21796571.4114
        27.7504         26.7504
  22563771.4894   -4548991.18446  -3430011.74846                  22563778.2864
        19.7504         18.0004
  21002722.6534    2348408.93448   1806863.41347                  21002728.6774
        28.2504         27.5004
  23665105.5444    7626487.04946   5830985.98646                  23665113.7634
        14.0004         13.2504
  23361011.3494   -4087107.26046  -3098548.63146                  23361017.6654
        14.5004         15.0004
  23666978.4814    4239315.21246   3248063.99746                  23666985.0324
        13.5004         14.0004
 00  5  2 15 17 15.0010000  0  6G 2G 4G 7G 8G 9G26
  21801035.3724    2471766.80447   1893435.20947                  21801041.3724
        27.7504         27.0004
  22557305.5364   -4582970.32846  -3456488.95046                  22557312.3104
        19.5004         18.2504
  21007517.9974    2373609.00148   1826499.82947                  21007523.9624
        28.0004         27.5004
  23677832.2244    7693367.11446   5883100.25146                  23677840.7824
        13.5004         13.2504
  23355333.6854   -4116944.79546  -3121798.62946                  23355339.6614
        14.7504         15.2504
  23674807.9424    4280459.81946   3280124.70746                  23674814.8024
        13.7504         13.7504
 00  5  2 15 17 30.0010000  0  6G 2G 4G 7G 8G 9G26
  21805514.8254    2495306.81348   1911778.06247                  21805520.8604
        28.0004         27.0004
  22550852.0674   -4616882.85446  -3482914.25146                  22550858.7244
        19.7504         18.2504
  21012328.9504    2398890.63148   1846199.79547                  21012334.9504
        28.2504         27.5004
  23690568.4194    7760296.55846   5935252.98446                  23690576.4744
        13.5004         13.0004
  23349668.6534   -4146714.00146  -3144995.41646                  23349674.9814
        15.0004         15.2504
  23682653.5284    4321686.82546   3312249.62146                  23682660.6694
        13.5004         14.2504
 00  5  2 15 17 45.0010000  0  6G 2G 4G 7G 8G 9G26
  21810004.5914    2518900.97348   1930163.11747                  21810010.5794
        28.0004         27.0004
  22544412.2394   -4650725.93347  -3509285.42446                  22544419.0134
        20.0004         18.5004
  21017155.7314    2424256.11248   1865965.10347                  21017161.8254
        28.5004         27.5004
  23703314.6924    7827277.45746   5987445.80046                  23703324.0244
        13.2504         12.7504
  23344017.0524   -4176412.03846  -3168136.72946                  23344023.1694
        15.0004         15.5004
  23690514.6064    4362998.29046   3344440.33846                  23690521.6534
        14.0004         14.2504
 00  5  2 15 18  0.0010000  0  6G 2G 4G 7G 8G 9G26
  21814505.2314    2542552.01748   1948592.49047                  21814511.2434
        28.2504         27.0004
  22537985.6064   -4684496.38746  -3535600.01446                  22537992.4384
        19.7504         18.5004
  21021999.0524    2449707.93148   1885797.68447                  21022005.0524
        28.5004         27.7504
  23716071.5284    7894312.27346   6039680.63446                  23716080.5564
        13.0004         13.0004
  23338379.8024   -4206035.96746  -3191220.30646                  23338385.8494
        15.2504         15.2504
  23698392.2634    4404396.55546   3376698.70346                  23698399.6734
        13.7504         14.5004
 00  5  2 15 18 15.0010000  0  6G 2G 4G 7G 8G 9G26
  21819017.1384    2566262.54448   1967068.21647                  21819023.3024
        28.0004         27.0004
  22531573.8804   -4718191.41147  -3561855.81946                  22531580.4784
        20.0004         18.7504
  21026859.2714    2475248.35948   1905699.31647                  21026865.2474
        28.7504         27.7504
  23728838.3494    7961403.32846   6091959.29546                  23728847.5404
        13.0004         13.0004
  23332757.2314   -4235582.98046  -3214243.94046                  23332763.0444
        15.0004         15.5004
  23706287.4194    4445883.85246   3409026.43746                  23706293.8064
        14.2504         14.5004
 00  5  2 15 18 30.0010000  0  6G 2G 4G 7G 8G 9G26
  21823540.4504    2590031.22647   1985589.26047                  21823546.4744
        27.7504         26.7504
  22525175.8254   -4751812.00947  -3588053.64946                  22525182.1654
        20.2504         18.5004
  21031735.9504    2500875.80748   1925668.75347                  21031741.8684
        28.5004         27.7504
  23741615.4974    8028548.83146   6144280.35846                  23741624.5714
        12.5004         12.7504
  23327149.1534   -4265054.28546  -3237208.58146                  23327155.5874
        14.7504         15.2504
  23714198.9504    4487458.42746   3441422.19046                  23714205.3134
        14.0004         14.5004
 00  5  2 15 18 45.0010000  0  6G 2G 4G 7G 8G 9G26
  21828074.1774    2613856.47048   2004154.37247                  21828080.2124
        28.0004         27.0004
  22518792.0284   -4785359.56147  -3614194.54946                  22518798.7314
        20.2504         19.0004
  21036628.8174    2526588.38548   1945704.52647                  21036634.8064
        28.5004         27.5004
  23754403.0524    8095746.81546   6196642.35446                  23754412.5364
        12.7504         12.0004
  23321555.2634   -4294451.16646  -3260115.24346                  23321561.5674
        15.0004         15.5004
  23722126.4894    4529118.22546   3473884.33646                  23722133.1924
        14.2504         14.7504
 00  5  2 15 19  0.0010000  0  6G 2G 4G 7G 8G 9G26
  21832619.3104    2637741.40447   2022766.00047                  21832625.4154
        27.7504         26.7504
  22512422.5134   -4818830.56347  -3640275.79846                  22512429.0634
        20.7504         19.0004
  21041538.5994    2552388.87548   1965808.80147                  21041544.5524
        28.2504         27.7504
  23767200.7864    8163000.09346   6249047.43446                  23767209.2514
        12.7504         12.5004
  23315975.8804   -4323770.24146  -3282961.25046                  23315981.6924
        15.2504         15.5004
  23730070.9034    4570865.88846   3506414.96246                  23730077.3604
        14.2504         14.7504
 00  5  2 15 19 15.0010000  0  6G 2G 4G 7G 8G 9G26
  21837174.9504    2661681.39947   2041420.53947                  21837181.0674
        27.7504         26.7504
  22506066.8254   -4852229.29047  -3666300.72946                  22506073.6104
        21.0004         19.2504
  21046464.2164    2578272.43048   1985977.80647                  21046470.1814
        28.2504         27.5004
  23780008.2784    8230303.79646   6301491.78846                  23780017.1064
        12.2504         12.0004
  23310410.6384   -4353015.90546  -3305750.07146                  23310416.9194
        15.2504         15.2504
  23738031.0444    4612696.46746   3539010.18546                  23738037.9274
        14.0004         14.5004
 00  5  2 15 19 30.0010000  0  6G 2G 4G 7G 8G 9G26
  21841741.8254    2685680.42647   2060121.07347                  21841747.8494
        27.7504         26.7504
  22499725.8964   -4885551.52047  -3692266.06246                  22499732.5994
        20.5004         19.0004
  21051406.0134    2604242.69948   2006214.37347                  21051411.9424
        28.2504         27.5004
  23792825.8964    8297661.43246   6353978.16945                  23792835.2744
        12.0004         11.2504
  23304860.1854   -4382184.08746  -3328478.51346                  23304866.1494
        15.5004         15.5004
  23746007.6224    4654613.43546   3571672.73146                  23746014.3134
        14.2504         14.5004
 00  5  2 15 19 45.0010000  0  6G 2G 4G 7G 8G 9G26
  21846319.3174    2709735.89847   2078865.58847                  21846325.2824
        27.7504         26.7504
  22493399.0054   -4918799.59947  -3718173.60446                  22493405.5674
        20.5004         18.5004
  21056364.1854    2630296.86548   2026516.31747                  21056370.0794
        28.0004         27.5004
  23805653.4584    8365069.96646   6406504.19345                  23805662.6144
        12.2504         11.7504
  23299323.8884   -4411277.17646  -3351148.45146                  23299330.0994
        16.0004         15.5004
  23754000.0994    4696613.82846   3604400.26946                  23754007.3924
        14.0004         14.7504
 00  5  2 15 20  0.0010000  0  6G 2G 4G 7G 8G 9G26
  21850908.1224    2733850.61847   2097656.26947                  21850914.2514
        27.7504         26.2504
  22487086.5994   -4951970.43747  -3744020.96646                  22487093.1614
        20.2504         18.7504
  21061338.5054    2656437.43347   2046885.58547                  21061344.5054
        27.7504         27.2504
  23818490.9034    8432531.88546   6459071.81946                  23818500.3414
        12.0004         12.0004
  23293802.7714   -4440292.08346  -3373757.45746                  23293809.0174
        16.2504         15.7504
  23762008.7084    4738699.94846   3637194.62046                  23762016.1184
        14.0004         14.5004
 00  5  2 15 20 15.0010000  0  6G 2G 4G 7G 8G 9G26
  21855509.4584    2758030.33347   2116497.58747                  21855515.4814
        27.2504         26.2504
  22480790.4974   -4985057.96347  -3769803.41146                  22480796.8964
        20.5004         18.7504
  21066330.2714    2682669.70548   2067326.30847                  21066336.2354
        28.0004         27.2504
  23831340.3334    8500052.64745   6511685.30445                  23831349.8294
        11.5004         11.5004
  23288297.3024   -4469222.89346  -3396300.94446                  23288303.3134
        16.0004         15.5004
  23770034.6534    4780877.15846   3670059.94346                  23770041.8994
        13.5004         14.5004
 00  5  2 15 20 30.0010000  0  6G 2G 4G 7G 8G 9G26
  21860120.8884    2782263.03247   2135380.21147                  21860126.9114
        27.5004         26.5004
  22474507.4814   -5018073.92147  -3795530.08646                  22474513.9854
        20.5004         18.7504
  21071337.2394    2708981.50548   2087829.00647                  21071343.3334
        28.0004         27.5004
  23844197.5994    8567619.69245   6564334.86145                  23844205.9934
        11.2504         11.5004
  23282805.6144   -4498081.46446  -3418788.14246                  23282811.7084
        16.0004         15.2504
  23778075.7084    4823132.98646   3702986.54046                  23778082.2004
        13.2504         14.2504
 00  5  2 15 20 45.0010000  0  6G 2G 4G 7G 8G 9G26
  21864742.9194    2806552.75548   2154307.26047                  21864748.9664
        28.0004         26.5004
  22468239.2634   -5051013.97047  -3821197.61146                  22468245.7904
        20.2504         18.7504
  21076360.1774    2735376.52847   2108396.55447                  21076366.1654
        27.7504         27.5004
  23857064.8724    8635236.90545   6617023.48245                  23857072.8924
        11.5004         11.5004
  23277328.5674   -4526863.52046  -3441215.69646                  23277334.5324
        16.0004         16.0004
  23786132.2864    4865470.97046   3735977.13946                  23786138.7084
        13.0004         13.7504
 00  5  2 15 21  0.0010000  0  6G 2G 4G 7G 8G 9G26
  21869376.5444    2830902.68347   2173281.21647                  21869382.6034
        27.2504         26.5004
  22461985.9664   -5083874.69447  -3846803.33646                  22461992.5874
        20.5004         19.0004
  21081399.0914    2761857.66148   2129031.19447                  21081405.0914
        28.0004         27.5004
  23869942.3104    8702906.88345   6669753.23045                  23869951.1264
        11.5004         11.0004
  23271866.6924   -4555565.72846  -3463581.04046                  23271872.8104
        16.5004         16.2504
  23794205.1924    4907893.92146   3769033.94446                  23794211.9544
        13.0004         13.7504
 00  5  2 15 21 15.0010000  0  6G 2G 4G 7G 8G 9G26
  21874021.6064    2855311.56447   2192301.11647                  21874027.7124
        27.7504         26.5004
  22455747.6534   -5116656.99847  -3872347.93446                  22455754.2284
        21.0004         19.0004
  21086454.4664    2788423.34848   2149731.72947                  21086460.5014
        28.2504         27.5004
  23882829.3414    8770628.23046   6722523.01645                  23882838.7784
        12.0004         11.5004
  23266419.9034   -4584189.15646  -3485885.00746                  23266425.9384
        16.5004         15.7504
  23802293.9354    4950400.14646   3802155.64846                  23802300.7554
        12.5004         13.7504
 00  5  2 15 21 30.0010000  0  6G 2G 4G 7G 8G 9G26
  21878677.2164    2879777.36248   2211365.36647                  21878683.2514
        28.0004         26.5004
  22449524.2944   -5149362.54947  -3897832.73846                  22449531.0794
        20.7504         19.0004
  21091525.4894    2815071.29748   2170496.35947                  21091531.5134
        28.2504         27.7504
  23895725.4664    8838398.43346   6775330.86045                  23895734.7514
        12.2504         11.5004
  23260987.7864   -4612735.46946  -3508128.88146                  23260993.8924
        16.5004         16.5004
  23810397.8494    4992987.16846   3835340.31346                  23810404.7434
        12.5004         13.7504
 00  5  2 15 21 45.0010000  0  6G 2G 4G 7G 8G 9G26
  21883343.7164    2904299.98348   2230473.89547                  21883349.8454
        28.0004         26.5004
  22443315.0214   -5181991.28147  -3923257.68146                  22443321.4784
        20.7504         19.0004
  21096611.9894    2841801.12448   2191324.78947                  21096618.0244
        28.2504         27.7504
  23908631.1064    8906216.96446   6828176.37445                  23908639.2554
        12.2504         11.5004
  23255569.8724   -4641204.58046  -3530312.59146                  23255576.0484
        16.7504         16.2504
  23818517.4504    5035654.47546   3868587.53346                  23818524.7674
        12.2504         13.7504
 00  5  2 15 22  0.0010000  0  6G 2G 4G 7G 8G 9G26
  21888021.6614    2928882.09748   2249628.78147                  21888027.6854
        28.0004         26.5004
  22437121.2314   -5214540.30247  -3948620.51346                  22437127.6064
        20.5004         19.0004
  21101714.7084    2868615.22548   2212218.89047                  21101720.7314
        28.5004         27.7504
  23921546.4744    8974086.26246   6881061.44045                  23921555.2784
        12.5004         11.7504
  23250168.1924   -4669593.68946  -3552433.97246                  23250173.9584
        17.0004         16.7504
  23826652.4354    5078404.29646   3901899.03746                  23826659.6464
        12.0004         13.7504
 00  5  2 15 22 15.0010000  0  6G 2G 4G 7G 8G 9G26
  21892711.0754    2953525.55847   2268831.46547                  21892717.1464
        27.7504         26.5004
  22430942.8564   -5247007.25747  -3973919.39146                  22430949.0794
        20.2504         19.0004
  21106833.4504    2895515.13648   2233179.85147                  21106839.4504
        28.7504         28.0004
  23934471.4034    9042007.81746   6933987.22945                  23934481.0284
        12.5004         11.5004
  23244781.3104   -4697900.68546  -3574491.35546                  23244787.4504
        16.7504         16.7504
  23834802.8414    5121238.15346   3935276.04446                  23834810.4744
        12.2504         13.2504
 00  5  2 15 22 30.0010000  0  6G 2G 4G 7G 8G 9G26
  21897411.9114    2978227.77847   2288079.93247                  21897418.0054
        27.5004         26.5004
  22424779.7864   -5279394.55147  -3999156.20746                  22424785.9504
        21.0004         19.0004
  21111968.3644    2922497.98948   2254205.44747                  21111974.3414
        28.7504         28.2504
  23947405.8254    9109978.57346   6986951.31845                  23947414.1854
        12.5004         11.0004
  23239409.9974   -4726127.95446  -3596486.63446                  23239416.0324
        16.2504         16.5004
  23842969.4894    5164152.83446   3968716.02946                  23842976.8764
        12.0004         13.2504
 00  5  2 15 22 45.0010000  0  6G 2G 4G 7G 8G 9G26
  21902123.1384    3002987.38147   2307373.12847                  21902129.0914
        27.7504         26.2504
  22418631.6854   -5311703.22247  -4024331.74746                  22418638.3534
        21.2504         19.2504
  21117118.3334    2949562.12348   2275294.38347                  21117124.3334
        28.7504         28.2504
  23960349.1064    9177996.91046   7039952.53145                  23960358.1574
        12.7504         11.7504
  23234053.3414   -4754276.65346  -3618420.67246                  23234059.4584
        16.2504         16.5004
  23851151.1384    5207146.67146   4002217.68346                  23851158.8414
        12.5004         13.2504
 00  5  2 15 23  0.0010000  0  6G 2G 4G 7G 8G 9G26
  21906845.8724    3027804.68347   2326711.27247                  21906851.9314
        27.2504         26.0004
  22412498.2634   -5343932.70147  -4049445.59046                  22412504.7434
        21.0004         19.5004
  21122284.0214    2976707.61348   2296446.70547                  21122290.0214
        29.0004         28.2504
  23973302.0054    9246062.76846   7092990.75945                  23973310.9274
        12.7504         11.5004
  23228711.5674   -4782346.20846  -3640293.04346                  23228717.6614
        16.2504         16.7504
  23859347.6304    5250219.42046   4035780.83546                  23859354.8414
        12.0004         13.5004
 00  5  2 15 23 15.0010000  0  6G 2G 4G 7G 8G 9G26
  21911580.0604    3052682.38247   2346096.48247                  21911586.1424
        27.0004         26.0004
  22406380.9354   -5376080.04747  -4074495.42846                  22406387.6264
        21.2504         19.2504
  21127465.5754    3003936.77548   2317664.22847                  21127471.6104
        28.7504         28.0004
  23986264.0134    9314178.40946   7146067.76645                  23986271.3884
        12.7504         11.7504
  23223385.9194   -4810333.87446  -3662101.59646                  23223391.9314
        16.5004         17.0004
  23867559.8414    5293373.31446   4069407.20346                  23867567.2284
        12.2504         13.2504
 00  5  2 15 23 30.0010000  0  6G 2G 4G 7G 8G 9G26
  21916325.3414    3077619.92347   2365528.32247                  21916331.2944
        26.7504         26.0004
  22400279.0994   -5408145.49547  -4099481.44346                  22400286.0174
        21.2504         19.7504
  21132662.8644    3031248.67448   2338946.22047                  21132668.8534
        29.0004         28.0004
  23999235.6924    9382342.82446   7199182.80245                  23999243.8884
        12.5004         11.0004
  23218075.5994   -4838239.99446  -3683846.61946                  23218081.4234
        16.5004         17.0004
  23875787.0284    5336607.54246   4103096.18246                  23875794.4154
        12.2504         13.0004
 00  5  2 15 23 45.0010000  0  6G 2G 4G 7G 8G 9G26
  21921081.6224    3102614.78847   2385004.83547                  21921087.7044
        26.5004         26.0004
  22394192.2944   -5440131.21747  -4124405.34846                  22394199.0214
        21.2504         19.7504
  21137875.1854    3058640.70148   2360290.65747                  21137881.1494
        28.7504         28.2504
  24012215.6384    9450553.41346   7252333.78545                  24012224.2434
        12.0004         11.5004
  23212780.0914   -4866066.73946  -3705529.79246                  23212786.0914
        16.7504         17.0004
  23884028.9274    5379919.00146   4136845.34546                  23884035.6424
        12.0004         13.0004
 00  5  2 15 24  0.0010000  0  6G 2G 4G 7G 8G 9G26
  21925849.2634    3127668.95047   2404527.55147                  21925855.2864
        26.7504         26.0004
  22388121.2634   -5472035.07047  -4149265.45646                  22388128.0134
        21.5004         19.7504
  21143103.3644    3086114.39148   2381698.71847                  21143109.2714
        28.5004         28.0004
  24025204.8174    9518811.48745   7305521.77345                  24025213.7284
        11.7504         11.7504
  23207500.4194   -4893812.02846  -3727149.48446                  23207506.3374
        17.0004         17.0004
  23892285.9114    5423309.22646   4170655.87646                  23892292.5564
        12.5004         13.0004
 00  5  2 15 24 15.0010000  0  6G 2G 4G 7G 8G 9G26
  21930628.3564    3152782.97047   2424096.91547                  21930634.4274
        26.7504         26.0004
  22382065.9974   -5503856.12047  -4174061.03746                  22382072.8414
        21.5004         20.0004
  21148347.0054    3113670.11148   2403170.70347                  21148352.9814
        28.5004         27.7504
  24038203.0214    9587117.42445   7358747.07145                  24038212.4814
        11.5004         11.2504
  23202236.5134   -4921475.00346  -3748705.04446                  23202242.3494
        17.5004         17.5004
  23900557.4194    5466778.43646   4204527.94346                  23900564.1344
        12.2504         13.0004
 00  5  2 15 24 30.0010000  0  6G 2G 4G 7G 8G 9G26
  21935418.8254    3177956.55047   2443712.67947                  21935425.1304
        26.5004         26.0004
  22376026.2164   -5535594.35447  -4198792.09446                  22376033.0604
        21.7504         20.0004
  21153606.1774    3141307.13948   2424706.04147                  21153612.2124
        28.5004         28.0004
  24051209.8564    9655470.53345   7412009.11645                  24051219.1184
        11.2504         11.0004
  23196987.7944   -4949055.80546  -3770196.56746                  23196993.8414
        17.5004         17.2504
  23908844.6224    5510325.82146   4238460.93346                  23908852.1614
        12.2504         12.5004
 00  5  2 15 24 45.0010000  0  6G 2G 4G 7G 8G 9G26
  21940220.9114    3203191.60347   2463376.34847                  21940226.9814
        26.5004         26.0004
  22370002.7004   -5567247.59247  -4223456.91346                  22370009.4744
        21.7504         20.2504
  21158881.0834    3169027.24548   2446306.11947                  21158887.1184
        28.5004         28.0004
  24064226.7314    9723872.32645   7465309.11345                  24064237.2594
        11.2504         11.5004
  23191755.4274   -4976552.16446  -3791622.29946                  23191761.6964
        16.7504         17.2504
  23917146.5834    5553952.92246   4272456.03446                  23917153.4154
        12.5004         12.7504
 00  5  2 15 25  0.0010000  0  6G 2G 4G 7G 8G 9G26
  21945033.7944    3228484.68647   2483085.23947                  21945040.1344
        26.5004         26.0004
  22363994.9584   -5598819.05847  -4248058.01846                  22364001.5564
        21.7504         20.5004
  21164171.1924    3196826.60548   2467967.94947                  21164177.2164
        28.2504         28.0004
  24077251.9034    9792319.02945   7518644.08745                  24077260.9424
        11.5004         11.0004
  23186538.5054   -5003967.48746  -3812984.88046                  23186544.5524
        16.5004         17.2504
  23925462.9034    5597655.69346   4306510.10846                  23925470.0794
        12.5004         12.7504
 00  5  2 15 25 15.0010000  0  6G 2G 4G 7G 8G 9G26
  21949857.9354    3253834.96747   2502838.69747                  21949864.1224
        26.2504         25.7504
  22358002.6304   -5630309.26947  -4272595.80746                  22358009.3684
        22.2504         20.5004
  21169475.9584    3224704.03248   2489690.61247                  21169482.0874
        28.2504         28.0004
  24090284.9194    9860809.32245   7572013.02945                  24090293.2784
        11.0004         10.7504
  23181336.7634   -5031302.38546  -3834284.78746                  23181342.9384
        17.0004         17.2504
  23933793.6144    5641433.02346   4340622.25446                  23933799.8254
        12.0004         12.2504
 00  5  2 15 25 30.0010000  0  6G 2G 4G 7G 8G 9G26
  21954693.2164    3279244.32947   2522638.19247                  21954699.2864
        26.2504         25.7504
  22352026.2864   -5661715.98747  -4297068.53946                  22352033.1064
        22.0004         20.7504
  21174796.0134    3252661.16448   2511475.38947                  21174801.9894
        28.5004         28.0004
  24103326.6924    9929344.73145   7625417.14345                  24103335.5674
        10.7504         11.2504
  23176150.9274   -5058554.77446  -3855520.40846                  23176156.9744
        17.5004         17.7504
  23942138.7714    5685286.26646   4374793.59646                  23942145.2744
        12.2504         12.5004
 00  5  2 15 25 45.0010000  0  6G 2G 4G 7G 8G 9G26
  21959540.0914    3304714.61747   2542485.16547                  21959546.1734
        26.5004         25.7504
  22346065.7394   -5693037.23247  -4321474.66646                  22346072.4544
        22.5004         20.7504
  21180131.6924    3280699.66248   2533323.56347                  21180137.6464
        28.5004         27.7504
  24116377.4744    9997926.92545   7678857.68145                  24116387.2164
        11.0004         11.0004
  23170980.9424   -5085722.59146  -3876690.12446                  23170987.1884
        17.5004         17.7504
  23950498.2944    5729216.83545   4409025.18946                  23950504.9624
        11.7504         12.2504
 00  5  2 15 26  0.0010000  0  6G 2G 4G 7G 8G 9G26
  21964399.1534    3330248.75747   2562381.88247                  21964405.2004
        26.7504         26.0004
  22340122.4584   -5724269.71947  -4345811.63846                  22340128.9154
        22.5004         20.7504
  21185483.2944    3308822.03348   2555237.08947                  21185489.3294
        28.5004         28.0004
  24129438.0754   10066558.29945   7732336.57045                  24129448.1464
        10.7504         11.0004
  23165827.7944   -5112802.72346  -3897791.53046                  23165834.4274
        17.5004         17.5004
  23958873.0674    5773227.20246   4443318.93646                  23958879.4894
        12.2504         12.7504
 00  5  2 15 26 15.0010000  0  6G 2G 4G 7G 8G 9G26
  21969269.3174    3355841.91947   2582324.59147                  21969275.4234
        27.0004         25.7504
  22334194.9504   -5755417.91847  -4370082.92146                  22334201.6534
        22.7504         21.0004
  21190849.8254    3337023.24148   2577212.04847                  21190855.8724
        28.2504         28.0004
  24142506.8804   10135233.65645   7785849.70545                  24142516.6344
        10.0004         11.2504
  23160690.2944   -5139799.79446  -3918828.18846                  23160696.3174
        17.7504         17.5004
  23967262.1614    5817312.14445   4477670.80546                  23967268.8994
        11.7504         12.2504
 00  5  2 15 26 30.0010000  0  6G 2G 4G 7G 8G 9G26
  21974150.7944    3381493.84447   2602313.09847                  21974156.8764
        26.7504         26.0004
  22328283.8334   -5786481.87547  -4394288.57446                  22328290.4664
        22.5004         21.0004
  21196230.9424    3365302.63648   2599247.93247                  21196236.9194
        28.5004         28.0004
  24155582.8254   10203952.40545   7839396.64545                  24155591.9814
         9.7504         10.5004
  23155568.9034   -5166713.77246  -3939800.11446                  23155575.0214
        17.5004         17.7504
  23975665.0754    5861470.89145   4512080.17446                  23975671.8604
        11.7504         12.2504
 00  5  2 15 26 45.0010000  0  6G 2G 4G 7G 8G 9G26
  21979043.4664    3407205.29647   2622347.98747                  21979049.4784
        26.7504         25.7504
  22322388.9114   -5817460.63747  -4418427.82746                  22322395.4854
        23.0004         21.0004
  21201627.4744    3393660.68148   2621345.10647                  21201633.4974
        28.2504         28.0004
  24168668.6924   10272714.95145   7892977.72345                  24168677.7314
         9.2504         10.0004
  23150463.3724   -5193543.70246  -3960706.54746                  23150469.6064
        17.5004         17.7504
  23984082.9354    5905703.83045   4546547.36146                  23984089.6614
        11.7504         12.0004
 00  5  2 15 27  0.0010000  0  6G 2G 4G 7G 8G 9G26
  21983948.0444    3432978.27947   2642430.81547                  21983954.0444
        27.0004         25.7504
  22316510.2474   -5848351.70747  -4442498.75946                  22316516.7634
        22.5004         21.0004
  21207039.2244    3422099.14448   2643504.93147                  21207045.2714
        28.5004         28.2504
  24181762.5444   10341522.96545   7946594.23445                  24181772.6144
        10.0004         10.5004
  23145374.2164   -5220287.47446  -3981545.84546                  23145380.6494
        17.5004         17.5004
  23992514.1224    5950012.46245   4581073.52846                  23992521.2984
        11.7504         12.5004
 00  5  2 15 27 15.0010000  0  6G 2G 4G 7G 8G 9G26
  21988864.1534    3458811.88347   2662560.88347                  21988870.2594
        27.2504         25.7504
  22310648.4274   -5879155.85047  -4466501.95446                  22310654.8724
        22.7504         21.0004
  21212465.9424    3450616.81548   2665726.48747                  21212471.9424
        28.7504         28.5004
  24194864.7314   10410375.03045   8000245.06345                  24194874.7204
        10.5004         11.0004
  23140301.2554   -5246945.79246  -4002318.54646                  23140306.9504
        17.5004         17.2504
  24000960.2084    5994395.34445   4615657.55246                  24000966.9234
        11.7504         12.5004
 00  5  2 15 27 30.0010000  0  6G 2G 4G 7G 8G 9G26
  21993790.9744    3484703.41747   2682736.09747                  21993797.0214
        27.2504         25.7504
  22304802.4034   -5909875.48047  -4490439.29146                  22304808.8844
        23.0004         21.0004
  21217907.2944    3479210.63448   2688007.38247                  21217913.3534
        28.5004         28.0004
  24207975.0674   10479268.14145   8053927.89445                  24207984.4584
        10.5004         10.7504
  23135244.1464   -5273521.16346  -4023026.62846                  23135250.0524
        17.7504         17.5004
  24009419.8724    6038849.50946   4650297.12546                  24009427.1774
        12.2504         12.5004
 00  5  2 15 27 45.0010000  0  6G 2G 4G 7G 8G 9G26
  21998729.3024    3510654.98547   2702958.08846                  21998735.3134
        27.0004         25.5004
  22298973.4664   -5940508.09347  -4514308.82646                  22298979.8994
        22.7504         21.2504
  21223363.2004    3507882.44948   2710349.04347                  21223369.2124
        28.7504         28.2504
  24221093.0674   10548204.23245   8107644.19645                  24221102.3764
        10.7504         10.7504
  23130203.1614   -5300011.04646  -4043668.09646                  23130209.3724
        18.2504         17.7504
  24017893.0214    6083376.59946   4684993.51946                  24017899.6884
        12.5004         12.5004
 00  5  2 15 28  0.0010000  0  6G 2G 4G 7G 8G 9G26
  22003680.0524    3536670.11547   2723229.60546                  22003686.1104
        26.7504         25.2504
  22293161.3104   -5971050.02147  -4538107.69546                  22293168.0134
        22.5004         21.0004
  21228834.5054    3536635.54248   2732754.04647                  21228840.5174
        28.7504         28.2504
  24234219.8414   10617186.19445   8161396.24445                  24234228.8804
        10.7504         10.7504
  23125179.5674   -5326411.84346  -4064240.13346                  23125185.7784
        18.2504         18.0004
  24026380.3884    6127979.60146   4719749.06046                  24026387.1854
        12.5004         12.7504
 00  5  2 15 28 15.0010000  0  6G 2G 4G 7G 8G 9G26
  22008641.4354    3562743.07647   2743546.18846                  22008647.5284
        26.7504         25.5004
  22287365.5364   -6001506.61347  -4561840.07746                  22287372.1464
        22.2504         21.2504
  21234320.5134    3565463.83548   2755217.64047                  21234326.5714
        28.7504         28.0004
  24247354.2004   10686208.09245   8215179.43045                  24247364.2244
        10.0004         11.0004
  23120171.5674   -5352729.09246  -4084747.07746                  23120177.5794
        18.0004         17.7504
  24034881.8494    6172652.36946   4754558.97546                  24034889.1424
        12.7504         12.5004
 00  5  2 15 28 30.0010000  0  6G 2G 4G 7G 8G 9G26
  22013614.7394    3588877.30847   2763910.51646                  22013620.7744
        27.0004         25.2504
  22281586.8024   -6031874.22447  -4585503.11046                  22281593.3764
        22.5004         21.2504
  21239821.3104    3594370.51348   2777742.31847                  21239827.2634
        28.5004         28.0004
  24260496.9504   10755272.90545   8268996.02145                  24260507.5954
        10.5004         10.5004
  23115179.8414   -5378959.08346  -4105186.02746                  23115185.8884
        17.7504         17.5004
  24043396.7004    6217397.92046   4789425.59346                  24043403.5954
        12.7504         12.7504
 00  5  2 15 28 45.0010000  0  6G 2G 4G 7G 8G 9G26
  22018598.6774    3615068.24347   2784319.01946                  22018604.7124
        27.0004         25.2504
  22275824.3254   -6062157.07347  -4609100.10046                  22275830.9464
        22.5004         21.0004
  21245336.0834    3623350.64748   2800324.23147                  21245342.0834
        28.5004         28.2504
  24273647.5284   10824375.75245   8322842.25745                  24273656.9544
        11.5004         11.2504
  23110204.0524   -5405106.29646  -4125560.46546                  23110210.1464
        17.0004         17.7504
  24051924.2554    6262211.23146   4824345.00546                  24051930.3724
        13.0004         13.0004
 00  5  2 15 29  0.0010000  0  6G 2G 4G 7G 8G 9G26
  22023595.3174    3641325.26747   2804779.01846                  22023601.2824
        26.5004         25.0004
  22270079.5994   -6092345.57047  -4632623.57846                  22270086.2084
        22.2504         21.2504
  21250866.5754    3652413.45148   2822970.56447                  21250872.6344
        28.5004         28.2504
  24286806.2944   10893525.64545   8376725.16645                  24286816.2124
        11.5004         10.7504
  23105245.9194   -5431161.04746  -4145862.86246                  23105252.0834
        17.0004         17.7504
  24060467.0214    6307101.30946   4859324.25746                  24060473.5484
        13.5004         13.0004
 00  5  2 15 29 15.0010000  0  6G 2G 4G 7G 8G 9G26
  22028602.9974    3667642.35947   2825285.83446                  22028609.1144
        26.0004         24.7504
  22264351.7554   -6122445.38447  -4656077.94146                  22264358.7314
        22.0004         21.0004
  21256411.5284    3681552.52948   2845676.32647                  21256417.5524
        28.7504         28.2504
  24299972.3644   10962716.11045   8430639.71045                  24299983.5134
        10.7504         11.0004
  23100304.7944   -5457129.17546  -4166097.75546                  23100311.0054
        17.7504         17.7504
  24069022.5524    6352061.61146   4894358.21146                  24069029.0914
        13.2504         13.2504
 00  5  2 15 29 30.0010000  0  6G 2G 4G 7G 8G 9G26
  22033622.3564    3694018.21247   2845838.43246                  22033628.4504
        26.0004         25.0004
  22258640.3884   -6152457.61747  -4679464.06346                  22258646.6924
        22.2504         21.0004
  21261970.8024    3710766.29748   2868440.29647                  21261976.8254
        28.5004         28.2504
  24313146.6304   11031945.54845   8484584.57545                  24313156.7124
        10.7504         10.5004
  23095379.3024   -5483011.75346  -4186265.99146                  23095385.1854
        18.0004         17.7504
  24077591.2004    6397090.34246   4929445.50646                  24077597.9854
        13.0004         13.5004
 00  5  2 15 29 45.0010000  0  6G 2G 4G 7G 8G 9G26
  22038652.5364    3720452.37247   2866436.46046                  22038658.5364
        26.0004         25.0004
  22252945.9584   -6182382.41847  -4702782.06046                  22252952.4974
        22.2504         21.0004
  21267544.0444    3740053.93548   2891261.82347                  21267550.0914
        28.5004         28.2504
  24326327.6224   11101213.04845   8538559.10845                  24326337.5994
        10.7504         10.5004
  23090470.3104   -5508809.13246  -4206367.84146                  23090476.1224
        18.0004         17.5004
  24086172.6774    6442186.65046   4964585.43246                  24086180.1574
        13.5004         13.2504
 00  5  2 15 30  0.0010000  0  6G 2G 4G 7G 8G 9G26
  22043694.6464    3746948.60247   2887082.86146                  22043700.9154
        25.7504         25.0004
  22247268.7944   -6212215.72047  -4726028.75846                  22247275.7004
        22.0004         21.0004
  21273132.0364    3769418.96748   2914143.66047                  21273138.0014
        28.5004         28.2504
  24339516.7714   11170522.22945   8592566.11845                  24339526.9354
        10.7504         10.0004
  23085577.8334   -5534517.26946  -4226400.14246                  23085583.7284
        17.7504         17.7504
  24094767.7944    6487353.85246   4999780.60746                  24094775.1104
        13.2504         13.5004
 00  5  2 15 30 15.0010000  0  6G 2G 4G 7G 8G 9G26
  22048748.1064    3773504.67847   2907775.89446                  22048754.3644
        25.7504         25.0004
  22241608.6854   -6241959.40447  -4749205.62346                  22241615.4354
        22.0004         21.0004
  21278734.1464    3798858.91048   2937083.87247                  21278740.1344
        28.2504         28.5004
  24352713.6304   11239870.29245   8646603.44445                  24352723.7244
        11.0004         10.5004
  23080702.5284   -5560138.11046  -4246364.43446                  23080708.6344
        17.5004         17.7504
  24103376.0364    6532589.28246   5035028.95646                  24103382.9314
        13.0004         13.5004
 00  5  2 15 30 30.0010000  0  6G 2G 4G 7G 8G 9G26
  22053812.6614    3800118.78847   2928514.15646                  22053818.8494
        25.7504         25.0004
  22235965.3564   -6271615.00047  -4772313.84346                  22235972.0244
        22.0004         21.2504
  21284350.4424    3828371.64548   2960080.79747                  21284356.4074
        28.5004         28.2504
  24365917.4584   11309255.08445   8700669.37745                  24365927.5054
        11.2504         11.0004
  23075843.3104   -5585673.29946  -4266261.97046                  23075849.3334
        17.7504         17.7504
  24111996.2244    6577890.76846   5070328.77646                  24112003.2004
        13.0004         13.2504
 00  5  2 15 30 45.0010000  0  6G 2G 4G 7G 8G 9G26
  22058888.5214    3826793.06747   2949299.29246                  22058894.5674
        25.7504         25.0004
  22230339.2944   -6301180.24347  -4795351.67046                  22230346.1034
        22.0004         21.5004
  21289980.5914    3857958.92148   2983135.80747                  21289986.6384
        28.5004         28.5004
  24379128.1694   11378678.41945   8754765.36745                  24379138.1224
        10.7504         10.5004
  23071001.0364   -5611120.55946  -4286091.00746                  23071007.0364
        18.0004         18.5004
  24120629.9504    6623259.79546   5105681.20346                  24120637.1384
        12.5004         13.5004
 00  5  2 15 31  0.0010000  0  6G 2G 4G 7G 8G 9G26
  22063976.2394    3853528.68647   2970132.22946                  22063982.2984
        26.5004         24.7504
  22224730.6774   -6330653.68247  -4818317.95546                  22224737.4034
        22.2504         21.7504
  21295625.1304    3887621.57948   3006249.56247                  21295631.0834
        28.5004         28.2504
  24392346.2084   11448140.99345   8808891.90945                  24392357.3924
        10.2504          9.7504
  23066175.4114   -5636478.61246  -4305850.51346                  23066181.3414
        18.2504         18.2504
  24129276.0054    6668697.14546   5141086.90446                  24129283.0404
        12.5004         13.2504
 00  5  2 15 31 15.0010000  0  6G 2G 4G 7G 8G 9G26
  22069075.3724    3880325.85047   2991013.11746                  22069081.3844
        26.5004         25.0004
  22219139.8024   -6360034.79547  -4841212.29946                  22219146.4354
        22.0004         21.2504
  21301284.0214    3917359.63948   3029422.06447                  21301289.9744
        28.7504         28.2504
  24405572.0914   11517642.63845   8863048.88145                  24405581.2354
        10.0004          9.7504
  23061367.1614   -5661746.96446  -4325540.12346                  23061373.3964
        18.7504         18.7504
  24137935.8414    6714202.61946   5176545.68346                  24137943.2864
        12.2504         13.5004
 00  5  2 15 31 30.0010000  0  6G 2G 4G 7G 8G 9G26
  22074187.0524    3907187.20047   3011944.02146                  22074193.1574
        26.7504         25.0004
  22213566.9424   -6389320.67847  -4864032.43246                  22213573.3534
        22.5004         21.5004
  21306957.8884    3947175.41948   3052655.13247                  21306963.8174
        28.5004         28.2504
  24418806.2084   11587185.75645   8917238.20845                  24418814.7674
         9.7504          9.7504
  23056576.3884   -5686922.67746  -4345157.56046                  23056582.2354
        19.5004         18.7504
  24146608.5444    6759778.41045   5212059.23446                  24146616.0834
        11.7504         13.2504
 00  5  2 15 31 45.0010000  0  7G 2G 4G 7G 8G 9G24G26
  22079310.6854    3934111.44147   3032923.93146                  22079316.7554
        26.5004         25.0004
  22208011.6854   -6418512.30047  -4886779.12446                  22208018.2714
        23.0004         21.7504
  21312646.2164    3977067.33148   3075947.52347                  21312652.0874
        28.5004         28.2504
  24432047.0994   11656768.64545   8971458.48945                  24432056.6424
         9.5004          9.7504
  23051803.1854   -5712006.89046  -4364703.69346                  23051809.2314
        19.5004         19.2504
  24804494.6224      -5456.66152
         4.7504
  24155294.2554    6805422.65545   5247626.13846                  24155300.8884
        11.2504         13.0004
 00  5  2 15 32  0.0010000  0  7G 2G 4G 7G 8G 9G24G26
  22084446.3334    3961099.68947   3053953.71746                  22084452.2744
        26.7504         25.5004
  22202474.9974   -6447608.35747  -4909451.34646                  22202481.6884
        23.2504         22.0004
  21318349.2784    4007036.17748   3099299.85747                  21318355.3844
        28.5004         28.2504
  24445296.2244   11726391.94145   9025710.23945                  24445306.1534
         9.2504          9.7504
  23047047.4974   -5736998.30546  -4384177.51546                  23047053.6034
        19.2504         19.2504
  24796703.7084     -46398.45343
         5.0004
  24163993.0834    6851136.10245   5283246.94946                  24164001.4314
        11.5004         13.0004
 00  5  2 15 32 15.0010000  0  7G 2G 4G 7G 8G 9G24G26
  22089593.5834    3988148.30547   3075030.55146                  22089599.5954
        27.0004         25.5004
  22196955.9504   -6476611.98747  -4932051.55146                  22196962.3374
        23.7504         22.2504
  21324065.7944    4037078.12348   3122709.15947                  21324071.7824
        28.5004         28.5004
  24458552.6774   11796051.84345   9079990.54945                  24458562.4194
         9.5004          9.2504
  23042308.3414   -5761900.32046  -4403581.68446                  23042314.3294
        18.7504         18.7504
  24788913.2244     -87336.91543
         5.5004
  24172704.5524    6896914.68745   5318918.53746                  24172712.5244
        11.0004         12.7504
 00  5  2 15 32 30.0010000  0  7G 2G 4G 7G 8G 9G24G26
  22094751.9424    4015256.00947   3096153.42246                  22094758.0364
        27.0004         25.5004
  22191453.9814   -6505524.41547  -4954580.67846                  22191460.5444
        24.0004         22.5004
  21329796.3024    4067191.47048   3146174.09647                  21329802.3724
        28.5004         28.2504
  24471815.1854   11865746.49645   9134297.94745                  24471825.5244
         9.5004          9.7504
  23037586.5754   -5786714.10746  -4422917.07946                  23037592.4934
        19.2504         18.5004
  24781124.0444    -128273.11343
         5.7504
  24181427.9584    6942756.67045   5354639.53446                  24181435.8494
        11.0004         12.2504
 00  5  2 15 32 45.0010000  0  7G 2G 4G 7G 8G 9G24G26
  22099921.8884    4042423.96047   3117323.23046                  22099927.9464
        27.0004         25.5004
  22185969.6854   -6534344.17047  -4977037.60146                  22185975.9894
        24.2504         22.2504
  21335540.2944    4097377.12848   3169695.37647                  21335546.3884
        28.7504         28.2504
  24485083.7164   11935476.75545   9188633.06345                  24485093.1424
         8.7504          9.2504
  23032881.7314   -5811438.29646  -4442182.68146                  23032887.8024
        19.7504         18.7504
  24773333.4744    -169205.55444
         6.5004
  24190163.4424    6988662.76445   5390410.46146                  24190170.7124
        11.0004         12.5004
 00  5  2 15 33  0.0010000  0  7G 2G 4G 7G 8G 9G24G26
  22105103.4744    4069653.47547   3138541.01646                  22105109.5564
        26.7504         25.2504
  22180503.5914   -6563069.49747  -4999420.94346                  22180509.9314
        24.7504         22.5004
  21341298.5134    4127636.19848   3193273.86547                  21341304.5134
        28.7504         28.2504
  24498360.1614   12005243.67045   9242996.71545                  24498370.2554
         8.7504          9.5004
  23028194.4504   -5836071.26146  -4461377.19746                  23028200.4034
        19.7504         19.0004
  24765547.1064    -210132.76244         2.04355                  24765561.0914
         6.5004          6.5004
  24198911.3884    7034633.87245   5426232.05746                  24198919.1034
        11.0004         12.5004
 00  5  2 15 33 15.0010000  0  7G 2G 4G 7G 8G 9G24G26
  22110296.4274    4096943.15347   3159805.68646                  22110302.5674
        26.5004         25.2504
  22175054.7634   -6591701.75847  -5021731.76546                  22175061.1964
        24.7504         22.5004
  21347070.2714    4157966.89648   3216908.16547                  21347076.2594
        28.7504         28.2504
  24511643.9424   12075045.40345   9297387.53145                  24511653.9784
         9.0004          9.5004
  23023523.9814   -5860614.20746  -4480501.56846                  23023530.0174
        19.7504         19.0004
  24757758.4194    -251055.82344    -31885.86945                  24757773.8454
         6.2504          7.5004
  24207671.8024    7080668.13545   5462102.87746                  24207680.1734
        10.7504         12.0004
 00  5  2 15 33 30.0010000  0  7G 2G 4G 7G 8G 9G24G26
  22115501.7314    4124296.52347   3181119.98146                  22115507.8374
        26.7504         25.2504
  22169624.6774   -6620237.08047  -5043967.05146                  22169631.2044
        24.5004         22.7504
  21352856.0834    4188372.33548   3240600.70447                  21352862.0604
        28.7504         28.2504
  24524933.3564   12144884.99545   9351807.82745                  24524943.4504
         8.5004          9.5004
  23018871.3804   -5885063.48246  -4499552.94946                  23018877.3104
        19.7504         19.2504
  24749972.6064    -291971.14944    -63767.74445                  24749988.4194
         6.5004          8.5004
  24216444.6064    7126768.53745   5498025.21746                  24216451.9934
        10.7504         12.0004
 00  5  2 15 33 45.0010000  0  7G 2G 4G 7G 8G 9G24G26
  22120719.4034    4151715.34047   3202485.27046                  22120725.4274
        26.5004         25.2504
  22164213.4814   -6648673.42247  -5066125.20646                  22164219.8334
        24.5004         22.7504
  21358656.8024    4218854.12448   3264352.73647                  21358662.8844
        28.7504         28.5004
  24538230.8414   12214764.03345   9406258.87645                  24538241.5564
         8.5004          9.2504
  23014237.0054   -5909417.05046  -4518529.74346                  23014243.1924
        19.5004         19.5004
  24742186.7164    -332876.59244    -95641.95545                  24742203.1964
         6.2504          8.2504
  24225230.0444    7172936.43045   5534000.16946                  24225237.1264
        10.7504         12.2504
 00  5  2 15 34  0.0010000  0  7G 2G 4G 7G 8G 9G24G26
  22125948.5364    4179194.29647   3223897.42646                  22125954.6654
        26.5004         25.5004
  22158820.0674   -6677015.72647  -5088210.09046                  22158826.6184
        24.7504         23.0004
  21364470.8414    4249406.68148   3288159.91147                  21364476.8174
        29.0004         28.2504
  24551535.0674   12284676.71845   9460736.16945                  24551545.4894
         8.7504          9.2504
  23009619.8104   -5933680.04646  -4537435.96246                  23009625.9274
        19.2504         19.2504
  24734404.3024    -373777.32345   -127512.46545                  24734418.1694
         7.5004          8.5004
  24234027.0834    7219166.11445   5570023.25245                  24234034.5874
        10.7504         11.7504
 00  5  2 15 34 15.0010000  0  7G 2G 4G 7G 8G 9G24G26
  22131188.9194    4206733.61447   3245356.61846                  22131195.2124
        26.2504         25.2504
  22153444.9584   -6705263.54547  -5110221.35446                  22153451.1694
        24.5004         22.7504
  21370298.1694    4280029.99748   3312022.22647                  21370304.0754
        29.0004         28.2504
  24564845.5604   12354622.96445   9515239.55445                  24564855.3024
         8.7504          9.7504
  23005019.9584   -5957852.00446  -4556271.24146                  23005026.1574
        19.0004         19.0004
  24726621.9194    -414672.67445   -159378.83545                  24726636.3494
         7.7504          9.5004
  24242836.0674    7265457.39045   5606094.31045                  24242843.7354
        10.7504         11.7504
 00  5  2 15 34 30.0010000  0  7G 2G 4G 7G 8G 9G24G26
  22136441.5444    4234336.80747   3266865.58746                  22136447.7434
        26.0004         25.0004
  22148088.1384   -6733413.11447  -5132156.05246                  22148094.4664
        24.7504         22.5004
  21376139.7554    4310727.20848   3335942.12747                  21376145.7554
        28.7504         28.5004
  24578162.8024   12424605.91945   9569771.57545                  24578172.0994
         9.0004          9.5004
  23000438.4194   -5981929.27246  -4575032.73846                  23000444.5134
        19.5004         19.2504
  24718842.0054    -455558.94445   -191238.05645                  24718854.8174
         8.2504          9.7504
  24251657.4034    7311813.19845   5642215.67345                  24251664.3564
        10.5004         11.7504
 00  5  2 15 34 45.0010000  0  7G 2G 4G 7G 8G 9G24G26
  22141706.2394    4262001.58647   3288422.54646                  22141712.4624
        25.7504         25.2504
  22142749.4424   -6761466.43247  -5154015.75146                  22142755.5364
        24.5004         22.7504
  21381994.7634    4341495.67848   3359917.54647                  21382000.7164
        29.0004         28.5004
  24591487.2864   12494622.82345   9624330.01245                  24591495.3414
         9.7504          9.5004
  22995874.4354   -6005913.88946  -4593722.05146                  22995880.5174
        19.7504         19.2504
  24711061.9744    -496438.31845   -223091.95245                  24711074.9974
         9.0004         10.2504
  24260490.5834    7358230.89545   5678385.25045                  24260498.2984
        10.7504         11.7504
 00  5  2 15 35  0.0010000  0  7G 2G 4G 7G 8G 9G24G26
  22146981.8884    4289725.79547   3310025.80246                  22146987.9814
        26.0004         25.2504
  22137428.9274   -6789425.34047  -5175801.88446                  22137435.2784
        24.2504         22.7504
  21387863.1304    4372333.01648   3383946.62547                  21387869.2474
        29.0004         28.5004
  24604817.0604   12564671.23145   9678913.06045                  24604827.2594
        10.0004          9.7504
  22991327.4504   -6029807.86347  -4612340.72846                  22991333.3684
        20.0004         19.5004
  24703284.8564    -537312.67345   -254941.93945                  24703296.9194
         9.7504         10.7504
  24269334.8644    7404707.76745   5714600.94545                  24269340.8064
        10.7504         11.7504
 00  5  2 15 35 15.0010000  0  7G 2G 4G 7G 8G 9G24G26
  22152269.5134    4317512.49347   3331677.76046                  22152275.9234
        25.5004         25.5004
  22132126.9894   -6817286.55147  -5197511.89246                  22132133.2824
        24.5004         22.5004
  21393744.6224    4403241.99848   3408031.53447                  21393750.5874
        29.2504         28.5004
  24618153.6924   12634753.84045   9733522.74145                  24618162.4384
        10.2504         10.7504
  22986798.4894   -6053607.83746  -4630886.15546                  22986804.5134
        19.7504         19.2504
  24695507.7164    -578178.62545   -286785.36845                  24695521.2204
         9.7504         10.5004
  24278190.8334    7451246.48845   5750864.84345                  24278196.7044
        10.7504         11.5004
 00  5  2 15 35 30.0010000  0  7G 2G 4G 7G 8G 9G24G26
  22157568.9744    4345361.45047   3353378.23346                  22157575.3374
        25.5004         25.0004
  22126843.9194   -6845050.23147  -5219145.89646                  22126850.1304
        24.2504         22.2504
  21399639.8724    4434221.98448   3432171.77547                  21399645.8374
        29.2504         28.5004
  24631496.4744   12704869.97845   9788158.53145                  24631505.3134
        10.7504         10.5004
  22982286.9664   -6077313.91146  -4649358.41446                  22982292.9894
        19.5004         19.5004
  24687733.3024    -619036.34545   -318622.38645                  24687745.3534
         9.7504         10.2504
  24287058.7714    7497846.29945   5787176.33745                  24287066.6384
        10.5004         11.5004
 00  5  2 15 35 45.0020000  0  7G 2G 4G 7G 8G 9G24G26
  22162880.8074    4373274.86147   3375128.92546                  22162887.1934
        25.5004         25.2504
  22121579.0334   -6872717.40647  -5240704.71146                  22121585.1864
        24.2504         22.0004
  21405549.1114    4465275.14548   3456369.03047                  21405555.0884
        29.2504         28.5004
  24644846.3934   12775024.32245   9842824.10645                  24644856.4514
        10.7504         10.5004
  22977793.4864   -6100927.09446  -4667758.29046                  22977799.6274
        18.7504         19.2504
  24679958.3464    -659887.94945   -350454.64745                  24679970.3384
         9.2504         10.7504
  24295938.1584    7544510.21945   5823537.78845                  24295945.5574
        10.5004         11.5004
 00  5  2 15 36  0.0020000  0  7G 2G 4G 7G 8G 9G24G26
  22168204.2054    4401249.59647   3396927.41246                  22168210.6394
        25.5004         25.2504
  22116333.0724   -6900283.76247  -5262184.95846                  22116339.1314
        24.2504         22.2504
  21411471.6044    4496397.67248   3480620.33747                  21411477.5924
        29.5004         28.5004
  24658202.3774   12845207.62645   9897512.22445                  24658212.1194
        11.2504         10.5004
  22973318.5334   -6124443.43146  -4686082.68746                  22973324.5684
        19.0004         19.5004
  24672188.2134    -700727.05845   -382277.17945                  24672199.6194
         9.5004         10.0004
  24304829.6044    7591232.14245   5859944.43445                  24304837.2834
        10.7504         11.0004
 00  5  2 15 36 15.0020000  0  7G 2G 4G 7G 8G 9G24G26
  22173539.5414    4429287.00447   3418774.72746                  22173545.8814
        25.7504         25.0004
  22111106.5184   -6927751.10247  -5283588.05746                  22111112.6584
        23.7504         22.2504
  21417407.6974    4527590.79848   3504926.66147                  21417413.7564
        29.2504         28.5004
  24671563.6354   12915423.72045   9952225.90345                  24671572.7564
        11.2504         10.0004
  22968861.8304   -6147864.83246  -4704333.12246                  22968867.9594
        19.5004         19.2504
  24664416.9164    -741556.71645   -414092.32245                  24664430.4674
         8.2504          9.7504
  24313731.3304    7638014.24845   5896397.99345                  24313738.1274
        10.5004         10.7504
 00  5  2 15 36 30.0020000  0  7G 2G 4G 7G 8G 9G24G26
  22178887.2294    4457389.37047   3440672.65946                  22178893.4984
        26.2504         25.5004
  22105898.7364   -6955116.96447  -5304912.07546                  22105904.9364
        24.2504         22.2504
  21423357.1194    4558856.51348   3529289.54047                  21423363.0494
        28.7504         28.5004
  24684932.3464   12985674.64645  10006966.72145                  24684942.7094
        10.0004         10.2504
  22964423.4794   -6171188.84547  -4722507.66646                  22964429.5024
        20.0004         19.5004
  24656649.5884    -782374.38045   -445898.12345                  24656662.4364
         7.7504          9.5004
  24322646.0254    7684858.34245   5932899.81345                  24322653.5644
        10.7504         11.2504
 00  5  2 15 36 45.0020000  0  7G 2G 4G 7G 8G 9G24G26
  22184246.2604    4485551.52447   3462617.17246                  22184252.5294
        25.7504         25.2504
  22100709.5964   -6982386.40847  -5326160.96546                  22100715.6894
        24.5004         22.5004
  21429319.6824    4590189.23648   3553704.64147                  21429325.6584
        29.2504         28.5004
  24698306.2754   13055954.72145  10061730.27645                  24698318.7364
        10.0004          9.2504
  22960002.8144   -6194420.49847  -4740610.24846                  22960008.6504
        20.5004         20.0004
  24648884.5184    -823185.01545   -477698.43345                  24648897.5184
         7.7504          9.0004
  24331570.9004    7731758.75345   5969445.54445                  24331578.0414
        10.5004         11.0004
 00  5  2 15 37  0.0020000  0  7G 2G 4G 7G 8G 9G24G26
  22189617.7604    4513778.28447   3484612.03046                  22189623.9944
        26.2504         25.2504
  22095539.6354   -7009554.20447  -5347330.64846                  22095545.6114
        24.5004         22.5004
  21435295.7444    4621593.62048   3578175.58247                  21435301.7564
        29.0004         28.5004
  24711686.9474   13126268.56445  10116520.09145                  24711696.8544
        11.5004         10.2504
  22955600.1434   -6217554.70347  -4758636.89846                  22955606.2484
        20.0004         19.7504
  24641119.4944    -863983.51545   -509489.31545                  24641132.4004
         7.5004          9.2504
  24340507.3384    7778719.96045   6006038.64845                  24340514.9824
        10.2504         11.0004
 00  5  2 15 37 15.0020000  0  7G 2G 4G 7G 8G 9G24G26
  22195001.5494    4542070.61147   3506657.99046                  22195007.8894
        26.2504         25.5004
  22090389.5024   -7036619.15847  -5368420.19946                  22090395.4434
        24.7504         22.5004
  21441285.4944    4653070.32848   3602702.87247                  21441291.4824
        28.7504         28.2504
  24725073.3934   13196616.55145  10171336.56745                  24725082.2324
        11.0004          9.5004
  22951216.5574   -6240590.30746  -4776586.71446                  22951222.5454
        19.7504         20.0004
  24633359.0804    -904768.75445   -541269.83345                  24633372.2564
         7.5004          8.0004
  24349455.6894    7825742.45345   6042679.50645                  24349463.6154
        10.7504         11.0004
 00  5  2 15 37 30.0020000  0  7G 2G 4G 7G 8G 9G24G26
  22200397.6894    4570426.30747   3528753.31646                  22200403.8654
        26.5004         25.5004
  22085258.2524   -7063583.17547  -5389431.08346                  22085264.3814
        24.7504         22.5004
  21447288.5334    4684616.93348   3627284.62647                  21447294.5334
        29.2504         28.5004
  24738465.9324   13266996.19045  10226177.70445                  24738475.2874
        10.2504          9.0004
  22946851.7524   -6263529.36647  -4794461.29446                  22946857.8574
        20.2504         20.0004
  24625600.4554    -945542.55844   -573041.48645                  24625613.6544
         7.0004          8.0004
  24358414.3224    7872823.54445   6079366.01645                  24358421.5684
        10.7504         10.7504
 00  5  2 15 37 45.0020000  0  7G 2G 4G 7G 8G 9G24G26
  22205805.9474    4598846.70247   3550899.06646                  22205812.2404
        26.5004         25.0004
  22080146.6974   -7090444.57147  -5410362.01146                  22080152.7564
        24.7504         22.5004
  21453305.2214    4716234.41848   3651921.62147                  21453311.1154
        29.0004         28.2504
  24751865.6274   13337408.60145  10281044.35445                  24751875.1114
        10.0004          8.5004
  22942505.2214   -6286370.20847  -4812259.34146                  22942511.5024
        20.2504         20.0004
  24617842.8694    -986303.33544   -604802.92545                  24617854.8964
         6.7504          7.7504
  24367384.8614    7919964.17245   6116098.92845                  24367392.4004
        11.0004         11.5004
 00  5  2 15 38  0.0020000  0  7G 2G 4G 7G 8G 9G24G26
  22211225.6824    4627327.68947   3573092.03146                  22211231.7754
        26.5004         25.2504
  22075053.9004   -7117207.23247  -5431216.00246                  22075059.9124
        24.7504         22.5004
  21459334.4864    4747918.39048   3676610.42247                  21459340.5804
        28.7504         28.2504
  24765270.0104   13407849.28445  10335933.06145                  24765279.1434
         9.5004          8.5004
  22938176.5964   -6309116.78847  -4829983.93846                  22938182.7254
        20.5004         20.2504
  24610087.6744   -1027055.08244   -636557.37645                  24610099.6894
         7.0004          7.2504
  24376366.4164    7967159.68945   6152874.61545                  24376373.5804
        10.7504         11.0004
 00  5  2 15 38 15.0020000  0  7G 2G 4G 7G 8G 9G24G26
  22216657.9864    4655874.15347   3595336.00846                  22216664.1864
        26.5004         25.2504
  22069980.8544   -7143866.07347  -5451989.09946                  22069986.8544
        24.7504         23.0004
  21465377.2524    4779673.51048   3701354.65747                  21465383.2644
        28.5004         28.5004
  24778680.6194   13478322.64545  10390847.21545                  24778692.0144
         9.5004          8.5004
  22933867.0884   -6331763.89747  -4847631.03146                  22933873.0764
        21.0004         20.7504
  24602335.5574   -1067792.52844   -668300.67145                  24602346.7994
         7.0004          7.7504
  24385358.7834    8014414.66645   6189696.61345                  24385366.2294
        11.2504         11.2504
 00  5  2 15 38 30.0020000  0  7G 2G 4G 7G 8G 9G24G26
  22222102.6504    4684486.66847   3617631.45746                  22222108.9084
        26.5004         25.5004
  22064927.8934   -7170420.15947  -5472680.56846                  22064934.1624
        25.0004         23.0004
  21471433.5964    4811499.95348   3726154.47547                  21471439.5144
        28.7504         28.2504
  24792097.8224   13548828.96545  10445787.00645                  24792108.0334
         9.2504          7.7504
  22929576.6744   -6354310.78947  -4865200.02846                  22929582.6394
        21.2504         20.7504
  24594586.3384   -1108514.95544   -700032.28945                  24594598.0024
         7.0004          8.0004
  24394362.2914    8061729.17045   6226565.00645                  24394369.6434
        11.2504         11.5004
 00  5  2 15 38 45.0020000  0  7G 2G 4G 7G 8G 9G24G26
  22227559.0964    4713160.83547   3639974.94746                  22227565.2134
        26.5004         25.2504
  22059893.8304   -7196873.76547  -5493293.73946                  22059899.9824
        24.7504         23.0004
  21477502.5644    4843393.08348   3751006.25047                  21477508.6004
        28.7504         28.2504
  24805520.4474   13619363.37245  10500748.77145                  24805531.2794
         9.0004          7.0004
  22925304.1274   -6376761.79247  -4882694.30746                  22925310.1974
        21.0004         20.5004
  24586838.2834   -1149226.50044   -731755.43345                  24586848.5414
         6.5004          7.5004
  24403376.2834    8109098.25945   6263475.95746                  24403385.0414
        11.2504         12.0004
 00  5  2 15 39  0.0020000  0  7G 2G 4G 7G 8G 9G24G26
  22233027.4634    4741896.11847   3662366.05746                  22233033.7094
        26.5004         25.2504
  22054878.8224   -7223227.07647  -5513828.76246                  22054884.8344
        25.2504         22.7504
  21483584.4794    4875352.05848   3775909.33547                  21483590.5614
        28.7504         28.2504
  24818947.8774   13689925.06545  10555731.77045                  24818957.8774
         8.5004          7.5004
  22921050.0104   -6399117.24647  -4900114.14246                  22921056.1744
        20.5004         20.2504
  24579093.7604   -1189927.40744   -763470.26545                  24579104.4754
         6.7504          7.5004
  24412401.0724    8156521.04845   6300428.72245                  24412409.1974
        11.5004         11.0004
 00  5  2 15 39 15.0020000  0  7G 2G 4G 7G 8G 9G24G26
  22238508.3304    4770698.82747   3684809.70746                  22238514.5184
        26.2504         24.7504
  22049884.4004   -7249473.56947  -5534280.54346                  22049890.4364
        25.0004         23.0004
  21489679.6274    4907382.88148   3800868.40847                  21489685.7794
        28.7504         28.2504
  24832381.4394   13760519.84945  10610740.55045                  24832390.9364
         8.0004          7.7504
  22916815.2994   -6421370.65747  -4917454.44646                  22916821.1824
        20.5004         20.5004
  24571351.2684   -1230611.19044   -795171.78245                  24571361.1394
         6.7504          7.7504
  24421436.4864    8204003.26245   6337427.80345                  24421443.9084
        11.5004         11.2504
 00  5  2 15 39 30.0020000  0  7G 2G 4G 7G 8G 9G24G26
  22244001.3544    4799565.64547   3707303.31846                  22244007.4714
        26.0004         25.0004
  22044909.5254   -7275616.31947  -5554651.49246                  22044915.7014
        25.2504         23.0004
  21495787.7604    4939481.89848   3825880.61947                  21495793.7604
        28.7504         28.2504
  24845820.7994   13831144.08044  10665772.23045                  24845829.7444
         7.2504          6.5004
  22912599.4944   -6443525.23147  -4934717.74646                  22912605.4944
        21.0004         20.2504
  24563612.4244   -1271280.92044   -826862.32245                  24563623.0104
         7.2504          7.5004
  24430482.6504    8251541.20545   6374470.29045                  24430489.5924
        11.5004         11.7504
 00  5  2 15 39 45.0020000  0  7G 2G 4G 7G 8G 9G24G26
  22249505.5644    4828489.94047   3729841.71846                  22249511.8464
        26.2504         25.0004
  22039953.2444   -7301661.69847  -5574946.56746                  22039959.3384
        25.2504         23.5004
  21501907.7994    4971642.26348   3850940.62947                  21501913.7644
        28.7504         28.5004
  24859264.1584   13901790.80544  10720821.42745                  24859274.0644
         6.2504          6.7504
  22908401.4004   -6465587.24647  -4951908.91346                  22908407.3894
        21.2504         20.7504
  24555875.7444   -1311942.86945   -858546.78345                  24555886.8464
         8.2504          8.5004
  24439538.3304    8299127.76145   6411550.67745                  24439544.9514
        11.7504         11.5004
 00  5  2 15 40  0.0020000  0  7G 2G 4G 7G 8G 9G24G26
  22255021.9164    4857478.55147   3752430.22646                  22255028.0454
        26.0004         25.0004
  22035017.0184   -7327602.46947  -5595160.12146                  22035023.0764
        25.2504         23.5004
  21508040.7684    5003870.57248   3876053.59147                  21508046.6044
        29.0004         28.2504
  24872714.0494   13972466.57844  10775893.28045                  24872722.3504
         6.7504          6.5004
  22904221.9794   -6487549.73247  -4969022.53146                  22904227.8854
        21.5004         20.7504
  24548139.3224   -1352590.10445   -890219.79345                  24548149.9204
         8.5004          9.2504
  24448604.1114    8346769.37746   6448673.95846                  24448611.1354
        12.0004         12.0004
 00  5  2 15 40 15.0020000  0  7G 2G 4G 7G 8G 9G24G26
  22260550.5024    4886531.16947   3775068.60946                  22260556.6894
        25.7504         24.7504
  22030100.3614   -7353438.77547  -5615292.28446                  22030106.5494
        25.2504         23.7504
  21514186.2134    5036166.12948   3901218.94847                  21514192.2254
        29.0004         28.2504
  24886167.9864   14043170.60644  10830987.22645                  24886180.9984
         6.5004          7.2504
  22900061.5254   -6509412.79547  -4986058.67846                  22900067.4324
        21.2504         20.5004
  24540407.4864   -1393222.54045   -921881.29545                  24540417.8854
         9.0004          9.0004
  24457680.5964    8394465.24045   6485839.51245                  24457686.6544
        11.7504         11.7504
 00  5  2 15 40 30.0020000  0  7G 2G 4G 7G 8G 9G24G26
  22266090.7994    4915644.95747   3797754.65946                  22266097.0214
        25.5004         24.7504
  22025203.3224   -7379173.25047  -5635345.09546                  22025209.5804
        25.2504         23.7504
  21520344.2134    5068525.83348   3926434.29247                  21520350.1074
        29.0004         28.2504
  24899628.1894   14113899.71044  10886100.62445                  24899639.0214
         7.2504          8.2504
  22895919.3774   -6531179.00947  -5003019.35146                  22895925.3184
        21.0004         20.5004
  24532677.0024   -1433842.82245   -953533.32545                  24532688.2444
         9.5004          9.7504
  24466766.4244    8442212.13745   6523044.83745                  24466773.1044
        11.7504         11.7504
 00  5  2 15 40 45.0020000  0  7G 2G 4G 7G 8G 9G24G26
  22271643.2294    4944823.04347   3820490.81146                  22271649.4514
        25.5004         24.7504
  22020326.1194   -7404802.33547  -5655315.78446                  22020332.3424
        25.7504         24.0004
  21526514.7444    5100952.48148   3951701.80347                  21526520.7444
        28.7504         28.5004
  24913091.9474   14184656.60244  10941235.68245                  24913103.6824
         7.2504          7.5004
  22891796.3854   -6552845.09547  -5019902.01146                  22891802.4204
        20.5004         20.2504
  24524951.5644   -1474447.55745   -985173.24345                  24524964.0374
        10.5004          9.5004
  24475862.4244    8490012.67445   6560291.95545                  24475869.1394
        11.7504         11.7504
 00  5  2 15 41  0.0020000  0  7G 2G 4G 7G 8G 9G24G26
  22277207.2914    4974063.46747   3843275.54546                  22277213.6544
        25.2504         24.5004
  22015468.8544   -7430327.86047  -5675205.77946                  22015474.8894
        26.0004         24.0004
  21532697.5964    5133443.96548   3977019.83147                  21532703.5844
        28.7504         28.2504
  24926562.2364   14255438.93745  10996390.58445                  24926574.7444
         7.5004          7.7504
  22887692.4244   -6574412.69747  -5036707.92046                  22887698.6464
        20.7504         20.5004
  24517227.4864   -1515038.42545  -1016802.33245                  24517239.1274
        10.2504          9.7504
  24484968.4324    8537864.43945   6597578.98245                  24484975.5144
        11.5004         11.7504
 00  5  2 15 41 15.0020000  0  7G 2G 4G 7G 8G 9G24G26
  22282783.7684    5003368.49247   3866110.61146                  22282790.1314
        25.5004         24.7504
  22010631.9084   -7455747.28947  -5695013.10246                  22010638.0254
        26.0004         24.2504
  21538893.3224    5166002.16148   4002389.84547                  21538899.3814
        28.7504         28.2504
  24940037.5884   14326248.75645  11051566.91545                  24940051.1974
         8.0004          8.7504
  22883607.1894   -6595879.41547  -5053435.21946                  22883613.1664
        21.2504         20.5004
  24509506.2834   -1555613.02945  -1048418.76745                  24509517.8774
        10.5004         10.5004
  24494084.3074    8585769.28345   6634907.38145                  24494091.3074
        11.2504         11.7504
 00  5  2 15 41 30.0020000  0  7G 2G 4G 7G 8G 9G24G26
  22288373.1664    5032740.91847   3888998.19846                  22288379.5414
        25.5004         24.5004
  22005815.1434   -7481057.53147  -5714735.33946                  22005821.1434
        26.0004         24.2504
  21545102.1664    5198629.62648   4027813.83547                  21545108.2014
        28.7504         28.2504
  24953517.8614   14397088.37945  11106766.46545                  24953531.8814
         8.0004          9.2504
  22879542.2524   -6617242.23747  -5070081.57346                  22879548.2994
        21.7504         20.7504
  24501788.1194   -1596168.19745  -1080020.06945                  24501799.8774
         9.7504         10.7504
  24503211.0964    8633729.52845   6672278.95145                  24503218.6354
        11.0004         11.2504
 00  5  2 15 41 45.0020000  0  7G 2G 4G 7G 8G 9G24G26
  22293975.2604    5062178.80647   3911936.79746                  22293981.5764
        25.5004         24.5004
  22001019.1894   -7506260.25747  -5734373.79546                  22001025.2484
        26.2504         24.2504
  21551323.7134    5231324.10148   4053290.03947                  21551329.7014
        28.7504         28.2504
  24967003.2604   14467955.59845  11161987.49545                  24967015.5574
         8.0004          9.0004
  22875496.6194   -6638502.88047  -5086648.29546                  22875502.5614
        21.7504         21.0004
  24494073.5964   -1636705.71145  -1111607.58345                  24494085.4244
         9.7504          9.7504
  24512347.6114    8681742.80145   6709691.84745                  24512354.6004
        10.7504         11.0004
 00  5  2 15 42  0.0020000  0  7G 2G 4G 7G 8G 9G24G26
  22299589.1504    5091680.17347   3934924.86146                  22299595.3854
        25.5004         24.2504
  21996243.6584   -7531357.31947  -5753929.92446                  21996249.6934
        26.5004         24.5004
  21557557.2604    5264083.32948   4078816.70147                  21557563.2714
        28.7504         28.2504
  24980493.6274   14538847.97645  11217228.13845                  24980507.2834
         8.2504          9.5004
  22871469.8464   -6659663.13647  -5103136.79646                  22871475.8464
        21.7504         21.0004
  24486362.6044   -1677227.31345  -1143182.67645                  24486374.6434
         9.0004         10.2504
  24521493.6974    8729806.69545   6747144.17145                  24521501.5644
        10.0004         11.5004
 00  5  2 15 42 15.0020000  0  7G 2G 4G 7G 8G 9G24G26
  22305215.0724    5121245.31147   3957962.61246                  22305221.2254
        25.2504         24.2504
  21991487.9394   -7556348.07247  -5773403.21046                  21991494.0214
        26.7504         24.5004
  21563803.5644    5296907.29148   4104393.80147                  21563809.5644
        28.5004         28.0004
  24993989.4394   14609765.32945  11272488.25945                  24994002.1354
         9.0004          9.2504
  22867462.3694   -6680722.61447  -5119546.77446                  22867468.3934
        21.5004         21.0004
  24478653.1664   -1717732.37945  -1174744.94145                  24478664.7604
         8.5004         10.0004
  24530649.6354    8777920.97745   6784635.75845                  24530657.5144
         9.7504         11.0004
 00  5  2 15 42 30.0020000  0  7G 2G 4G 7G 8G 9G24G26
  22310853.3934    5150874.55447   3981050.32446                  22310859.5924
        25.2504         24.0004
  21986752.6194   -7581231.82347  -5792793.12046                  21986758.5844
        26.5004         24.5004
  21570062.2994    5329795.97748   4130021.33847                  21570068.3464
        28.5004         28.0004
  25007489.8694   14680707.79545  11327767.96145                  25007502.3424
         9.5004          9.7504
  22863474.0574   -6701680.80347  -5135877.81546                  22863479.9984
        21.7504         21.0004
  24470949.6114   -1758220.36645  -1206293.87245                  24470960.2444
         8.7504         10.5004
  24539814.5804    8826085.43845   6822166.45445                  24539822.7174
         9.5004         10.5004
 00  5  2 15 42 45.0020000  0  7G 2G 4G 7G 8G 9G24G26
  22316503.8304    5180567.63347   4004187.77846                  22316510.2054
        25.2504         24.0004
  21982037.8464   -7606008.83047  -5812099.85246                  21982043.9164
        27.0004         24.5004
  21576332.8854    5362748.87448   4155698.91047                  21576338.9434
        28.5004         28.0004
  25020993.7994   14751674.61545  11383066.62345                  25021005.1824
         8.7504         10.2504
  22859505.1664   -6722537.72347  -5152129.94946                  22859511.2254
        22.0004         21.2504
  24463248.6584   -1798691.30945  -1237829.50245                  24463260.3114
         8.2504         10.2504
  24548990.0804    8874299.52845   6859735.82345                  24548997.2794
         9.5004         10.5004
 00  5  2 15 43  0.0020000  0  7G 2G 4G 7G 8G 9G24G26
  22322166.2994    5210324.16247   4027374.66046                  22322172.5104
        25.2504         24.0004
  21977343.0804   -7630679.06847  -5831323.38346                  21977349.1154
        26.7504         24.5004
  21582615.7364    5395765.35048   4181426.02647                  21582621.7954
        28.5004         28.2504
  25034503.0414   14822665.16045  11438383.76845                  25034514.9284
         8.7504         10.2504
  22855555.5024   -6743293.48447  -5168303.25946                  22855561.5494
        22.2504         21.2504
  24455550.2834   -1839145.24345  -1269351.89145                  24455563.2014
         8.2504         10.5004
  24558174.2054    8922562.38245   6897343.20145                  24558182.1194
         9.5004         11.0004
 00  5  2 15 43 15.0020000  0  7G 2G 4G 7G 8G 9G24G26
  22327841.2604    5240146.89147   4050613.13246                  22327847.3654
        25.2504         24.0004
  21972669.3614   -7655239.51847  -5850461.37146                  21972675.3734
        26.7504         24.5004
  21588911.0254    5428847.83848   4207204.57647                  21588917.0374
        28.2504         28.2504
  25048016.2994   14893681.80745  11493721.26845                  25048029.4044
         8.5004          9.5004
  22851625.5884   -6763945.18347  -5184395.48446                  22851631.5534
        22.2504         21.2504
  24447856.4004   -1879579.28045  -1300858.78645                  24447868.5104
         9.2504         10.5004
  24567368.0104    8970876.22745   6934990.27545                  24567375.8654
         9.0004         11.0004
 00  5  2 15 43 30.0020000  0  7G 2G 4G 7G 8G 9G24G26
  22333528.8854    5270034.93247   4073902.49646                  22333534.9554
        25.2504         24.0004
  21968016.3614   -7679690.97847  -5869514.42546                  21968022.2564
        26.5004         24.7504
  21595218.7994    5461995.07348   4233033.58647                  21595224.7754
        28.2504         28.2504
  25061535.6114   14964723.15845  11549077.99645                  25061549.5494
         8.2504          9.5004
  22847715.3934   -6784493.57347  -5200407.21346                  22847721.3934
        22.2504         21.2504
  24440164.7294   -1919994.09645  -1332350.70945                  24440175.6544
         8.2504         10.7504
  24576570.9714    9019239.71145   6972676.06445                  24576578.8034
         9.2504         10.7504
 00  5  2 15 43 45.0020000  0  7G 2G 4G 7G 8G 9G24G26
  22339229.0024    5299988.86847   4097243.20446                  22339235.0254
        25.0004         23.5004
  21963384.3614   -7704032.47547  -5888481.79746                  21963390.3614
        27.0004         24.5004
  21601538.8544    5495207.45048   4258913.34447                  21601544.8894
        28.2504         28.0004
  25075059.4004   15035789.49045  11604454.22045                  25075072.4124
         9.0004          9.5004
  22843824.8224   -6804937.86147  -5216337.82746                  22843830.7874
        22.2504         21.2504
  24432478.6274   -1960388.80845  -1363826.93845                  24432491.1824
         7.7504         10.5004
  24585783.7134    9067652.89845   7010400.54845                  24585791.7094
         9.0004         11.0004
 00  5  2 15 44  0.0020000  0  7G 2G 4G 7G 8G 9G24G26
  22344941.5884    5330009.19147   4120635.64746                  22344947.7294
        25.0004         23.7504
  21958773.2914   -7728263.40347  -5907363.01246                  21958779.2564
        26.7504         24.5004
  21607871.4794    5528485.05048   4284843.93347                  21607877.4084
        28.7504         28.0004
  25088588.1114   15106880.93645  11659850.00145                  25088600.4324
         8.5004          9.7504
  22839954.3774   -6825277.46047  -5232186.84846                  22839960.3304
        22.2504         21.2504
  24424793.4244   -2000762.75345  -1395286.96845                  24424806.0844
         7.7504         10.5004
  24595005.5574    9116115.93445   7048163.92145                  24595014.5374
         8.7504         11.0004
 00  5  2 15 44 15.0020000  0  7G 2G 4G 7G 8G 9G24G26
  22350666.2054    5360092.23947   4144076.96346                  22350672.3814
        25.2504         23.5004
  21954182.8854   -7752386.95647  -5926160.55946                  21954188.8734
        26.5004         24.7504
  21614215.7294    5561824.15148   4310822.43947                  21614221.6464
        28.2504         28.0004
  25102120.5804   15177993.45045  11715262.17745                  25102133.2294
         9.0004          9.5004
  22836103.2054   -6845515.78547  -5247956.96446                  22836109.1464
        22.0004         21.7504
  24417115.4864   -2041119.04745  -1426733.31845                  24417127.8654
         8.7504         10.0004
  24604236.7214    9164624.71345   7085962.90245                  24604246.1464
         9.0004         11.0004
 00  5  2 15 44 30.0020000  0  7G 2G 4G 7G 8G 9G24G26
  22356402.8144    5390238.22847   4167567.33446                  22356408.9674
        25.2504         23.5004
  21949612.8464   -7776402.80347  -5944874.17446                  21949619.0454
        26.7504         24.7504
  21620571.7214    5595224.61648   4336848.76747                  21620577.7914
        28.2504         28.5004
  25115657.1354   15249127.08245  11770690.91445                  25115670.2874
         8.2504          9.0004
  22832271.2364   -6865652.31947  -5263647.75646                  22832277.2714
        22.0004         21.5004
  24409438.9634   -2081457.43245  -1458165.66845                  24409449.9474
         8.7504         10.5004
  24613476.6894    9213179.06145   7123797.40045                  24613483.9594
         9.0004         11.0004
 00  5  2 15 44 45.0020000  0  7G 2G 4G 7G 8G 9G24G26
  22362151.4474    5420446.50247   4191106.22646                  22362157.5884
        25.2504         23.5004
  21945063.1664   -7800311.26847  -5963504.12246                  21945069.2134
        26.5004         25.0004
  21626938.8384    5628685.42948   4362922.11447                  21626944.9434
        28.2504         28.2504
  25129196.7684   15320280.65045  11826135.06145                  25129209.4164
         8.2504          9.2504
  22828458.6744   -6885687.50047  -5279259.57446                  22828464.6864
        22.5004         21.7504
  24401764.3934   -2121778.28745  -1489584.36545                  24401776.1974
         8.5004         10.0004
  24622725.1584    9261777.80945   7161666.49045                  24622733.7404
         8.7504         11.0004
 00  5  2 15 45  0.0020000  0  7G 2G 4G 7G 8G 9G24G26
  22367912.7524    5450721.75647   4214697.30946                  22367918.9164
        25.2504         23.5004
  21940534.8934   -7824107.51547  -5982046.62646                  21940540.9394
        27.0004         24.7504
  21633318.9244    5662211.04348   4389045.96447                  21633324.9244
        28.7504         28.2504
  25142741.3934   15391458.42245  11881598.12245                  25142755.5064
         7.7504          8.5004
  22824666.5024   -6905616.50447  -5294788.66946                  22824672.5844
        21.7504         21.5004
  24394097.0964   -2162076.53545  -1520985.46045                  24394109.2524
         9.0004         10.2504
  24631981.7214    9310425.23445   7199573.51545                  24631990.0684
         9.2504         11.0004
 00  5  2 15 45 15.0020000  0  7G 2G 4G 7G 8G 9G24G26
  22373686.2914    5481062.88247   4238339.73246                  22373692.5494
        25.2504         23.5004
  21936027.6354   -7847792.22347  -6000502.21446                  21936033.7404
        26.7504         25.0004
  21639710.5184    5695800.07848   4415219.23047                  21639716.6004
        28.2504         28.2504
  25156290.0104   15462658.96344  11937078.92545                  25156303.7364
         6.7504          8.2504
  22820893.7364   -6925440.31447  -5310235.78646                  22820899.6544
        21.2504         21.0004
  24386432.6354   -2202353.18945  -1552369.71945                  24386443.6194
         9.0004         10.2504
  24641247.9004    9359119.67845   7237517.18445                  24641256.0494
         9.2504         11.0004
 00  5  2 15 45 30.0020000  0  7G 2G 4G 7G 8G 9G24G26
  22379471.9794    5511466.73647   4262031.02446                  22379477.9674
        25.2504         23.2504
  21931541.3144   -7871368.52747  -6018873.33646                  21931547.4204
        26.7504         24.5004
  21646113.7444    5729449.10548   4441439.23647                  21646119.8384
        28.2504         28.0004
  25169843.2604   15533878.83544  11992574.78745                  25169857.9364
         6.2504          7.2504
  22817140.9864   -6945161.81647  -5325603.17246                  22817147.0104
        21.5004         21.0004
  24378771.5254   -2242611.19845  -1583739.46045                  24378783.4244
         9.2504         10.2504
  24650523.2214    9407857.58045   7275494.71445                  24650530.9244
         9.2504         11.5004
 00  5  2 15 45 45.0020000  0  7G 2G 4G 7G 8G 9G24G26
  22385270.7134    5541938.26647   4285775.05946                  22385276.9244
        25.5004         23.5004
  21927076.3074   -7894831.17347  -6037155.88146                  21927082.4364
        26.7504         24.7504
  21652529.2684    5763162.68848   4467709.54847                  21652535.3614
        28.5004         28.2504
  25183400.4084   15605122.49643  12048089.19445                  25183415.8814
         6.0004          8.2504
  22813408.4244   -6964775.92347  -5340886.88646                  22813414.3774
        21.5004         21.0004
  24371114.9794   -2282845.27745  -1615090.54645                  24371125.6584
         9.0004          9.5004
  24659806.8774    9456643.40945   7313509.59345                  24659815.9394
         9.5004         11.5004
 00  5  2 15 46  0.0020000  0  7G 2G 4G 7G 8G 9G24G26
  22391081.6664    5572475.24847   4309570.09446                  22391087.7604
        25.5004         23.7504
  21922633.0024   -7918182.02147  -6055351.32846                  21922639.0724
        26.7504         24.7504
  21658956.5494    5796938.50148   4494028.35447                  21658962.6194
        28.5004         28.2504
  25196962.3774   15676387.35743  12103620.11445                  25196973.6074
         5.7504          6.5004
  22809696.2444   -6984284.57747  -5356088.42946                  22809702.1864
        22.0004         21.5004
  24363463.5724   -2323057.26845  -1646424.42145                  24363475.0254
         9.5004         10.0004
  24669099.3854    9505474.54445   7351559.74945                  24669107.2054
         9.2504         10.7504
 00  5  2 15 46 15.0020000  0  7G 2G 4G 7G 8G 9G24G26
  22396905.2294    5603079.43147   4333417.49446                  22396911.3464
        25.5004         23.7504
  21918210.8304   -7941419.20447  -6073458.19446                  21918216.7834
        27.0004         25.0004
  21665396.1504    5830777.84048   4520396.66347                  21665402.1864
        28.2504         28.2504
  25210527.3854   15747675.02143  12159168.86345                  25210542.8344
         5.5004          6.5004
  22806004.1584   -7003685.80347  -5371206.26146                  22806010.3814
        21.7504         21.5004
  24355814.9554   -2363245.34345  -1677739.69745                  24355827.2174
         8.7504          9.7504
  24678400.2054    9554352.39745   7389646.33945                  24678409.3504
         9.2504         10.5004
 00  5  2 15 46 30.0020000  0  7G 2G 4G 7G 8G 9G24G26
  22402742.0184    5633751.04047   4357317.43346                  22402748.0884
        25.5004         23.7504
  21913810.8614   -7964541.94847  -6091475.88746                  21913816.9434
        26.7504         24.7504
  21671847.5964    5864680.94448   4546814.65347                  21671853.5614
        28.2504         28.2504
  25224097.0494   15818985.22142  12214734.99845                  25224111.0214
         4.2504          5.7504
  22802332.8854   -7022979.17947  -5386240.04346                  22802338.8264
        21.7504         21.5004
  24348171.9554   -2403408.83345  -1709035.75545                  24348184.2524
         8.7504          9.7504
  24687710.2294    9603276.59845   7427769.03845                  24687717.8504
         9.2504         10.5004
 00  5  2 15 46 45.0020000  0  7G 2G 4G 7G 8G 9G24G26
  22408591.7604    5664490.59547   4381270.31846                  22408597.8424
        25.2504         23.7504
  21909432.5724   -7987549.71347  -6109403.99546                  21909438.7134
        27.0004         24.7504
  21678311.2604    5898647.86148   4573282.37147                  21678317.2604
        28.2504         28.5004
  25237671.2364   15890318.06742  12270318.89645                  25237683.5574
         4.2504          5.5004
  22798682.1664   -7042163.95247  -5401189.21546                  22798688.1314
        21.7504         21.7504
  24340535.2914   -2443546.99745  -1740312.13545                  24340546.1234
         9.5004         10.5004
  24697028.7294    9652247.34845   7465928.00845                  24697036.6544
         9.2504         10.5004
 00  5  2 15 47  0.0020000  0  7G 2G 4G 7G 8G 9G24G26
  22414453.4004    5695294.61247   4405273.43146                  22414459.3654
        25.2504         23.7504
  21905075.3544   -8010445.66047  -6127244.96346                  21905081.5294
        26.7504         24.7504
  21684786.4714    5932674.67048   4599796.75447                  21684792.4474
        28.5004         28.2504
  25251250.4164   15961669.84542  12325917.62245                  25251260.9554
         4.7504          5.5004
  22795051.5804   -7061243.43747  -5416056.33646                  22795057.6394
        21.5004         21.5004
  24332900.9474   -2483663.15445  -1771571.31345                  24332912.8344
         9.7504         10.2504
  24706356.3854    9701260.60745   7504120.08845                  24706364.9794
         9.5004         10.0004
 00  5  2 15 47 15.0020000  0  7G 2G 4G 7G 8G 9G24G26
  22420327.1114    5726160.93347   4429325.09446                  22420333.2874
        25.5004         23.7504
  21900739.7364   -8033231.83247  -6145000.40046                  21900745.7364
        26.5004         25.0004
  21691272.2754    5966759.12648   4626356.06547                  21691278.3814
        28.5004         28.2504
  25264830.2364   16033037.91943  12381528.93645                  25264841.1624
         5.2504          6.2504
  22791440.1434   -7080219.64747  -5430842.98546                  22791446.1664
        21.7504         21.2504
  24325270.7214   -2523759.17045  -1802814.83745                  24325280.9324
        10.2504         10.5004
  24715690.8384    9750313.75445   7542343.27145                  24715697.7794
         9.2504         10.2504
 00  5  2 15 47 30.0020000  0  7G 2G 4G 7G 8G 9G24G26
  22426213.9794    5757097.70547   4453431.65246                  22426220.2134
        25.5004         23.7504
  21896425.8774   -8055899.83847  -6162663.75746                  21896431.8424
        27.0004         24.7504
  21697770.9944    6000909.00148   4652966.34447                  21697777.0184
        28.2504         28.2504
  25278416.3544   16104429.96744  12437159.03445                  25278431.2644
         6.2504          6.7504
  22787850.3144   -7099084.29547  -5445542.70546                  22787856.2214
        22.5004         21.5004
  24317646.0574   -2563826.67845  -1834036.16945                  24317656.9944
        11.2504         11.0004
  24725034.4394    9799414.39245   7580603.45445                  24725042.6354
         9.5004         10.2504
 00  5  2 15 47 45.0020000  0  7G 2G 4G 7G 8G 9G24G26
  22432114.0104    5788100.44547   4477589.61946                  22432120.2094
        25.7504         24.0004
  21892134.0644   -8078453.94347  -6180238.36246                  21892140.0764
        26.5004         25.2504
  21704280.8464    6035119.56348   4679623.91447                  21704286.9284
        28.5004         28.5004
  25292005.5724   16175841.28044  12492804.13445                  25292021.1044
         6.2504          6.7504
  22784281.2294   -7117841.60547  -5460158.78446                  22784287.2404
        22.2504         22.0004
  24310026.2134   -2603869.83345  -1865238.52345                  24310036.0844
        11.5004         11.0004
  24734385.9634    9848557.75845   7618896.91345                  24734393.0684
         9.5004         10.2504
 00  5  2 15 48  0.0020000  0  7G 2G 4G 7G 8G 9G24G26
  22438026.3464    5819170.02547   4501799.66046                  22438032.4164
        26.0004         24.0004
  21887863.9944   -8100892.92047  -6197723.25246                  21887870.0414
        27.0004         25.0004
  21710802.8614    6069391.37448   4706329.20747                  21710808.8144
        28.5004         28.5004
  25305598.1824   16247272.33444  12548464.50845                  25305611.6504
         6.5004          6.5004
  22780732.2754   -7136490.65847  -5474690.50446                  22780738.2644
        22.2504         21.7504
  24302410.5724   -2643887.62245  -1896421.07745                  24302419.9984
        10.7504         10.5004
  24743745.8694    9897744.21745   7657223.97345                  24743753.1974
         9.7504         10.0004
 00  5  2 15 48 15.0020000  0  7G 2G 4G 7G 8G 9G24G26
  22443950.6974    5850303.49047   4526059.48446                  22443956.9794
        25.5004         24.0004
  21883615.3384   -8123219.59247  -6215120.63446                  21883621.4674
        26.5004         25.2504
  21717335.3384    6103721.22248   4733079.73147                  21717341.2914
        28.5004         28.5004
  25319193.7524   16318719.82344  12604137.75845                  25319207.6544
         6.7504          7.0004
  22777203.6114   -7155034.18147  -5489140.00046                  22777209.6234
        22.5004         22.0004
  24294799.2294   -2683882.67345  -1927585.92345                  24294809.4394
        10.7504         11.0004
  24753112.9864    9946970.20045   7695581.83345                  24753120.0454
        10.0004          9.5004
 00  5  2 15 48 30.0020000  0  7G 2G 4G 7G 8G 9G24G26
  22449888.1504    5881504.73247   4550372.11846                  22449894.3264
        25.5004         24.0004
  21879388.8544   -8145429.79847  -6232427.26846                  21879394.9124
        26.7504         25.2504
  21723879.7834    6138112.66348   4759878.25047                  21723885.9004
        28.5004         28.2504
  25332794.6744   16390187.33645  12659826.61345                  25332807.6504
         7.7504          7.5004
  22773695.6744   -7173468.05147  -5503504.04246                  22773701.8504
        22.7504         22.0004
  24287194.1114   -2723850.85645  -1958729.86545                  24287204.4284
        11.0004         11.2504
  24762489.0964    9996239.34845   7733973.31345                  24762496.2254
        10.0004          9.5004
 00  5  2 15 48 45.0020000  0  7G 2G 4G 7G 8G 9G24G26
  22455838.0804    5912771.27847   4574735.64246                  22455844.0804
        25.7504         23.7504
  21875184.1664   -8167525.64947  -6249644.78946                  21875190.3544
        27.0004         25.0004
  21730435.4554    6172563.02548   4786722.68347                  21730441.5494
        28.5004         28.5004
  25346397.9084   16461671.83645  12715528.70445                  25346411.9514
         8.2504          8.0004
  22770208.3614   -7191794.43547  -5517784.33846                  22770214.3964
        22.7504         22.0004
  24279592.8144   -2763794.34645  -1989854.51945                  24279603.0254
        10.5004         10.5004
  24771872.6044   10045548.67745   7772396.08845                  24771880.6114
        10.5004          9.7504
 00  5  2 15 49  0.0020000  0  7G 2G 4G 7G 8G 9G24G26
  22461799.8224    5944101.18047   4599148.53846                  22461805.9864
        25.7504         24.0004
  21871000.7684   -8189508.90447  -6266774.57546                  21871006.8504
        27.2504         25.2504
  21737002.2294    6207070.09248   4813611.29447                  21737008.2294
        28.2504         28.2504
  25360003.9794   16533171.22245  12771242.38845                  25360016.7794
         8.2504          8.5004
  22766740.9554   -7210015.15847  -5531982.30246                  22766746.9904
        23.0004         21.7504
  24271995.6194   -2803714.84245  -2020961.29045                  24272006.2174
        10.5004         10.0004
  24781262.7754   10094895.83945   7810848.35845                  24781268.9754
        10.7504         10.0004
 00  5  2 15 49 15.0020000  0  7G 2G 4G 7G 8G 9G24G26
  22467774.6114    5975498.26347   4623613.78146                  22467780.8224
        25.2504         24.0004
  21866839.8144   -8211375.58647  -6283813.52746                  21866845.9674
        27.2504         25.2504
  21743580.0254    6241637.30248   4840546.77847                  21743586.1434
        28.0004         28.5004
  25373613.4864   16604688.82245  12826970.23745                  25373623.7214
         8.5004          8.0004
  22763294.7134   -7228126.20847  -5546094.80046                  22763300.7364
        23.0004         22.0004
  24264404.4394   -2843608.28545  -2052046.97645                  24264415.1784
        10.5004         10.2504
  24790660.7364   10144284.14445   7849332.69245                  24790667.1704
        10.7504          9.7504
 00  5  2 15 49 30.0020000  0  7G 2G 4G 7G 8G 9G24G26
  22473761.9554    6006962.20847   4648131.11746                  22473768.2364
        25.5004         24.0004
  21862700.9084   -8233125.65147  -6300761.60846                  21862706.9554
        27.0004         25.2504
  21750169.2994    6276264.25548   4867528.80447                  21750175.3224
        28.0004         28.2504
  25387226.4794   16676224.10545  12882711.92045                  25387242.8544
         8.7504          7.7504
  22759869.0964   -7246127.78147  -5560121.99546                  22759875.1074
        23.0004         22.0004
  24256818.6504   -2883474.60645  -2083111.53445                  24256829.3184
        10.0004         10.7504
  24800067.8614   10193712.90345   7887848.55745                  24800075.3184
        11.0004          9.5004
 00  5  2 15 49 45.0020000  0  7G 2G 4G 7G 8G 9G24G26
  22479762.2684    6038493.01747   4672700.55546                  22479768.5254
        25.7504         23.7504
  21858584.0494   -8254758.98647  -6317618.72547                  21858590.0724
        27.5004         25.7504
  21756769.8854    6310950.56148   4894557.08547                  21756775.9794
        28.0004         28.2504
  25400842.4944   16747776.67245  12938467.05845                  25400856.1044
         8.7504          8.5004
  22756464.4004   -7264019.66047  -5574063.71246                  22756470.4124
        23.0004         22.0004
  24249237.1274   -2923313.57445  -2114154.76745                  24249247.1624
        10.5004         10.5004
  24809481.0574   10243181.64945   7926395.53745                  24809488.1624
        11.0004         10.0004
 00  5  2 15 50  0.0020000  0  6G 2G 4G 7G 9G24G26
  22485775.2914    6070093.07447   4697323.95546                  22485781.4554
        25.5004         23.5004
  21854490.1664   -8276272.86247  -6334382.76847                  21854496.2484
        27.5004         25.7504
  21763382.0644    6345698.30148   4921633.23547                  21763388.0414
        28.2504         28.0004
  22753080.8144   -7281799.37447  -5587918.02846                  22753086.7094
        22.7504         22.5004
  24241662.1194   -2963122.74045  -2145174.79245                  24241671.8854
        10.0004         10.7504
  24818902.8934   10292692.18145   7964975.11245                  24818909.7874
        11.5004         10.2504
 00  5  2 15 50 15.0020000  0  6G 2G 4G 7G 9G24G26
  22491800.9714    6101757.48247   4721997.51246                  22491807.0644
        25.5004         23.5004
  21850418.1194   -8297672.07647  -6351057.45846                  21850424.1074
        27.7504         25.5004
  21770005.1434    6380502.34048   4948753.25447                  21770011.1894
        28.0004         28.0004
  22749718.1824   -7299471.52247  -5601688.52446                  22749724.2754
        23.0004         22.5004
  24234091.4474   -3002906.46145  -2176174.98445                  24234102.1394
        10.2504         10.7504
  24828331.2754   10342239.35245   8003583.22945                  24828337.8384
        11.2504         10.5004
 00  5  2 15 50 30.0020000  0  6G 2G 4G 7G 9G24G26
  22497839.7214    6133490.88647   4746724.81446                  22497845.8854
        26.0004         23.5004
  21846368.7294   -8318951.58547  -6367638.86946                  21846374.8574
        27.5004         25.5004
  21776639.7994    6415367.11748   4975920.60647                  21776645.7644
        28.0004         28.0004
  22746376.5334   -7317031.32347  -5615371.47746                  22746382.6274
        23.0004         22.2504
  24226525.4394   -3042660.04945  -2207151.71245                  24226536.0024
        10.0004         10.7504
  24837768.1274   10391827.30045   8042223.10945                  24837774.0104
        11.5004         10.0004
 00  5  2 15 50 45.0020000  0  6G 2G 4G 7G 9G24G26
  22503891.4004    6165292.57447   4771505.32846                  22503897.4594
        26.0004         23.7504
  21842341.9554   -8340111.98047  -6384127.46547                  21842348.0724
        27.5004         26.0004
  21783285.5024    6450291.44048   5003134.35247                  21783291.5254
        28.2504         28.2504
  22743056.2364   -7334479.23847  -5628967.24446                  22743062.2954
        23.0004         22.0004
  24218966.3074   -3082383.89045  -2238105.24645                  24218975.9324
         9.7504         11.0004
  24847212.0724   10441454.72145   8080893.76145                  24847218.4594
        11.0004         10.0004
 00  5  2 15 51  0.0020000  0  6G 2G 4G 7G 9G24G26
  22509956.0414    6197162.52447   4796339.02946                  22509962.2174
        25.2504         23.2504
  21838337.6664   -8361153.10647  -6400523.12447                  21838343.7364
        27.5004         26.0004
  21789942.9474    6485275.13348   5030394.36647                  21789948.9594
        28.7504         28.2504
  22739757.3614   -7351815.04947  -5642475.66746                  22739763.4084
        23.2504         22.2504
  24211413.8384   -3122077.73645  -2269035.39045                  24211424.7404
         9.7504         11.5004
  24856663.0884   10491121.25945   8119594.89245                  24856670.3114
        11.0004          9.7504
 00  5  2 15 51 15.0020000  0  6G 2G 4G 7G 9G24G26
  22516034.1584    6229102.88547   4821227.60346                  22516040.2994
        25.2504         23.5004
  21834356.9244   -8382072.55947  -6416823.97747                  21834362.9364
        27.7504         26.0004
  21796611.6354    6520320.08148   5057702.10747                  21796617.6234
        28.5004         28.2504
  22736480.0494   -7369036.46447  -5655894.94846                  22736486.0614
        23.2504         22.5004
  24203866.5414   -3161739.14245  -2299940.28545                  24203877.9004
        10.2504         11.0004
  24866122.0884   10540828.67445   8158327.88445                  24866131.4084
        10.5004          9.7504
 00  5  2 15 51 30.0020000  0  6G 2G 4G 7G 9G24G26
  22522124.2134    6261105.87747   4846164.98946                  22522130.4124
        25.2504         23.2504
  21830397.8144   -8402877.77147  -6433035.81047                  21830403.9674
        27.7504         25.7504
  21803290.5884    6555418.16648   5085051.25647                  21803296.7054
        28.5004         28.2504
  22733223.3854   -7386151.05447  -5669230.98346                  22733229.4554
        23.7504         23.0004
  24196323.3934   -3201375.69845  -2330825.79046                  24196332.7364
        10.0004         12.0004
  24875587.4084   10590568.64945   8197086.22345                  24875596.0494
        10.0004          9.7504
 00  5  2 15 51 45.0020000  0  6G 2G 4G 7G 9G24G26
  22528226.9714    6293176.80547   4871155.29946                  22528233.1114
        25.2504         23.2504
  21826461.4944   -8423563.23247  -6449154.32647                  21826467.4824
        27.7504         26.2504
  21809980.7054    6590574.53348   5112445.81747                  21809986.6234
        28.5004         28.2504
  22729988.1044   -7403153.26447  -5682479.45246                  22729994.1624
        23.7504         22.7504
  24188785.6434   -3240981.68245  -2361687.49045                  24188795.8304
        10.0004         11.7504
  24885059.2294   10640346.09045   8235873.76045                  24885067.4364
         9.5004         10.2504
 00  5  2 15 52  0.0020000  0  6G 2G 4G 7G 9G24G26
  22534342.9084    6325315.73747   4896198.59946                  22534349.0844
        25.0004         23.2504
  21822548.1824   -8444128.58547  -6465179.25747                  21822554.1704
        27.7504         26.2504
  21816681.7054    6625788.93248   5139885.59747                  21816687.8114
        28.5004         28.0004
  22726774.2444   -7420042.92247  -5695640.21546                  22726780.1974
        23.7504         23.0004
  24181255.2754   -3280556.97245  -2392525.28246                  24181264.5144
        11.0004         12.2504
  24894538.5724   10690160.65145   8274690.24445                  24894547.7404
         9.0004          9.5004
 00  5  2 15 52 15.0020000  0  6G 2G 4G 7G 9G24G26
  22540471.4714    6357521.79447   4921294.19946                  22540477.7404
        24.7504         23.0004
  21818657.3464   -8464574.52947  -6481111.13747                  21818663.3574
        27.7504         26.2504
  21823393.6584    6661060.23348   5167369.72247                  21823399.6464
        28.2504         28.2504
  22723581.2834   -7436820.77947  -5708713.86846                  22723587.3654
        23.5004         23.0004
  24173730.3774   -3320102.00745  -2423339.51045                  24173739.4044
        11.0004         11.7504
  24904025.3544   10740010.90345   8313534.48245                  24904034.3114
         8.5004          9.7504
 00  5  2 15 52 30.0020000  0  6G 2G 4G 7G 9G24G26
  22546613.3854    6389797.20747   4946443.84946                  22546619.4434
        24.7504         23.0004
  21814789.8304   -8484898.69048  -6496948.13047                  21814795.8184
        28.0004         26.7504
  21830116.8304    6696390.39548   5194899.70947                  21830122.9474
        28.2504         28.0004
  22720410.1194   -7453484.37347  -5721698.48046                  22720416.1664
        24.0004         23.0004
  24166211.2994   -3359614.35245  -2454128.24645                  24166220.9244
        11.5004         11.7504
  24913518.2294   10789898.72445   8352408.07045                  24913528.0764
         8.0004          9.7504
 00  5  2 15 52 45.0020000  0  6G 2G 4G 7G 9G24G26
  22552768.3854    6422142.67447   4971648.08346                  22552774.6314
        24.5004         23.0004
  21810945.5804   -8505100.01048  -6512689.39647                  21810951.4984
        28.0004         26.7504
  21836851.1584    6731779.78948   5222475.84747                  21836857.2054
        28.5004         28.0004
  22717261.0494   -7470032.76647  -5734593.31946                  22717267.0374
        24.2504         23.2504
  24158698.1744   -3399092.98445  -2484890.74045                  24158708.5844
        11.5004         11.7504
  24923018.4714   10839824.37245   8391311.09445                  24923027.4044
         8.0004          9.2504
 00  5  2 15 53  0.0020000  0  6G 2G 4G 7G 9G24G26
  22558936.6974    6454557.43647   4996906.32046                  22558942.7214
        24.2504         23.0004
  21807124.5884   -8525179.22048  -6528335.51547                  21807130.6234
        28.2504         26.5004
  21843596.7684    6767227.43648   5250097.37847                  21843602.7094
        28.5004         27.7504
  22714134.0964   -7486466.65447  -5747398.94546                  22714140.1194
        24.0004         23.2504
  24151192.1894   -3438538.55045  -2515627.43045                  24151202.6584
        11.7504         11.7504
  24932526.0494   10889786.58245   8430242.58945                  24932535.5684
         7.7504          9.0004
 00  5  2 15 53 15.0020000  0  6G 2G 4G 7G 9G24G26
  22565117.5414    6487038.12847   5022215.92946                  22565124.0104
        24.2504         23.0004
  21803326.2294   -8545139.24848  -6543888.76347                  21803332.1934
        28.2504         26.5004
  21850352.4554    6802729.73348   5277761.49547                  21850358.3734
        28.5004         28.0004
  22711028.0254   -7502789.09347  -5760117.71946                  22711034.0254
        24.2504         23.5004
  24143691.2754   -3477953.90145  -2546340.62046                  24143701.4754
        11.7504         12.2504
  24942039.6114   10939781.69145   8469199.74745                  24942048.2054
         7.7504          9.5004
 00  5  2 15 53 30.0020000  0  6G 2G 4G 7G 9G24G26
  22571311.1354    6519585.17047   5047577.23546                  22571317.4984
        24.5004         23.2504
  21799550.7754   -8564979.51948  -6559348.69547                  21799556.7994
        28.0004         26.5004
  21857118.7914    6838286.77848   5305468.27647                  21857124.7564
        28.5004         27.7504
  22707943.0414   -7518999.51047  -5772749.20746                  22707949.0764
        24.5004         23.7504
  24136196.6584   -3517338.56645  -2577029.86246                  24136206.2834
        11.7504         12.0004
  24951560.1584   10989809.48745   8508182.37545                  24951568.9514
         7.7504          9.7504
 00  5  2 15 53 45.0020000  0  6G 2G 4G 7G 9G24G26
  22577518.1044    6552202.69747   5072993.46446                  22577524.3964
        24.5004         23.0004
  21795798.9554   -8584695.56748  -6574711.82647                  21795804.9794
        28.0004         26.7504
  21863896.1114    6873902.42348   5333220.71647                  21863902.1464
        28.5004         28.0004
  22704880.6194   -7535093.63947  -5785290.08046                  22704886.5724
        24.2504         23.7504
  24128708.7214   -3556688.08745  -2607691.77346                  24128717.8184
        11.7504         12.0004
  24961086.8464   11039873.78844   8547193.42545                  24961093.9044
         7.2504          9.5004
 00  5  2 15 54  0.0020000  0  6G 2G 4G 7G 9G24G26
  22583737.3934    6584884.87047   5098460.07246                  22583743.8964
        24.2504         23.0004
  21792069.8774   -8604293.20948  -6589982.69647                  21792075.9364
        28.2504         27.0004
  21870683.6274    6909570.57448   5361014.07347                  21870689.6394
        28.2504         27.7504
  22701839.0724   -7551077.19047  -5797744.78646                  22701844.9794
        24.5004         24.0004
  24121226.1114   -3596008.04745  -2638330.59845                  24121235.0804
        11.7504         11.7504
  24970619.8774   11089968.19445   8586227.94245                  24970627.7214
         7.5004          9.2504
 00  5  2 15 54 15.0020000  0  6G 2G 4G 7G 9G24G26
  22589969.8544    6617637.80147   5123981.81546                  22589976.4634
        24.2504         23.2504
  21788364.3144   -8623766.03548  -6605156.30547                  21788370.2914
        28.5004         26.7504
  21877482.1824    6945297.07148   5388852.89147                  21877488.2874
        28.5004         27.7504
  22698819.5964   -7566943.86747  -5810108.42246                  22698825.6664
        24.7504         24.0004
  24113751.5724   -3635291.98046  -2668941.38146                  24113760.5534
        12.5004         12.0004
  24980160.0644   11140098.38645   8625290.33945                  24980170.2644
         7.5004          9.2504
 00  5  2 15 54 30.0020000  0  6G 2G 4G 7G 9G24G26
  22596215.5724    6650457.88347   5149555.88346                  22596222.1234
        24.2504         23.2504
  21784681.4474   -8643117.37348  -6620235.25347                  21784687.4824
        28.2504         26.7504
  21884291.0494    6981077.94148   5416734.08247                  21884297.1544
        28.5004         27.7504
  22695821.9084   -7582697.05247  -5822383.62646                  22695827.7914
        24.7504         24.0004
  24106281.0184   -3674543.39745  -2699526.81146                  24106290.7714
        11.7504         12.2504
  24989704.7604   11190260.33444   8664377.50645                  24989714.3854
         7.2504          9.5004
 00  5  2 15 54 45.0020000  0  6G 2G 4G 7G 9G24G26
  22602473.6584    6683345.79947   5175182.81346                  22602480.2324
        24.2504         23.2504
  21781022.3854   -8662346.42948  -6635218.91247                  21781028.3384
        28.5004         26.5004
  21891110.3694    7016913.76148   5444658.08547                  21891116.5104
        28.5004         27.7504
  22692846.0184   -7598335.81047  -5834569.66846                  22692851.8654
        24.7504         23.7504
  24098818.5414   -3713761.20546  -2730086.05546                  24098827.6624
        12.2504         12.2504
  24999256.7604   11240454.33245   8703489.58345                  24999265.8814
         7.5004          8.7504
 00  5  2 15 55  0.0020000  0  6G 2G 4G 7G 9G24G26
  22608745.7364    6716304.12647   5200864.60646                  22608752.3574
        24.7504         23.0004
  21777387.1274   -8681450.18348  -6650104.93547                  21777393.1744
        28.0004         26.5004
  21897940.7054    7052806.79048   5472626.66547                  21897946.6464
        28.2504         27.5004
  22689892.3384   -7613857.42847  -5846664.42846                  22689898.4434
        24.7504         23.7504
  24091362.4084   -3752942.56146  -2760616.90646                  24091372.1974
        12.2504         12.0004
  25008815.1434   11290682.56045   8742628.41445                  25008823.4554
         7.7504          9.2504
 00  5  2 15 55 15.0020000  0  6G 2G 4G 7G 9G24G26
  22615030.4634    6749330.87747   5226599.71546                  22615036.9794
        24.5004         23.5004
  21773775.3224   -8700430.51648  -6664894.78647                  21773781.3694
        28.0004         26.7504
  21904781.2834    7088754.88548   5500638.15747                  21904787.2714
        28.5004         27.7504
  22686960.5644   -7629263.65647  -5858669.27346                  22686966.5644
        24.5004         24.0004
  24083913.2294   -3792089.15246  -2791120.65345                  24083921.9044
        12.2504         11.7504
  25018380.0184   11340942.50945   8781791.88945                  25018388.7404
         8.2504          9.5004
 00  5  2 15 55 30.0020000  0  6G 2G 4G 7G 9G24G26
  22621328.4474    6782427.40647   5252389.20046                  22621334.8464
        24.5004         23.2504
  21770187.1974   -8719285.89948  -6679587.27147                  21770193.2684
        28.0004         26.7504
  21911632.8774    7124759.05848   5528693.34847                  21911638.9714
        28.2504         27.7504
  22684051.3224   -7644552.96247  -5870583.01546                  22684057.3934
        24.7504         24.0004
  24076470.3464   -3831199.32045  -2821596.02846                  24076479.7714
        11.7504         12.0004
  25027949.4084   11391235.11045   8820980.85445                  25027957.2294
         8.2504          9.7504
 00  5  2 15 55 45.0020000  0  6G 2G 4G 7G 9G24G26
  22627639.3144    6815590.16847   5278230.29146                  22627645.7484
        24.5004         23.2504
  21766622.4714   -8738019.53748  -6694184.90147                  21766628.4364
        28.2504         26.7504
  21918494.0334    7160815.50048   5556789.26647                  21918499.9984
        28.5004         27.7504
  22681163.2294   -7659728.64547  -5882408.22046                  22681169.1004
        25.0004         23.7504
  24069034.2054   -3870276.35645  -2852045.58546                  24069044.0184
        11.7504         12.0004
  25037525.1584   11441556.50745   8860192.21045                  25037532.3934
         7.7504          9.0004
 00  5  2 15 56  0.0020000  0  6G 2G 4G 7G 9G24G26
  22633963.3934    6848824.13047   5304126.86246                  22633970.0144
        24.7504         23.2504
  21763081.4394   -8756626.44448  -6708683.76647                  21763087.4394
        28.0004         26.7504
  21925366.2524    7196928.76148   5584929.45647                  21925372.2404
        28.0004         27.5004
  22678298.2684   -7674785.70847  -5894140.98946                  22678304.1864
        25.0004         24.0004
  24061606.0104   -3909315.15246  -2882465.34346                  24061614.4864
        12.0004         12.0004
  25047107.5724   11491911.03845   8899429.42845                  25047114.2754
         8.2504         10.2504
 00  5  2 15 56 15.0020000  0  6G 2G 4G 7G 9G24G26
  22640300.6114    6882125.49147   5330075.95246                  22640307.3144
        24.5004         23.0004
  21759564.1824   -8775110.07048  -6723086.57547                  21759570.2404
        28.0004         26.5004
  21932248.4324    7233094.87548   5613110.83447                  21932254.5024
        28.2504         27.5004
  22675454.6664   -7689727.78847  -5905784.16646                  22675460.7014
        24.7504         24.2504
  24054182.3934   -3948319.33045  -2912858.13346                  24054191.4554
        11.2504         12.0004
  25056695.6044   11542294.45045   8938689.14545                  25056703.3654
         8.0004         10.2504
 00  5  2 15 56 30.0020000  0  6G 2G 4G 7G 9G24G26
  22646650.1664    6915493.84847   5356077.24446                  22646656.6234
        24.2504         22.7504
  21756070.2754   -8793470.66148  -6737393.51247                  21756076.3934
        28.5004         26.7504
  21939140.4084    7269313.16548   5641332.86347                  21939146.4084
        28.2504         27.5004
  22672633.0574   -7704555.05947  -5917337.87946                  22672639.0804
        24.2504         23.7504
  24046767.4084   -3987288.90945  -2943223.96146                  24046775.8614
        11.2504         12.0004
  25066288.2754   11592705.95345   8977970.74445                  25066296.6704
         8.7504         10.2504
 00  5  2 15 56 45.0020000  0  6G 2G 4G 7G 9G24G26
  22653012.9394    6948929.84147   5382131.24846                  22653019.4324
        24.2504         23.0004
  21752599.8384   -8811707.35748  -6751603.90747                  21752605.7324
        28.2504         27.0004
  21946042.3774    7305584.04647   5669595.87547                  21946048.4714
        27.7504         27.5004
  22669833.6194   -7719266.70547  -5928801.49346                  22669839.6314
        24.2504         23.7504
  24039358.5184   -4026222.88645  -2973562.02646                  24039366.6194
        11.0004         12.0004
  25075887.3774   11643145.71045   9017274.34745                  25075896.1584
         9.0004         10.5004
 00  5  2 15 57  0.0020000  0  6G 2G 4G 7G 9G24G26
  22659388.8074    6982434.70947   5408238.91546                  22659395.4984
        24.5004         22.7504
  21749153.3074   -8829818.66348  -6765716.59647                  21749159.2714
        28.5004         27.0004
  21952954.7834    7341908.54248   5697900.66647                  21952960.7834
        28.2504         27.7504
  22667056.0104   -7733861.26447  -5940173.87146                  22667062.1274
        24.2504         23.7504
  24031956.7294   -4065119.75045  -3003871.17245                  24031966.1074
        10.7504         11.5004
  25085491.3774   11693614.69845   9056600.74145                  25085499.6074
         9.5004         10.5004
 00  5  2 15 57 15.0020000  0  6G 2G 4G 7G 9G24G26
  22665777.9634    7016010.45747   5434401.80646                  22665784.5614
        24.2504         22.5004
  21745731.3934   -8847802.35248  -6779729.83847                  21745737.5804
        28.2504         26.7504
  21959877.6824    7378288.29148   5726248.51347                  21959883.6354
        28.2504         27.7504
  22664301.5724   -7748336.59447  -5951453.33346                  22664307.5614
        23.7504         23.7504
  24024561.6434   -4103977.25745  -3034149.68245                  24024571.8304
        10.5004         11.7504
  25095100.3384   11744114.31045   9095950.98345                  25095109.2254
         9.2504         10.2504
 00  5  2 15 57 30.0020000  0  6G 2G 4G 7G 9G24G26
  22672179.8694    7049653.00847   5460616.75146                  22672186.6194
        23.7504         22.5004
  21742332.5104   -8865662.29148  -6793646.65547                  21742338.4754
        28.2504         27.0004
  21966810.3074    7414719.09348   5754636.13347                  21966816.3774
        28.2504         27.7504
  22661568.9324   -7762696.62047  -5962642.95646                  22661574.8734
        24.5004         23.5004
  24017174.4714   -4142799.25545  -3064400.49145                  24017184.9164
        10.5004         11.2504
  25104715.8774   11794640.08645   9135321.64145                  25104724.9634
         9.2504         10.2504
 00  5  2 15 57 45.0020000  0  6G 2G 4G 7G 9G24G26
  22678594.0644    7083360.13247   5486882.02046                  22678600.6044
        24.2504         22.5004
  21738957.1194   -8883400.43448  -6807468.57147                  21738963.2604
        28.2504         27.0004
  21973752.1194    7451198.37948   5783061.54047                  21973758.1544
        28.0004         27.5004
  22658858.0104   -7776943.32447  -5973744.28146                  22658864.0924
        24.2504         23.7504
  24009792.6664   -4181587.60445  -3094625.08245                  24009801.9984
        10.5004         11.5004
  25114335.2994   11845189.32845   9174710.54845                  25114343.3074
         9.2504         10.0004
 00  5  2 15 58  0.0020000  0  6G 2G 4G 7G 9G24G26
  22685021.7444    7117137.17847   5513201.78646                  22685028.1314
        24.0004         22.2504
  21735605.9004   -8901011.26548  -6821191.28047                  21735611.9474
        28.2504         27.0004
  21980704.0964    7487731.25848   5811528.70147                  21980710.0844
        28.2504         27.5004
  22656169.5964   -7791071.15047  -5984752.96746                  22656175.6194
        23.7504         24.0004
  24002419.3464   -4220336.71445  -3124819.10946                  24002428.3614
        10.5004         12.0004
  25123959.4474   11895767.07345   9214121.67245                  25123968.1824
         9.5004         10.2504
 00  5  2 15 58 15.0020000  0  6G 2G 4G 7G 9G24G26
  22691462.2444    7150982.16247   5539574.48046                  22691468.4904
        23.7504         22.2504
  21732278.5494   -8918496.52948  -6834816.14947                  21732284.5494
        28.2504         26.7504
  21987665.9004    7524315.52248   5840035.90947                  21987671.9124
        28.0004         27.5004
  22653503.2834   -7805081.92847  -5995670.44746                  22653509.3184
        24.0004         24.0004
  23995052.5414   -4259048.28545  -3154983.87246                  23995062.4474
        11.2504         12.2504
  25133588.9324   11946370.86845   9253553.11345                  25133597.3504
         9.5004         10.5004
 00  5  2 15 58 30.0020000  0  6G 2G 4G 7G 9G24G26
  22697916.4714    7184899.07247   5566003.21446                  22697922.6354
        23.7504         22.2504
  21728975.9714   -8935852.09348  -6848339.94647                  21728982.0534
        28.2504         27.0004
  21994638.0024    7560954.89948   5868586.06747                  21994644.1074
        28.0004         27.7504
  22650860.4004   -7818971.51047  -6006493.49346                  22650866.4474
        24.2504         24.0004
  23987693.9244   -4297718.07346  -3185116.09246                  23987702.9864
        12.2504         12.7504
  25143225.0334   11997004.16145   9293007.53745                  25143234.1784
         9.5004         10.0004
 00  5  2 15 58 45.0020000  0  6G 2G 4G 7G 9G24G26
  22704383.9794    7218886.13447   5592486.61646                  22704390.2834
        23.7504         22.0004
  21725697.5414   -8953079.49148  -6861763.88047                  21725703.4944
        28.2504         26.7504
  22001620.3464    7597647.22447   5897177.47147                  22001626.4164
        27.7504         27.7504
  22648239.8304   -7832741.62947  -6017223.45046                  22648245.7714
        24.5004         24.0004
  23980342.8224   -4336347.71146  -3215217.01146                  23980352.3544
        12.0004         12.7504
  25152865.3464   12047664.80045   9332483.28245                  25152875.2174
         9.7504         10.0004
 00  5  2 15 59  0.0020000  0  6G 2G 4G 7G 9G24G26
  22710863.7054    7252937.46647   5619020.09946                  22710870.2324
        23.7504         22.2504
  21722442.5724   -8970184.40048  -6875092.36347                  21722448.6544
        28.2504         27.0004
  22008611.7214    7634386.40148   5925805.39147                  22008617.6744
        28.0004         27.7504
  22645641.2604   -7846397.93147  -6027864.71946                  22645647.2714
        24.7504         24.2504
  23972998.6824   -4374942.79846  -3245291.02946                  23973007.9324
        12.2504         12.7504
  25162509.1584   12098346.43145   9371975.35845                  25162517.0374
         9.7504         10.2504
 00  5  2 15 59 15.0020000  0  6G 2G 4G 7G 9G24G26
  22717356.3934    7287056.39447   5645606.24746                  22717362.8144
        24.0004         22.0004
  21719211.5334   -8987163.28948  -6888322.65247                  21719217.5924
        28.5004         27.0004
  22015612.4084    7671175.52648   5954472.22847                  22015618.3504
        28.0004         27.7504
  22643064.8304   -7859936.87247  -6038414.54046                  22643070.9364
        24.5004         24.0004
  23965661.7914   -4413499.61646  -3275335.23246                  23965670.9124
        12.5004         13.2504
  25172157.8614   12149051.92445   9411486.05345                  25172166.1864
         9.7504         10.0004
 00  5  2 15 59 30.0020000  0  6G 2G 4G 7G 9G24G26
  22723862.4164    7321245.70647   5672247.25246                  22723868.5804
        24.0004         22.2504
  21716005.2914   -9004013.15848  -6901452.40447                  21716011.3144
        28.5004         27.0004
  22022623.1434    7708017.09947   5983179.93247                  22022629.1894
        27.7504         27.5004
  22640511.0804   -7873355.54447  -6048870.64246                  22640517.1274
        24.5004         24.5004
  23958332.5494   -4452015.12346  -3305347.23446                  23958341.7754
        12.5004         13.2504
  25181812.4394   12199783.62945   9451017.12445                  25181819.4044
        10.0004         10.2504
 00  5  2 15 59 45.0020000  0  6G 2G 4G 7G 9G24G26
  22730382.5964    7355509.14247   5698946.01146                  22730388.9004
        23.7504         22.2504
  21712824.0644   -9020730.06248  -6914478.55247                  21712830.0644
        28.7504         27.0004
  22029644.5254    7744914.71848   6011931.31347                  22029650.6194
        28.0004         27.7504
  22637981.5254   -7886649.92147  -6059229.89246                  22637987.4554
        24.7504         24.0004
  23951011.4474   -4490485.32246  -3335323.90846                  23951020.3694
        12.7504         13.2504
  25191472.6194   12250544.85845   9490571.27045                  25191481.7174
        10.5004         10.2504
 00  5  2 16  0  0.0020000  0  6G 2G 4G 7G 9G24G26
  22736915.0184    7389837.37547   5725695.25946                  22736921.1354
        23.7504         22.0004
  21709666.5644   -9037323.20948  -6927408.25847                  21709672.6114
        28.5004         27.0004
  22036674.8224    7781858.74548   6040718.85047                  22036680.8224
        28.0004         27.7504
  22635473.7444   -7899829.14147  -6069499.41346                  22635479.9794
        25.5004         24.5004
  23943697.4634   -4528919.16746  -3365272.27546                  23943706.9004
        13.0004         13.2504
  25201135.6664   12301325.98445   9530140.86545                  25201144.4004
        10.5004         10.0004
 00  5  2 16  0 15.0020000  0  6G 2G 4G 7G 9G24G26
  22743460.0334    7424231.54047   5752495.89146                  22743466.1624
        23.7504         22.0004
  21706532.8224   -9053791.17748  -6940240.42647                  21706538.8464
        28.5004         27.0004
  22043714.0884    7818850.03548   6069543.22047                  22043720.1004
        28.5004         27.5004
  22632988.0104   -7912891.95547  -6079678.23046                  22632994.0684
        25.5004         24.5004
  23936391.0184   -4567315.26446  -3395191.22746                  23936399.8814
        13.0004         13.5004
  25210803.2604   12352127.69845   9569726.51145                  25210810.6934
        10.0004         10.0004
 00  5  2 16  0 30.0020000  0  6G 2G 4G 7G 9G24G26
  22750018.4474    7458695.87347   5779351.17846                  22750024.9754
        24.2504         22.2504
  21703423.5724   -9070129.43348  -6952971.52147                  21703429.4904
        28.7504         27.0004
  22050762.9864    7855892.60748   6098407.55047                  22050769.0804
        28.5004         27.7504
  22630525.1434   -7925833.99947  -6089762.93746                  22630531.2484
        25.5004         24.5004
  23929092.8854   -4605669.23046  -3425077.34846                  23929102.1704
        13.2504         13.5004
  25220475.4004   12402953.69845   9609331.07145                  25220483.3384
        10.0004          9.5004
 00  5  2 16  0 45.0020000  0  6G 2G 4G 7G 9G24G26
  22756590.6354    7493232.28347   5806262.64246                  22756596.8114
        24.0004         22.0004
  21700339.6894   -9086335.92248  -6965599.94047                  21700345.6894
        28.5004         27.0004
  22057821.9324    7892988.13948   6127313.14947                  22057827.9904
        28.2504         27.5004
  22628085.7444   -7938653.15247  -6099751.88346                  22628091.7094
        25.7504         24.5004
  23921801.8934   -4643978.75746  -3454928.85846                  23921811.0724
        12.7504         13.5004
  25230152.0024   12453805.46145   9648955.73745                  25230160.3144
        10.5004          9.7504
 00  5  2 16  1  0.0020000  0  6G 2G 4G 7G 9G24G26
  22763175.6434    7527836.95647   5833227.31446                  22763182.1114
        24.0004         22.0004
  21697279.9554   -9102414.35148  -6978128.57547                  21697285.9554
        28.5004         27.2504
  22064890.4794    7930132.47448   6156256.77447                  22064896.4204
        28.2504         28.0004
  22625668.7994   -7951353.06947  -6109647.91846                  22625674.8224
        25.7504         24.5004
  23914520.2294   -4682247.45846  -3484748.52546                  23914529.3144
        13.2504         13.2504
  25239832.4554   12504678.81645   9688597.22345                  25239841.0494
        10.0004          9.2504
 00  5  2 16  1 15.0020000  0  6G 2G 4G 7G 9G24G26
  22769773.7834    7562511.02947   5860246.05246                  22769780.2174
        24.2504         22.2504
  21694245.0884   -9118363.19648  -6990556.23447                  21694251.1114
        28.5004         27.5004
  22071968.2134    7967326.58948   6185239.18747                  22071974.2364
        28.5004         27.7504
  22623275.3304   -7963932.43847  -6119450.01846                  22623281.2714
        26.2504         25.0004
  23907245.6584   -4720473.90646  -3514535.28746                  23907254.4634
        13.0004         13.5004
  25249518.6974   12555574.37045   9728256.02445                  25249527.8424
        10.0004          9.2504
 00  5  2 16  1 30.0020000  0  6G 2G 4G 7G 9G24G26
  22776385.5184    7597255.46047   5887319.61346                  22776392.0804
        23.7504         22.0004
  21691234.8464   -9134181.34648  -7002882.05547                  21691240.7874
        28.7504         27.5004
  22079055.6664    8004571.15148   6214260.91247                  22079061.7014
        28.5004         27.5004
  22620904.4944   -7976390.17347  -6129157.34346                  22620910.4824
        26.2504         24.7504
  23899979.8464   -4758656.76846  -3544288.07546                  23899989.0144
        13.0004         13.2504
  25259207.1584   12606492.71845   9767932.53845                  25259214.4864
         9.2504          9.0004
 00  5  2 16  1 45.0020000  0  6G 2G 4G 7G 9G24G26
  22783010.9164    7632071.44147   5914448.92846                  22783017.5144
        23.5004         22.0004
  21688249.7444   -9149867.60348  -7015105.09747                  21688255.7094
        28.7504         27.5004
  22086152.7914    8041867.09148   6243322.67647                  22086158.8614
        28.5004         27.7504
  22618557.4164   -7988724.85447  -6138768.77946                  22618563.4394
        26.0004         24.7504
  23892722.2214   -4796794.75746  -3574005.90846                  23892730.9084
        13.0004         13.0004
  25268901.1744   12657434.63445   9807627.43045                  25268909.5214
         8.7504          8.7504
 00  5  2 16  2  0.0020000  0  6G 2G 4G 7G 9G24G26
  22789649.0494    7666954.55847   5941630.55346                  22789655.5414
        23.7504         22.0004
  21685289.3144   -9165425.99148  -7027228.50547                  21685295.3384
        29.0004         27.5004
  22093258.8544    8079209.79248   6272420.87847                  22093264.8654
        28.5004         27.5004
  22616232.7604   -8000940.65047  -6148287.58146                  22616238.8544
        25.5004         24.5004
  23885472.7134   -4834891.79946  -3603691.83446                  23885481.9394
        13.0004         12.7504
  25278599.0724   12708395.26745   9847336.91545                  25278607.1394
         8.2504          8.2504
 00  5  2 16  2 15.0020000  0  6G 2G 4G 7G 9G24G26
  22796300.9244    7701910.22147   5968868.70746                  22796307.7214
        23.5004         22.0004
  21682353.9864   -9180850.82548  -7039247.84547                  21682359.9864
        29.0004         27.5004
  22100375.0334    8116604.40648   6301559.52647                  22100381.0574
        28.2504         27.5004
  22613931.7214   -8013032.04547  -6157709.44346                  22613937.7214
        25.5004         24.7504
  23878231.8384   -4872942.30346  -3633341.48446                  23878241.1114
        13.0004         13.0004
  25288300.6044   12759379.60345   9887064.88545                  25288308.5184
         7.5004          8.0004
 00  5  2 16  2 30.0020000  0  7G 2G 4G 7G 5G 9G24G26
  22802965.7054    7736935.32847   5996160.98246                  22802972.3504
        23.7504         22.0004
  21679443.5724   -9196145.26348  -7051165.57547                  21679449.5844
        28.7504         27.7504
  22107500.2834    8154047.60048   6330736.03247                  22107506.2604
        28.5004         27.7504
  25437598.4864     -20806.27754
         6.2504
  22611654.0414   -8025002.04347  -6167036.70846                  22611660.2404
        25.5004         25.0004
  23870999.1894   -4910949.14046  -3662957.13346                  23871008.0414
        12.7504         13.0004
  25298005.6274   12810384.06044   9926808.52345                  25298015.2404
         6.7504          7.0004
 00  5  2 16  2 45.0020000  0  7G 2G 4G 7G 5G 9G24G26
  22809643.5254    7772027.40947   6023505.44846                  22809650.3224
        23.5004         22.2504
  21676557.5574   -9211311.38548  -7062983.32647                  21676563.5574
        29.0004         28.0004
  22114634.0494    8191536.48148   6359948.13947                  22114639.9904
        28.5004         27.7504
  25432198.4004     -49188.61344
         6.2504
  22609398.7914   -8036853.04847  -6176271.25246                  22609404.9204
        26.0004         24.7504
  23863774.6114   -4948914.57146  -3692540.51146                  23863783.5454
        12.7504         13.0004
  25307716.6434   12861405.73944   9966565.52045                  25307725.0374
         6.5004          7.0004
 00  5  2 16  3  0.0020000  0  7G 2G 4G 7G 5G 9G24G26
  22816335.2604    7807191.69547   6050906.15846                  22816341.7294
        23.5004         21.7504
  21673696.9554   -9226343.89448  -7074696.95747                  21673702.9324
        29.2504         28.0004
  22121777.5574    8229076.15848   6389199.82647                  22121783.5684
        28.7504         27.5004
  25426796.7754     -77574.36044
         6.7504
  22607167.3074   -8048579.48247  -6185408.73346                  22607173.4124
        26.2504         25.0004
  23856559.1824   -4986832.99146  -3722087.26546                  23856568.5614
        12.5004         13.0004
  25317429.2604   12912449.44344  10006339.79545                  25317437.2684
         6.2504          7.5004
 00  5  2 16  3 15.0020000  0  7G 2G 4G 7G 5G 9G24G26
  22823040.4244    7842427.79347   6078362.83846                  22823046.9284
        23.7504         21.7504
  21670861.9554   -9241242.90248  -7086306.56247                  21670867.8854
        29.5004         28.2504
  22128930.7054    8266666.02448   6418490.62047                  22128936.8224
        28.2504         27.5004
  25421394.9944    -105963.87944
         7.2504
  22604959.5574   -8060181.62647  -6194449.36246                  22604965.5804
        25.5004         24.7504
  23849351.7754   -5024704.43846  -3751597.39246                  23849361.2714
        13.0004         13.7504
  25327147.6894   12963514.40744  10046130.53345                  25327157.4794
         6.2504          6.5004
 00  5  2 16  3 30.0030000  0  7G 2G 4G 7G 5G 9G24G26
  22829759.1634    7877734.65147   6105874.66146                  22829765.6204
        24.0004         21.5004
  21668051.2494   -9256012.56248  -7097815.38047                  21668057.2724
        29.7504         28.2504
  22136093.2334    8304304.97648   6447819.66347                  22136099.3394
        28.5004         27.5004
  25415990.3584    -134362.44144
         7.0004
  22602774.6084   -8071663.29147  -6203396.10546                  22602780.5034
        25.7504         24.7504
  23842153.0224   -5062534.58146  -3781075.33546                  23842162.0154
        13.2504         13.5004
  25336868.2574   13014600.25843  10085937.61745                  25336877.3314
         6.0004          7.0004
 00  5  2 16  3 45.0030000  0  7G 2G 4G 7G 5G 9G24G26
  22836490.1714    7913106.76347   6133437.32146                  22836496.6984
        23.7504         21.7504
  21665265.4764   -9270651.51848  -7109222.34947                  21665271.3584
        29.7504         28.2504
  22143263.9764    8341986.92048   6477182.20547                  22143270.0114
        28.5004         27.7504
  25410585.1324    -162767.04844    -13279.35955                  25410594.1124
         7.2504          6.5004
  22600612.6794   -8083023.72447  -6212248.39446                  22600618.6674
        26.2504         25.0004
  23834962.8974   -5100318.90846  -3810517.60646                  23834971.3154
        13.2504         13.7504
  25346591.0154   13065698.95343  10125754.62845                  25346598.9524
         5.7504          6.0004
 00  5  2 16  4  0.0030000  0  7G 2G 4G 7G 5G 9G24G26
  22843235.2104    7948551.01747   6161056.19746                  22843241.5854
        23.7504         21.7504
  21662505.3044   -9285156.03048  -7120524.55947                  21662511.3274
        29.7504         28.2504
  22150444.0694    8379718.72848   6506583.60447                  22150450.1874
        28.5004         27.7504
  25405179.1404    -191175.11245    -35415.50345                  25405187.1244
         7.5004          6.2504
  22598474.7024   -8094259.06247  -6221003.20146                  22598480.6324
        26.0004         25.0004
  23827782.3354   -5138055.05846  -3839922.32646                  23827792.0424
        13.5004         14.0004
  25356320.2884   13116817.87243  10165587.43345                  25356330.8514
         5.5004          6.7504
 00  5  2 16  4 15.0030000  0  7G 2G 4G 7G 5G 9G24G26
  22849993.8584    7984068.56347   6188732.18846                  22850000.0694
        23.5004         21.5004
  21659771.0384   -9299524.79848  -7131720.98747                  21659776.9684
        30.0004         28.5004
  22157633.7264    8417501.14548   6536024.43747                  22157639.7024
        28.5004         27.7504
  25399772.7334    -219585.42645    -57553.42445                  25399779.8864
         7.5004          7.2504
  22596360.6794   -8105367.96347  -6229659.48146                  22596366.6444
        26.2504         25.2504
  23820610.2804   -5175741.84046  -3869288.56946                  23820619.0264
        13.7504         13.7504
  25366049.4994   13167957.89843  10205436.71945                  25366062.8274
         5.2504          7.2504
 00  5  2 16  4 30.0030000  0  7G 2G 4G 7G 5G 9G24G26
  22856764.9524    8019650.71147   6216458.51546                  22856771.2804
        23.7504         21.5004
  21657061.0624   -9313766.41148  -7142818.34047                  21657067.0504
        30.2504         28.5004
  22164831.2884    8455325.24248   6565497.74947                  22164837.4174
        28.5004         27.7504
  25394365.4444    -248006.75344    -79699.90245                  25394371.4794
         6.7504          6.2504
  22594269.3354   -8116358.98447  -6238223.91046                  22594275.4294
        26.5004         25.2504
  23813446.0694   -5213387.49446  -3898622.77346                  23813454.6874
        14.2504         14.2504
  25375785.7414   13219109.73243  10245295.17645                  25375795.1324
         6.0004          7.5004
 00  5  2 16  4 45.0030000  0  7G 2G 4G 7G 5G 9G24G26
  22863550.1404    8055307.57047   6244243.05146                  22863556.6204
        23.7504         21.5004
  21654377.0854   -9327870.41848  -7153808.47147                  21654383.1084
        30.0004         28.5004
  22172038.8354    8493200.95748   6595011.28447                  22172044.8474
        28.7504         27.7504
  25388955.7884    -276428.87144   -101846.92845                  25388964.2294
         6.2504          7.7504
  22592202.2414   -8127221.79147  -6246688.43546                  22592208.2414
        26.2504         25.2504
  23806292.6874   -5250981.62746  -3927916.83446                  23806301.0814
        14.0004         14.2504
  25385522.3514   13270283.21343  10285170.53745                  25385533.6754
         5.7504          7.5004
 00  5  2 16  5  0.0030000  0  7G 2G 4G 7G 5G 9G24G26
  22870349.1084    8091036.01947   6272083.37046                  22870355.3434
        23.5004         21.2504
  21651718.9054   -9341839.80648  -7164693.70047                  21651724.9054
        30.5004         28.5004
  22179255.5074    8531124.99048   6624562.46647                  22179261.4954
        28.5004         27.7504
  25383546.5694    -304854.88043   -123997.05745                  25383554.0034
         5.7504          7.0004
  22590158.7964   -8137959.33047  -6255055.34346                  22590164.7724
        26.0004         25.0004
  23799148.1084   -5288527.12346  -3957172.98946                  23799157.5344
        14.2504         14.2504
  25395263.3824   13321474.75943  10325059.88545                  25395274.1554
         5.7504          7.5004
 00  5  2 16  5 15.0030000  0  7G 2G 4G 7G 5G 9G24G26
  22877160.5694    8126830.53247   6299975.17346                  22877166.8864
        23.2504         21.2504
  21649085.2654   -9355679.82348  -7175478.11947                  21649091.2294
        30.2504         28.7504
  22186480.3274    8569091.52348   6654146.76547                  22186486.3274
        28.5004         27.7504
  25378135.8744    -333290.25843   -146154.43345                  25378145.8154
         5.2504          6.5004
  22588138.6634   -8148577.00647  -6263328.85346                  22588144.7104
        27.0004         25.5004
  23792011.6874   -5326029.17346  -3986395.30046                  23792020.9374
        14.2504         14.2504
  25405009.4054   13372678.42543  10364958.75945                  25405018.4214
         6.0004          7.7504
 00  5  2 16  5 30.0030000  0  7G 2G 4G 7G 5G 9G24G26
  22883985.1634    8162693.54347   6327920.34846                  22883991.5734
        23.2504         21.2504
  21646476.6634   -9369387.95848  -7186159.76847                  21646482.5814
        30.2504         29.0004
  22193713.6794    8607102.82348   6683765.95147                  22193719.7144
        28.2504         27.7504
  25372722.9374    -361732.59943   -168317.25845                  25372732.0584
         5.2504          6.7504
  22586141.1324   -8159072.22347  -6271506.94547                  22586147.0504
        26.7504         25.7504
  23784883.7884   -5363484.96246  -4015581.57346                  23784892.9914
        14.5004         15.0004
  25414754.8904   13423896.21744  10404868.60445                  25414765.2764
         6.2504          8.0004
 00  5  2 16  5 45.0030000  0  7G 2G 4G 7G 5G 9G24G26
  22890823.3194    8198628.58847   6355921.66346                  22890829.7884
        23.0004         21.2504
  21643893.8274   -9382960.48548  -7196735.75947                  21643899.8274
        30.5004         28.7504
  22200956.1474    8645162.10648   6713422.52647                  22200962.2884
        28.2504         27.7504
  25367309.0624    -390178.42043   -190482.82645                  25367316.3664
         5.7504          5.7504
  22584167.9764   -8169441.33347  -6279586.76947                  22584174.0464
        26.7504         25.7504
  23777765.6164   -5400890.85046  -4044728.96146                  23777774.4684
        14.5004         14.5004
  25424505.0774   13475131.27844  10444791.89645                  25424515.2064
         6.5004          8.7504
 00  5  2 16  6  0.0030000  0  7G 2G 4G 7G 5G 9G24G26
  22897675.0774    8234635.22047   6383978.76146                  22897681.6984
        23.0004         21.0004
  21641336.8904   -9396397.53948  -7207206.17847                  21641342.7964
        30.2504         28.7504
  22208207.4764    8683268.62348   6743115.90447                  22208213.4524
        28.5004         27.5004
  25361895.8974    -418628.11644   -212651.32545                  25361904.3394
         6.2504          7.7504
  22582218.8904   -8179684.46547  -6287568.42846                  22582224.8784
        26.7504         25.5004
  23770657.1014   -5438246.96946  -4073837.55546                  23770666.0114
        14.5004         15.0004
  25434258.0464   13526382.82844  10484728.08045                  25434267.4834
         6.7504          9.0004
 00  5  2 16  6 15.0030000  0  7G 2G 4G 7G 5G 9G24G26
  22904539.8974    8270709.47847   6412088.54646                  22904546.4014
        22.7504         20.7504
  21638804.8514   -9409702.85448  -7217573.94947                  21638810.8514
        30.5004         28.7504
  22215467.3584    8721418.35248   6772842.95547                  22215473.3584
        28.7504         28.0004
  25356480.5774    -447085.57444   -234825.96145                  25356487.2454
         6.7504          7.7504
  22580292.9764   -8189805.44147  -6295454.90046                  22580298.9054
        26.2504         25.5004
  23763557.2024   -5475556.87446  -4102910.15246                  23763566.3824
        14.2504         14.7504
  25444012.9054   13577646.26544  10524673.46645                  25444022.8824
         7.2504          8.5004
 00  5  2 16  6 30.0030000  0  7G 2G 4G 7G 5G 9G24G26
  22911417.4524    8306852.66547   6440252.05346                  22911424.1084
        22.5004         20.7504
  21636298.1714   -9422875.12048  -7227838.04547                  21636304.2414
        30.2504         28.7504
  22222735.2884    8759612.24148   6802604.41747                  22222741.2414
        28.7504         27.7504
  25351064.8824    -475549.54844   -257005.63845                  25351073.1124
         7.2504          7.5004
  22578390.4444   -8199802.85647  -6303245.08646                  22578396.4684
        26.0004         25.2504
  23756466.4134   -5512819.14546  -4131945.62146                  23756475.9334
        14.2504         14.7504
  25453769.5624   13628922.61644  10564628.94445                  25453780.2184
         6.7504          8.7504
 00  5  2 16  6 45.0030000  0  7G 2G 4G 7G 5G 9G24G26
  22918308.9604    8343066.75947   6468470.79146                  22918315.5224
        22.2504         21.0004
  21633817.2104   -9435912.14748  -7237996.75847                  21633823.1754
        30.0004         28.5004
  22230012.1554    8797851.97048   6832401.59647                  22230018.1794
        28.5004         27.7504
  25345646.9054    -504018.11745   -279188.92745                  25345655.4524
         7.7504          8.0004
  22576511.8354   -8209674.60447  -6310937.35546                  22576517.7884
        26.2504         25.5004
  23749385.1874   -5550031.43446  -4160942.15046                  23749394.5544
        14.2504         15.0004
  25463531.8584   13680213.35744  10604595.64145                  25463542.5974
         7.2504          9.7504
 00  5  2 16  7  0.0030000  0  7G 2G 4G 7G 5G 9G24G26
  22925213.9214    8379352.94747   6496745.72046                  22925220.5424
        22.2504         21.0004
  21631362.5074   -9448812.67548  -7248049.10447                  21631368.4834
        30.2504         28.7504
  22237297.8354    8836138.51048   6862235.25547                  22237303.7654
        28.7504         28.0004
  25340228.1014    -532490.03945   -301374.84345                  25340235.1714
         8.0004          8.5004
  22574657.5304   -8219419.41147  -6318530.70846                  22574663.4954
        26.2504         25.5004
  23742313.5304   -5587192.38546  -4189898.67346                  23742322.8394
        14.5004         15.2504
  25473295.2104   13731519.25945  10644574.12145                  25473306.7804
         7.7504          9.5004
 00  5  2 16  7 15.0030000  0  7G 2G 4G 7G 5G 9G24G26
  22932132.4294    8415709.04247   6525075.12246                  22932138.9684
        22.0004         20.7504
  21628933.2184   -9461578.70148  -7257996.64847                  21628939.1714
        30.0004         28.5004
  22244592.1164    8874469.50148   6892103.54747                  22244598.1634
        28.7504         27.7504
  25334809.5624    -560967.32445   -323564.92545                  25334817.0074
         8.2504          8.0004
  22572826.8584   -8229039.14747  -6326026.60546                  22572832.9174
        26.5004         25.5004
  23735250.9914   -5624303.83246  -4218816.62346                  23735260.5114
        14.2504         15.2504
  25483059.6634   13782837.76945  10684562.45345                  25483071.7374
         7.5004          9.5004
 00  5  2 16  7 30.0030000  0  7G 2G 4G 7G 5G 9G24G26
  22939063.2964    8452131.50447   6553456.23646                  22939070.0114
        22.0004         20.7504
  21626528.8194   -9474213.21448  -7267841.71047                  21626534.8084
        30.0004         28.7504
  22251893.9914    8912841.22048   6922003.58047                  22251899.9914
        28.7504         28.0004
  25329388.7184    -589453.47445   -345761.89045                  25329397.2184
         8.2504          8.2504
  22571019.4914   -8238537.20947  -6333427.68446                  22571025.4914
        26.0004         25.5004
  23728197.8194   -5661368.96346  -4247698.48746                  23728207.1984
        14.7504         15.2504
  25492827.8904   13834165.00045  10724557.57245                  25492838.8624
         8.0004          9.5004
 00  5  2 16  7 45.0030000  0  7G 2G 4G 7G 5G 9G24G26
  22946007.1014    8488621.76847   6581890.18446                  22946013.5934
        21.7504         20.7504
  21624149.8824   -9486714.92848  -7277583.29947                  21624155.9524
        29.7504         28.2504
  22259203.8124    8951254.88848   6951936.29847                  22259209.9054
        28.5004         27.7504
  25323966.8434    -617947.07445   -367964.70545                  25323974.7224
         8.0004          8.2504
  22569235.5854   -8247912.04447  -6340732.74946                  22569241.6084
        26.2504         25.2504
  23721153.6404   -5698386.02746  -4276542.89846                  23721162.1044
        14.5004         14.7504
  25502596.9524   13885501.97945  10764560.29045                  25502607.7844
         7.7504          9.2504
 00  5  2 16  8  0.0030000  0  7G 2G 4G 7G 5G 9G24G26
  22952964.7654    8525183.11247   6610379.51946                  22952971.4444
        21.7504         20.5004
  21621796.8274   -9499080.23648  -7287218.59447                  21621802.9214
        29.5004         28.5004
  22266522.0384    8989713.52148   6981904.05447                  22266528.0734
        28.5004         27.7504
  25318543.7574    -646444.93645   -390170.81145                  25318552.6794
         7.7504          7.5004
  22567475.7884   -8257160.23147  -6347939.12446                  22567481.7654
        26.0004         25.2504
  23714119.3124   -5735351.53746  -4305347.13746                  23714128.7264
        14.5004         15.5004
  25512368.5224   13936851.47845  10804572.75945                  25512379.0734
         7.7504          9.7504
 00  5  2 16  8 15.0030000  0  7G 2G 4G 7G 5G 9G24G26
  22959935.7884    8561816.38447   6638924.89746                  22959942.5034
        21.7504         20.7504
  21619469.8824   -9511308.23648  -7296746.89147                  21619475.9054
        29.5004         28.7504
  22273849.4214    9028217.58048   7011907.21047                  22273855.4794
        28.5004         28.0004
  25313120.2414    -674946.16045   -412379.50445                  25313127.4764
         7.7504          7.7504
  22565740.1794   -8266280.74447  -6355046.00947                  22565746.1554
        26.0004         25.7504
  23707095.1244   -5772264.31846  -4334110.28946                  23707103.8824
        14.5004         15.5004
  25522141.3744   13988213.86945  10844595.26845                  25522152.2534
         7.7504          9.5004
 00  5  2 16  8 30.0030000  0  7G 2G 4G 7G 5G 9G24G26
  22966920.3744    8598521.19147   6667526.01746                  22966927.0074
        22.0004         20.5004
  21617168.9684   -9523399.14648  -7306168.37247                  21617174.9794
        29.5004         28.5004
  22281185.0304    9066766.49548   7041945.31247                  22281191.1014
        28.7504         28.0004
  25307695.8974    -703451.13045   -434591.17345                  25307703.0854
         8.0004          7.7504
  22564028.4994   -8275273.86647  -6362053.63846                  22564034.4404
        26.5004         25.5004
  23700080.9214   -5809124.60746  -4362832.54846                  23700089.8544
        14.0004         15.2504
  25531918.0544   14039588.44145  10884627.25945                  25531929.3904
         8.0004          9.7504
 00  5  2 16  8 45.0030000  0  7G 2G 4G 7G 5G 9G24G26
  22973918.9994    8635298.09447   6696183.32446                  22973925.8584
        22.0004         20.7504
  21614894.3124   -9535352.11148  -7315482.35647                  21614900.3234
        29.2504         28.5004
  22288529.1714    9105360.69248   7072018.70547                  22288535.2184
        28.7504         28.0004
  25302270.4374    -731959.21944   -456805.23045                  25302279.4294
         7.2504          8.0004
  22562341.8584   -8284138.82947  -6368961.39646                  22562347.8584
        26.2504         25.5004
  23693076.6324   -5845931.37646  -4391513.08646                  23693086.0344
        14.2504         15.2504
  25541697.7804   14090975.30245  10924668.85645                  25541708.7064
         8.2504         10.2504
 00  5  2 16  9  0.0030000  0  7G 2G 4G 7G 5G 9G24G26
  22980931.1084    8672148.23147   6724897.69446                  22980937.9054
        21.7504         20.5004
  21612646.4604   -9547165.88148  -7324687.87747                  21612652.4254
        29.5004         28.5004
  22295882.2414    9144001.10248   7102128.10547                  22295888.2534
        28.7504         27.7504
  25296844.9054    -760469.16044   -479020.73145                  25296852.3394
         6.5004          7.7504
  22560679.3974   -8292874.34447  -6375768.28547                  22560685.4334
        26.5004         25.7504
  23686082.9374   -5882683.35146  -4420150.92646                  23686092.5154
        14.2504         14.7504
  25551478.7264   14142375.24945  10964720.61645                  25551490.0974
         8.7504         10.0004
 00  5  2 16  9 15.0030000  0  7G 2G 4G 7G 5G 9G24G26
  22987958.1084    8709074.33947   6753671.25646                  22987964.7764
        22.2504         20.5004
  21610425.3194   -9558837.40848  -7333782.56447                  21610431.2844
        29.2504         28.2504
  22303244.4524    9182690.20648   7132275.44947                  22303250.5464
        28.5004         27.5004
  25291420.4604    -788978.25444   -501235.56245                  25291426.6124
         6.2504          7.2504
  22559042.4054   -8301477.50447  -6382472.04346                  22559048.5344
        26.2504         25.5004
  23679100.1794   -5919377.40146  -4448743.65046                  23679108.9484
        14.5004         15.0004
  25561262.5854   14193790.54045  11004784.35945                  25561273.1834
         8.7504          9.7504
 00  5  2 16  9 30.0030000  0  7G 2G 4G 7G 5G 9G24G26
  22994997.9214    8746068.69247   6782497.99446                  22995004.7064
        22.0004         20.5004
  21608229.8824   -9570374.39048  -7342772.41147                  21608235.9874
        29.5004         28.2504
  22310614.5774    9221420.12248   7162454.59347                  22310620.6014
        28.5004         27.5004
  25285993.3744    -817494.23343   -523455.83345                  25286000.2184
         6.0004          7.7504
  22557428.8354   -8309955.81547  -6389078.51546                  22557434.9644
        26.7504         25.5004
  23672127.1474   -5956020.92446  -4477296.98646                  23672136.2924
        14.5004         15.0004
  25571047.8824   14245213.08345  11044853.75145                  25571058.5734
         8.2504          9.2504
 00  5  2 16  9 45.0030000  0  7G 2G 4G 7G 5G 9G24G26
  23002051.2964    8783133.31747   6811379.49246                  23002058.1674
        21.7504         20.7504
  21606060.4444   -9581774.63548  -7351655.71047                  21606066.4684
        29.7504         28.2504
  22317992.5934    9260192.48748   7192666.82047                  22317998.5934
        28.5004         27.7504
  25280566.4914    -846015.04143   -545679.78545                  25280574.1244
         6.0004          7.7504
  22555839.7184   -8318307.23347  -6395586.11247                  22555845.7184
        26.5004         25.7504
  23665163.9444   -5992611.77146  -4505809.28946                  23665172.5624
        14.7504         15.2504
  25580834.4294   14296644.47845  11084930.02945                  25580843.5734
         8.0004          9.2504
 00  5  2 16 10  0.0030000  0  7G 2G 4G 7G 5G 9G24G26
  23009118.4684    8820273.15747   6840319.59446                  23009125.2534
        22.0004         20.5004
  21603918.1874   -9593032.92548  -7360428.39247                  21603924.1044
        30.0004         28.2504
  22325379.8434    9299012.08348   7222915.84547                  22325385.9254
        28.2504         27.5004
  25275138.6324    -874535.72444   -567903.67345                  25275145.3944
         6.2504          6.7504
  22554275.5304   -8326526.68947  -6401990.87546                  22554281.4604
        26.7504         25.5004
  23658212.2414   -6029144.52946  -4534276.32246                  23658220.6364
        15.2504         15.2504
  25590624.3514   14348089.27645  11125016.75245                  25590635.3944
         7.7504          9.2504
 00  5  2 16 10 15.0030000  0  7G 2G 4G 7G 5G 9G24G26
  23016199.0934    8857482.29147   6869313.69746                  23016205.9764
        22.0004         20.5004
  21601801.7104   -9604155.11848  -7369095.02747                  21601807.7334
        29.7504         28.2504
  22332774.8124    9337872.75348   7253196.87047                  22332780.8704
        28.5004         27.7504
  25269709.4834    -903062.14643   -590132.02445                  25269716.3434
         5.7504          6.7504
  22552735.7024   -8334619.80947  -6408297.20146                  22552741.6674
        26.7504         25.5004
  23651270.0464   -6065624.95046  -4562702.57846                  23651278.4524
        15.2504         15.2504
  25600415.5624   14399541.09545  11165108.93745                  25600427.0734
         7.5004          9.0004
 00  5  2 16 10 30.0030000  0  7G 2G 4G 7G 5G 9G24G26
  23023293.5154    8894762.21847   6898362.96546                  23023300.1944
        21.7504         20.5004
  21599711.4294   -9615139.43348  -7377654.21947                  21599717.4524
        30.0004         28.0004
  22340177.8974    9376775.81848   7283510.93847                  22340183.9094
        28.2504         27.5004
  25264281.1794    -931592.66443   -612363.57145                  25264288.1324
         5.7504          7.2504
  22551219.8904   -8342584.94347  -6414503.80146                  22551225.9014
        26.5004         25.5004
  23644338.0854   -6102051.12746  -4591086.56146                  23644346.6794
        15.2504         15.2504
  25610209.2654   14451001.06145  11205207.46445                  25610219.0194
         7.5004          8.7504
 00  5  2 16 10 45.0030000  0  7G 2G 4G 7G 5G 9G24G26
  23030401.0854    8932113.86947   6927468.11746                  23030408.0734
        21.5004         20.5004
  21597647.6404   -9625984.86348  -7386105.19347                  21597653.5224
        29.7504         28.0004
  22347588.8974    9415722.01048   7313858.61647                  22347594.9444
        28.2504         27.2504
  25258850.7264    -960126.32743   -634597.52045                  25258858.6634
         6.0004          7.7504
  22549728.7414   -8350421.01847  -6420609.83146                  22549734.7414
        26.5004         25.5004
  23637417.2334   -6138421.94446  -4619427.40446                  23637425.7924
        15.7504         15.5004
  25620002.2264   14502469.78144  11245312.83445                  25620013.3154
         6.7504          8.5004
 00  5  2 16 11  0.0030000  0  7G 2G 4G 7G 5G 9G24G26
  23037522.9444    8969538.57447   6956630.20046                  23037529.5304
        21.5004         20.2504
  21595610.3824   -9636689.95248  -7394446.81047                  21595616.3584
        29.7504         28.0004
  22355008.3974    9454712.33248   7344240.66947                  22355014.4794
        28.0004         27.2504
  25253422.1244    -988661.94744   -656833.04945                  25253429.9914
         6.2504          7.5004
  22548262.3274   -8358126.61047  -6426614.18846                  22548268.3274
        26.7504         25.5004
  23630506.8904   -6174735.77446  -4647723.85646                  23630515.3434
        15.2504         15.5004
  25629799.2494   14553947.93544  11285425.54045                  25629808.9094
         7.0004          8.0004
 00  5  2 16 11 15.0030000  0  7G 2G 4G 7G 5G 9G24G26
  23044658.2264    9007034.98547   6985848.16446                  23044664.6244
        21.5004         20.2504
  21593599.7264   -9647255.72448  -7402679.86747                  21593605.7964
        29.7504         28.0004
  22362436.3744    9493745.37847   7374656.02347                  22362442.5034
        27.7504         27.0004
  25247991.0304   -1017200.63044   -679070.96545                  25247998.4994
         6.7504          7.2504
  22546820.7024   -8365702.90247  -6432517.78846                  22546826.6674
        26.5004         25.5004
  23623607.1084   -6210993.63946  -4675976.68746                  23623615.7844
        15.5004         15.2504
  25639596.4834   14605434.06544  11325544.46845                  25639607.4564
         6.5004          7.7504
 00  5  2 16 11 30.0030000  0  7G 2G 4G 7G 5G 9G24G26
  23051806.9524    9044601.66747   7015120.87346                  23051813.3974
        21.7504         20.2504
  21591615.2964   -9657683.50148  -7410805.40047                  21591621.3904
        29.7504         27.7504
  22369871.7414    9532819.42548   7405103.32147                  22369877.8124
        28.0004         27.2504
  25242559.4444   -1045743.81445   -701312.37745                  25242565.9254
         7.5004          7.7504
  22545403.4834   -8373151.19047  -6438321.64646                  22545409.4604
        26.7504         25.5004
  23616717.8434   -6247196.67646  -4704186.80246                  23616726.0504
        16.0004         15.7504
  25649396.0224   14656926.25944  11365668.06645                  25649407.0304
         6.5004          8.0004
 00  5  2 16 11 45.0030000  0  7G 2G 4G 7G 5G 9G24G26
  23058969.3584    9082239.50847   7044449.03846                  23058975.8974
        21.2504         20.0004
  21589657.5154   -9667972.27848  -7418822.61347                  21589663.4444
        29.5004         28.0004
  22377315.4374    9571935.13848   7435583.09247                  22377321.5074
        28.0004         27.0004
  25237127.0544   -1074290.63145   -723556.62745                  25237134.3234
         7.5004          7.0004
  22544010.4294   -8380470.40147  -6444024.93146                  22544016.4994
        26.7504         25.5004
  23609839.6014   -6283343.72946  -4732353.29646                  23609847.6674
        16.0004         15.7504
  25659195.8514   14708424.88843  11405796.78245                  25659208.0304
         6.0004          7.7504
 00  5  2 16 12  0.0030000  0  7G 2G 4G 7G 5G 9G24G26
  23066145.6474    9119950.49947   7073834.19746                  23066152.2694
        21.5004         20.0004
  21587726.5854   -9678119.80548  -7426729.76447                  21587732.6904
        29.5004         27.7504
  22384767.1474    9611094.22148   7466096.65347                  22384773.3354
        28.0004         27.2504
  25231694.5384   -1102839.00145   -745802.12345                  25231701.6794
         7.5004          7.7504
  22542642.6874   -8387658.43847  -6449625.99347                  22542648.6514
        27.0004         25.7504
  23602972.0544   -6319432.55346  -4760474.40946                  23602980.0854
        16.2504         15.7504
  25668996.1164   14759931.59743  11445931.74945                  25669006.8194
         5.0004          6.7504
 00  5  2 16 12 15.0030000  0  7G 2G 4G 7G 5G 9G24G26
  23073334.9374    9157731.35847   7103273.80346                  23073341.8664
        21.7504         20.0004
  21585821.7494   -9688129.33348  -7434529.38947                  21585827.7374
        29.5004         27.5004
  22392226.3354    9650293.24847   7496641.34147                  22392232.4644
        27.5004         26.5004
  25226261.4684   -1131392.16645   -768051.31645                  25226270.5544
         7.5004          8.2504
  22541298.9684   -8394718.48147  -6455127.32847                  22541304.9334
        27.0004         25.7504
  23596114.7804   -6355466.06046  -4788552.42146                  23596122.9524
        16.2504         15.7504
  25678798.1634   14811442.65543  11486070.01745                  25678812.9564
         5.5004          7.2504
 00  5  2 16 12 30.0030000  0  7G 2G 4G 7G 5G 9G24G26
  23080537.0624    9195579.20547   7132765.61346                  23080543.8004
        21.5004         20.0004
  21583942.8904   -9698003.52848  -7442223.55647                  21583948.7964
        29.7504         28.0004
  22399692.8824    9689529.09147   7527214.71247                  22399698.9644
        27.5004         26.7504
  25220825.9994   -1159953.02445   -790306.52845                  25220834.8274
         7.5004          8.2504
  22539979.6084   -8401653.35347  -6460531.12047                  22539985.6444
        27.0004         25.7504
  23589268.2804   -6391446.95946  -4816589.43946                  23589276.1714
        16.5004         16.0004
  25688600.9444   14862954.89142  11526209.31945                  25688614.9174
         4.7504          6.2504
 00  5  2 16 12 45.0030000  0  7G 2G 4G 7G 5G 9G24G26
  23087753.0774    9233499.06847   7162313.52946                  23087759.4874
        21.5004         20.0004
  21582090.4054   -9707737.17648  -7449808.20447                  21582096.3944
        29.7504         27.7504
  22407167.0854    9728806.53247   7557820.50747                  22407173.2024
        27.7504         26.7504
  25215390.4764   -1188516.44345   -812563.68145                  25215398.1904
         7.5004          8.2504
  22538684.6474   -8408457.76047  -6465833.25647                  22538690.5774
        27.0004         26.0004
  23582431.9994   -6427369.82846  -4844581.24446                  23582439.7374
        16.2504         16.0004
  25698404.9524   14914472.88742  11566353.01945                  25698421.1754
         4.5004          6.5004
 00  5  2 16 13  0.0030000  0  7G 2G 4G 7G 5G 9G24G26
  23094982.6874    9271491.08447   7191917.67046                  23094989.2264
        21.5004         20.0004
  21580265.0934   -9717329.91948  -7457283.05447                  21580271.0584
        30.0004         28.0004
  22414649.3194    9768125.47348   7588458.62847                  22414655.4374
        28.0004         27.0004
  25209954.4524   -1217082.27544   -834822.81745                  25209962.6014
         7.0004          7.0004
  22537414.6944   -8415131.36847  -6471033.46747                  22537420.6244
        27.2504         25.7504
  23575607.4684   -6463234.32046  -4872527.55946                  23575615.1834
        16.2504         16.0004
  25708210.2264   14965996.30142  11606500.99045                  25708223.4014
         4.2504          5.7504
 00  5  2 16 13 15.0030000  0  7G 2G 4G 7G 5G 9G24G26
  23102226.0694    9309554.35547   7221577.34346                  23102232.8904
        21.5004         19.7504
  21578466.2964   -9726782.64148  -7464648.80047                  21578472.3084
        30.0004         27.7504
  22422138.9684    9807484.99347   7619128.38247                  22422144.9564
        27.7504         26.7504
  25204517.8194   -1245651.39944   -857084.41845                  25204523.8314
         7.0004          7.0004
  22536169.4834   -8421674.88647  -6476132.31047                  22536175.3544
        27.7504         26.2504
  23568793.4374   -6499040.92146  -4900428.75946                  23568801.1754
        16.5004         15.7504
  25718015.1714   15017523.98242  11646652.27645                  25718026.3434
         3.7504          6.2504
 00  5  2 16 13 30.0030000  0  7G 2G 4G 7G 5G 9G24G26
  23109482.7264    9347689.67547   7251293.15146                  23109489.4294
        21.5004         20.0004
  21576694.3664   -9736094.20448  -7471904.55447                  21576700.3664
        30.5004         28.0004
  22429636.8584    9846885.46247   7649830.03647                  22429643.0114
        27.7504         26.5004
  25199080.6084   -1274222.94544   -879347.94445                  25199088.6514
         7.2504          7.5004
  22534949.1874   -8428087.39247  -6481129.06847                  22534955.1634
        27.5004         26.2504
  23561991.0934   -6534788.68446  -4928284.12346                  23561998.8314
        16.5004         15.7504
  25727820.6474   15069056.18142  11686807.05645                  25727830.5544
         3.7504          6.7504
 00  5  2 16 13 45.0030000  0  7G 2G 4G 7G 5G 9G24G26
  23116753.3584    9385896.59447   7281064.74846                  23116760.0154
        21.7504         20.0004
  21574949.1874   -9745265.02648  -7479050.63447                  21574955.1044
        30.5004         28.2504
  22437141.9834    9886326.27647   7680563.12247                  22437148.1364
        27.5004         26.5004
  25193643.9374   -1302797.38744   -901613.70545                  25193650.8194
         7.0004          7.2504
  22533753.9214   -8434369.26147  -6486024.02747                  22533759.9444
        27.5004         26.2504
  23555199.4994   -6570477.64346  -4956093.64946                  23555207.0384
        16.5004         16.0004
  25737627.4134   15120592.16441  11726964.78745                  25737640.6594
         3.5004          6.0004
 00  5  2 16 14  0.0030000  0  7G 2G 4G 7G 5G 9G24G26
  23124037.4214    9424174.22647   7310891.45546                  23124044.2534
        22.0004         20.2504
  21573230.8194   -9754295.84948  -7486087.62847                  21573236.7844
        30.5004         28.2504
  22444654.8974    9925806.32747   7711326.79247                  22444661.0384
        27.2504         26.5004
  25188205.3664   -1331375.53145   -923882.36545                  25188213.6444
         7.5004          8.2504
  22532583.1404   -8440521.10947  -6490817.67947                  22532589.1404
        27.7504         26.5004
  23548419.0854   -6606108.51746  -4983857.92846                  23548426.6244
        16.5004         16.0004
  25747435.0304   15172130.52442  11767124.35745                  25747449.7764
         3.7504          5.2504
 00  5  2 16 14 15.0030000  0  7G 2G 4G 7G 5G 9G24G26
  23131335.5154    9462525.51147   7340775.55046                  23131342.2764
        22.0004         20.2504
  21571539.4994   -9763183.45148  -7493013.01847                  21571545.4644
        30.5004         28.2504
  22452175.7024    9965328.39647   7742123.20447                  22452181.7614
        27.7504         26.5004
  25182766.6324   -1359954.23845   -946151.45445                  25182775.3664
         7.7504          8.0004
  22531437.7264   -8446540.00248  -6495507.72347                  22531443.7264
        28.0004         26.2504
  23541650.7264   -6641677.99946  -5011574.36246                  23541658.3234
        16.7504         16.2504
  25757246.2024   15223673.90042  11807287.88445                  25757256.8584
         4.0004          5.7504
 00  5  2 16 14 30.0030000  0  7G 2G 4G 7G 5G 9G24G26
  23138646.6714    9500944.67847   7370712.54846                  23138653.1984
        22.0004         20.0004
  21569874.1634   -9771933.58048  -7499831.28747                  21569880.0694
        30.7504         28.2504
  22459703.3194   10004886.51447   7772947.69947                  22459709.3434
        27.7504         26.5004
  25177327.7024   -1388539.27445   -968425.49745                  25177334.8194
         8.0004          8.0004
  22530316.8664   -8452431.48848  -6500098.49047                  22530322.9374
        28.0004         26.5004
  23534892.2494   -6677191.51846  -5039247.19046                  23534900.2574
        16.2504         16.2504
  25767053.5854   15275216.07842  11847450.40845                  25767065.0504
         4.2504          6.5004
 00  5  2 16 14 45.0030000  0  7G 2G 4G 7G 5G 9G24G26
  23145971.2884    9539436.33347   7400706.01446                  23145977.8274
        22.0004         20.2504
  21568236.4134   -9780541.35148  -7506538.62547                  21568242.4014
        30.5004         28.2504
  22467238.7574   10044485.09747   7803803.73547                  22467244.8154
        27.5004         26.2504
  25171887.6714   -1417125.96545   -990700.80445                  25171894.9174
         8.7504          7.7504
  22529220.8584   -8458190.86648  -6504586.31347                  22529226.8944
        28.0004         26.5004
  23528146.0464   -6712644.17746  -5066872.59446                  23528153.3864
        16.2504         16.0004
  25776861.1794   15326761.32942  11887615.42645                  25776877.4484
         4.0004          6.0004
 00  5  2 16 15  0.0030000  0  7G 2G 4G 7G 5G 9G24G26
  23153309.9054    9578001.16947   7430756.51046                  23153316.6794
        22.0004         20.0004
  21566625.5624   -9789006.06048  -7513134.49247                  21566631.5264
        30.5004         28.2504
  22474781.8274   10084124.49847   7834691.56847                  22474787.8974
        27.7504         26.5004
  25166447.4524   -1445713.73345  -1012976.98145                  25166454.9444
         8.7504          9.2504
  22528150.0624   -8463817.31948  -6508970.56347                  22528156.1204
        28.0004         26.5004
  23521411.0464   -6748035.08246  -5094449.88346                  23521418.8904
        16.2504         16.0004
  25786671.0694   15378309.83042  11927782.93245                  25786683.1324
         4.7504          6.0004
 00  5  2 16 15 15.0030000  0  7G 2G 4G 7G 5G 9G24G26
  23160662.9294    9616640.99647   7460865.43646                  23160669.7724
        21.7504         20.0004
  21565042.3124   -9797325.65348  -7519617.27647                  21565048.3124
        30.5004         28.5004
  22482333.0774   10123806.42747   7865612.54647                  22482339.3004
        27.2504         26.2504
  25161007.7184   -1474300.59745  -1035252.43445                  25161014.7764
         9.0004          8.5004
  22527105.3044   -8469308.81148  -6513249.64247                  22527111.3044
        28.0004         26.7504
  23514688.7264   -6783362.11846  -5121977.38446                  23514696.4174
        16.7504         16.5004
  25796482.3744   15429863.09342  11967954.15745                  25796496.1364
         4.7504          6.0004
 00  5  2 16 15 30.0030000  0  7G 2G 4G 7G 5G 9G24G26
  23168028.8664    9655348.69547   7491027.25046                  23168035.4874
        21.7504         20.0004
  21563485.6554   -9805507.10148  -7525992.42047                  21563491.6674
        30.5004         28.5004
  22489890.9524   10163523.53847   7896560.94147                  22489896.9994
        27.2504         26.5004
  25155566.5224   -1502893.55345  -1057532.62645                  25155573.4524
         9.2504          8.5004
  22526084.6404   -8474672.36848  -6517429.03647                  22526090.7104
        28.2504         26.7504
  23507976.9444   -6818632.06646  -5149460.41946                  23507984.7414
        16.7504         16.2504
  25806291.5854   15481413.65642  12008123.23145                  25806304.4094
         4.7504          6.0004
 00  5  2 16 15 45.0030000  0  7G 2G 4G 7G 5G 9G24G26
  23175408.5074    9694129.79647   7521246.25446                  23175414.8004
        21.5004         19.7504
  21561956.0544   -9813544.80348  -7532255.55047                  21561962.1124
        30.5004         28.5004
  22497456.7024   10203281.14047   7927540.87947                  22497462.6554
        27.5004         26.0004
  25150125.1874   -1531487.11745  -1079813.30845                  25150132.2454
         9.5004          9.5004
  22525089.2414   -8479902.36348  -6521504.35547                  22525095.1474
        28.5004         26.5004
  23501277.2574   -6853839.07046  -5176894.41246                  23501284.8664
        17.0004         16.7504
  25816101.6244   15532966.53443  12048294.17245                  25816117.8004
         5.0004          6.0004
 00  5  2 16 16  0.0030000  0  7G 2G 4G 7G 5G 9G24G26
  23182801.8824    9732981.78447   7551520.50846                  23182808.5264
        21.5004         19.7504
  21560453.3974   -9821440.91748  -7538408.35147                  21560459.4334
        30.5004         28.5004
  22505029.3824   10243076.60247   7958550.32947                  22505035.4404
        27.2504         26.0004
  25144683.3124   -1560083.72745  -1102096.37045                  25144691.3904
         9.5004          9.7504
  22524119.0384   -8485001.14848  -6525477.43747                  22524125.0034
        28.0004         26.2504
  23494588.9684   -6888985.41546  -5204281.12946                  23494596.3784
        16.7504         16.0004
  25825911.5464   15584518.93843  12088464.71645                  25825922.3544
         5.2504          6.7504
 00  5  2 16 16 15.0030000  0  7G 2G 4G 7G 5G 9G24G26
  23190208.9604    9771907.10647   7581851.89946                  23190215.6874
        21.5004         19.7504
  21558978.2024   -9829193.10248  -7544449.00047                  21558984.2614
        30.5004         28.5004
  22512609.8824   10282912.05847   7989590.93047                  22512615.9764
        27.2504         26.2504
  25139241.8124   -1588680.84345  -1124379.83245                  25139247.5194
         9.0004          8.7504
  22523174.3274   -8489966.18547  -6529346.29247                  22523180.2924
        27.7504         26.2504
  23487913.1324   -6924068.36346  -5231618.45146                  23487920.4254
        16.7504         16.7504
  25835722.2574   15636072.94643  12128636.52945                  25835733.4524
         5.0004          6.0004
 00  5  2 16 16 30.0030000  0  7G 2G 4G 7G 5G 9G24G26
  23197628.9994    9810898.47547   7612234.76846                  23197635.5154
        21.0004         19.2504
  21557529.0624   -9836808.40948  -7550382.99147                  21557535.0624
        30.2504         28.7504
  22520196.5304   10322780.07747   8020656.91247                  22520202.6014
        27.2504         26.2504
  25133798.1714   -1617285.70645  -1146669.29845                  25133806.6944
         8.2504          8.5004
  22522253.5074   -8494804.57747  -6533116.46447                  22522259.4484
        27.7504         26.2504
  23481247.9834   -6959094.84146  -5258911.77146                  23481255.7104
        16.7504         16.5004
  25845532.1874   15687620.73743  12168803.43945                  25845544.6594
         5.2504          6.0004
 00  5  2 16 16 45.0030000  0  7G 2G 4G 7G 5G 9G24G26
  23205062.9294    9849963.43047   7642674.97246                  23205069.9404
        21.2504         19.5004
  21556107.3194   -9844278.96848  -7556204.19547                  21556113.1904
        30.2504         28.7504
  22527790.8124   10362688.02147   8051754.00347                  22527796.8124
        27.2504         26.2504
  25128355.4524   -1645890.76145  -1168958.96545                  25128362.8154
         8.5004          9.0004
  22521358.2334   -8499508.68248  -6536782.00147                  22521364.2104
        28.0004         26.5004
  23474594.6164   -6994057.02446  -5286154.97846                  23474602.6014
        16.7504         17.0004
  25855341.3974   15739169.62143  12208971.17445                  25855351.7024
         5.5004          5.7504
 00  5  2 16 17  0.0030000  0  7G 2G 4G 7G 5G 9G24G26
  23212511.3194    9889105.63847   7673175.36946                  23212517.9994
        21.2504         19.5004
  21554713.9134   -9851601.19348  -7561909.81247                  21554720.0074
        30.2504         28.7504
  22535393.2264   10402639.15947   8082884.74847                  22535399.3194
        27.7504         26.2504
  25122912.0464   -1674492.37945  -1191245.89745                  25122919.9254
         8.5004          8.2504
  22520489.5074   -8504074.65048  -6540339.89747                  22520495.4254
        28.2504         26.5004
  23467954.1944   -7028950.96246  -5313345.00846                  23467962.1324
        17.0004         17.0004
  25865152.1874   15790722.78343  12249142.28745                  25865163.1594
         6.0004          6.5004
 00  5  2 16 17 15.0030000  0  7G 2G 4G 7G 5G 9G24G26
  23219973.6014    9928320.71747   7703732.56146                  23219980.4214
        21.2504         19.5004
  21553348.0384   -9858779.15248  -7567503.01147                  21553353.9564
        30.2504         28.7504
  22543002.9914   10442629.17948   8114045.79747                  22543009.0154
        28.0004         26.0004
  25117469.0384   -1703094.68245  -1213533.41245                  25117475.9564
         8.7504          8.0004
  22519645.8274   -8508506.64648  -6543793.39847                  22519651.8394
        28.0004         26.2504
  23461326.4374   -7063780.70946  -5340485.03946                  23461334.1514
        17.0004         17.0004
  25874961.8124   15842275.45143  12289313.06545                  25874974.9054
         6.0004          7.5004
 00  5  2 16 17 30.0030000  0  7G 2G 4G 7G 5G 9G24G26
  23227449.5304    9967607.28647   7734345.43346                  23227456.1164
        20.7504         19.0004
  21552009.3044   -9865814.09148  -7572984.76947                  21552015.3744
        30.2504         28.7504
  22550620.1474   10482656.42947   8145235.85247                  22550626.2654
        27.7504         26.2504
  25112025.3354   -1731699.00745  -1235822.45645                  25112032.9684
         8.2504          8.0004
  22518827.7574   -8512806.00448  -6547143.54847                  22518833.7924
        28.0004         26.7504
  23454710.6084   -7098547.42846  -5367575.94846                  23454718.7694
        17.2504         17.0004
  25884772.0934   15893825.92244  12329482.05845                  25884783.5344
         6.2504          7.5004
 00  5  2 16 17 45.0030000  0  7G 2G 4G 7G 5G 9G24G26
  23234939.7804   10006969.07747   7765016.93146                  23234946.5774
        21.0004         19.0004
  21550698.2884   -9872702.24348  -7578352.14347                  21550704.3124
        30.2504         29.0004
  22558244.6634   10522724.41547   8176457.64947                  22558250.7334
        27.2504         26.2504
  25106582.9914   -1760301.59645  -1258110.16645                  25106590.6014
         8.2504          8.2504
  22518035.5304   -8516968.83047  -6550387.30547                  22518041.4724
        27.7504         26.5004
  23448107.1404   -7133247.06646  -5394614.57546                  23448115.1124
        17.0004         17.5004
  25894582.5854   15945377.53244  12369651.97345                  25894593.4524
         7.2504          6.7504
 00  5  2 16 18  0.0030000  0  7G 2G 4G 7G 5G 9G24G26
  23242444.6014   10046404.77147   7795746.01846                  23242450.8354
        21.2504         19.0004
  21549415.4294   -9879444.89048  -7583606.13847                  21549421.4404
        30.0004         29.0004
  22565877.0774   10562831.60247   8207709.99647                  22565883.0304
        27.7504         26.2504
  25101140.4444   -1788903.77745  -1280397.56645                  25101147.8664
         8.0004          9.0004
  22517269.2724   -8520996.42248  -6553525.68847                  22517275.2264
        28.0004         26.7504
  23441516.6474   -7167880.77146  -5421601.83446                  23441524.3154
        17.0004         17.2504
  25904391.8194   15996928.46644  12409821.37245                  25904401.5624
         7.0004          7.5004
 00  5  2 16 18 15.0030000  0  7G 2G 4G 7G 5G 9G24G26
  23249962.8434   10085914.09947   7826532.48846                  23249969.1944
        20.7504         19.0004
  21548160.0224   -9886041.93448  -7588746.67547                  21548166.0694
        30.0004         29.0004
  22573516.4374   10602977.54747   8238992.54447                  22573522.4724
        27.7504         26.2504
  25095697.8194   -1817505.72045  -1302684.77645                  25095704.6634
         8.2504          9.2504
  22516528.6084   -8524888.87548  -6556558.77147                  22516534.5154
        28.0004         26.7504
  23434938.7414   -7202448.26646  -5448537.50346                  23434946.9954
        17.0004         17.2504
  25914202.6404   16048478.19145  12449989.76945                  25914214.0224
         8.0004          7.7504
 00  5  2 16 18 30.0030000  0  7G 2G 4G 7G 5G 9G24G26
  23257494.3664   10125492.42247   7857372.71746                  23257500.9404
        20.7504         18.7504
  21546931.5464   -9892498.04448  -7593777.39147                  21546937.5814
        29.7504         28.7504
  22581162.5774   10643157.34048   8270301.46747                  22581168.6474
        28.0004         26.5004
  25090253.6474   -1846111.94845  -1324975.34845                  25090260.7764
         8.0004          9.0004
  22515812.7414   -8528650.64047  -6559490.01547                  22515818.8004
        27.7504         26.7504
  23428372.5224   -7236954.01046  -5475425.05246                  23428380.7414
        17.2504         17.7504
  25924009.8274   16100021.57044  12490153.30345                  25924019.8864
         7.2504          7.7504
 00  5  2 16 18 45.0030000  0  7G 2G 4G 7G 5G 9G24G26
  23265040.3434   10165146.84147   7888272.24346                  23265047.2264
        20.5004         18.7504
  21545731.1164   -9898805.88548  -7598692.58247                  21545737.1514
        29.7504         29.0004
  22588816.1944   10683377.89847   8301642.15647                  22588822.1944
        27.7504         26.2504
  25084810.9444   -1874715.38945  -1347263.72145                  25084817.1674
         8.5004          9.2504
  22515123.1244   -8532274.50848  -6562313.80847                  22515129.0894
        28.2504         26.7504
  23421819.1794   -7271390.66446  -5502258.77246                  23421828.1714
        17.2504         17.7504
  25933819.0544   16151565.42445  12530317.14445                  25933829.6404
         7.7504          8.0004
 00  5  2 16 19  0.0030000  0  7G 2G 4G 7G 5G 9G24G26
  23272600.0694   10204873.57047   7919228.12046                  23272606.7844
        20.5004         18.5004
  21544558.0934   -9904969.14148  -7603495.10047                  21544564.1514
        29.7504         28.7504
  22596476.8664   10723635.29248   8333011.54047                  22596482.8904
        28.0004         26.0004
  25079368.1404   -1903319.74445  -1369552.81745                  25079374.7374
         9.0004          9.0004
  22514459.0224   -8535764.16348  -6565033.02447                  22514465.0814
        28.2504         26.7504
  23415278.9134   -7305761.58746  -5529041.26646                  23415287.4484
        17.7504         17.5004
  25943628.0854   16203105.55145  12570478.08445                  25943638.7534
         7.5004          7.7504
 00  5  2 16 19 15.0030000  0  7G 2G 4G 7G 5G 9G24G26
  23280173.1164   10244671.16847   7950239.20346                  23280179.8664
        20.2504         18.7504
  21543412.7804   -9910989.04648  -7608185.92047                  21543418.7574
        29.5004         28.7504
  22604144.2574   10763927.90147   8364408.36347                  22604150.2454
        27.5004         26.0004
  25073923.7104   -1931926.37845  -1391843.66345                  25073930.6284
         9.0004          9.0004
  22513820.4054   -8539120.84148  -6567648.62147                  22513826.4874
        28.2504         26.7504
  23408750.4604   -7340068.07946  -5555773.57346                  23408758.6554
        17.5004         17.5004
  25953434.6084   16254640.09645  12610634.68345                  25953446.1554
         7.7504          8.5004
 00  5  2 16 19 30.0030000  0  7G 2G 4G 7G 5G 9G24G26
  23287760.7264   10284542.61647   7981307.84346                  23287767.3944
        20.2504         18.7504
  21542294.8584   -9916862.61848  -7612762.71247                  21542300.8704
        29.5004         28.7504
  22611819.0624   10804258.47047   8395834.77547                  22611825.0154
        27.7504         26.2504
  25068480.4214   -1960532.16845  -1414133.87245                  25068487.5504
         8.7504          9.7504
  22513207.5544   -8542341.43048  -6570158.17347                  22513213.6594
        28.2504         27.0004
  23402235.1014   -7374306.70346  -5582452.96546                  23402243.7764
        18.0004         18.0004
  25963240.4684   16306171.78045  12650789.06645                  25963252.4254
         7.5004          8.5004
 00  5  2 16 19 45.0030000  0  6G 2G 4G 7G 5G 9G24
  23295361.0224   10324484.40647   8012431.28446                  23295367.6204
        20.5004         18.5004
  21541204.5224   -9922593.19048  -7617228.08147                  21541210.5344
        29.5004         29.0004
  22619500.3124   10844623.37748   8427287.93747                  22619506.4404
        28.2504         26.0004
  25063036.3904   -1989140.54045  -1436426.07145                  25063044.9374
         8.7504          9.7504
  22512619.8044   -8545429.26048  -6572564.27947                  22512625.7804
        28.2504         27.0004
  23395731.7334   -7408480.77646  -5609082.08346                  23395740.2454
        17.7504         18.0004
 00  5  2 16 20  0.0030000  0  6G 2G 4G 7G 5G 9G24
  23302976.1474   10364500.78347   8043612.84546                  23302982.8394
        20.5004         18.7504
  21540141.9764   -9928176.28348  -7621578.52647                  21540147.9404
        29.5004         28.5004
  22627188.5074   10885026.67947   8458771.01947                  22627194.6124
        27.7504         26.0004
  25057592.3664   -2017747.16545  -1458716.92445                  25057600.5624
         8.0004          9.5004
  22512058.3664   -8548380.06848  -6574863.61047                  22512064.2844
        28.0004         27.0004
  23389241.8904   -7442585.65746  -5635657.28146                  23389250.0154
        18.0004         18.2504
 00  5  2 16 20 15.0030000  0  6G 2G 4G 7G 5G 9G24
  23310604.3044   10404587.59347   8074849.28446                  23310611.1984
        20.5004         18.7504
  21539106.9054   -9933615.96348  -7625817.22047                  21539112.8584
        29.5004         29.0004
  22634883.6084   10925463.95247   8490280.57847                  22634889.6904
        27.2504         26.0004
  25052147.6554   -2046356.13445  -1481009.62845                  25052155.2414
         7.7504          9.0004
  22511522.1634   -8551197.83048  -6577059.27347                  22511528.0934
        28.0004         27.2504
  23382764.3824   -7476625.28946  -5662181.62746                  23382772.6244
        18.2504         18.0004
 00  5  2 16 20 30.0030000  0  6G 2G 4G 7G 5G 9G24
  23318245.9604   10444744.10947   8106140.04746                  23318252.6634
        20.2504         18.2504
  21538098.9444   -9938912.82448  -7629944.63347                  21538105.0504
        29.2504         28.7504
  22642584.9524   10965934.30047   8521815.90247                  22642590.9294
        27.2504         26.0004
  25046703.8974   -2074968.09945  -1503304.61945                  25046711.8704
         7.7504          9.5004
  22511011.2494   -8553883.23448  -6579151.79747                  22511017.0974
        28.0004         26.7504
  23376299.6474   -7510600.08346  -5688655.45846                  23376308.0074
        18.0004         18.2504
 00  5  2 16 20 45.0030000  0  6G 2G 4G 7G 5G 9G24
  23325901.1084   10484973.06547   8137487.26946                  23325907.9054
        20.0004         18.2504
  21537118.7264   -9944063.97448  -7633958.49847                  21537124.8434
        29.2504         29.0004
  22650292.9444   11006440.40347   8553379.08447                  22650299.0974
        27.5004         26.2504
  25041258.4214   -2103580.23944  -1525599.77845                  25041266.0304
         7.0004          9.0004
  22510525.9684   -8556433.36648  -6581138.91847                  22510531.8624
        28.0004         27.0004
  23369846.8974   -7544506.96646  -5715076.36846                  23369855.3274
        18.2504         18.2504
 00  5  2 16 21  0.0030000  0  6G 2G 4G 7G 5G 9G24
  23333570.7334   10525276.08747   8168892.20546                  23333577.5304
        20.0004         18.5004
  21536166.3904   -9949067.73748  -7637857.52247                  21536172.4014
        29.5004         28.7504
  22658007.9914   11046983.48747   8584971.09247                  22658014.0624
        27.2504         26.2504
  25035814.4054   -2132190.88444  -1547893.76645                  25035821.9214
         7.0004          8.2504
  22510066.6874   -8558846.49247  -6583019.28347                  22510072.7104
        27.7504         27.0004
  23363408.1244   -7578344.12446  -5741442.95146                  23363416.4724
        18.5004         18.2504
 00  5  2 16 21 15.0030000  0  6G 2G 4G 7G 5G 9G24
  23341254.0694   10565651.90247   8200353.84746                  23341261.2334
        20.2504         18.5004
  21535241.9604   -9953925.14948  -7641642.50347                  21535247.9254
        29.5004         28.5004
  22665729.8974   11087562.14647   8616590.81547                  22665735.9564
        27.5004         26.2504
  25030370.0074   -2160801.19344  -1570187.47545                  25030378.6244
         7.2504          8.2504
  22509633.2574   -8561123.67347  -6584793.71147                  22509639.3624
        27.7504         27.0004
  23356982.0384   -7612112.37646  -5767755.84146                  23356989.9874
        18.7504         18.2504
 00  5  2 16 21 30.0030000  0  6G 2G 4G 7G 5G 9G24
  23348951.6084   10606102.28647   8231873.60346                  23348958.3944
        20.0004         18.5004
  21534345.8904   -9958634.42448  -7645312.05247                  21534351.8194
        29.5004         28.5004
  22673458.8194   11128178.00147   8648239.51947                  22673465.0424
        27.2504         25.7504
  25024926.2334   -2189409.33445  -1592479.50445                  25024934.5114
         7.5004          8.7504
  22509226.1874   -8563263.14147  -6586460.83247                  22509232.1404
        27.7504         27.0004
  23350569.6874   -7645809.83946  -5794013.56546                  23350577.4954
        18.7504         18.5004
 00  5  2 16 21 45.0030000  0  6G 2G 4G 7G 5G 9G24
  23356663.1944   10646626.62646   8263450.98046                  23356670.0894
        19.7504         18.5004
  21533477.8354   -9963195.93048  -7648866.45947                  21533483.8824
        29.2504         28.5004
  22681194.5854   11168830.32147   8679916.64647                  22681200.6674
        27.2504         25.7504
  25019482.6084   -2218015.77445  -1614770.20445                  25019490.9444
         7.7504          8.5004
  22508845.1794   -8565265.30847  -6588020.96747                  22508851.0264
        27.7504         26.7504
  23344170.6014   -7679436.74646  -5820216.31446                  23344179.1124
        18.7504         18.5004
 00  5  2 16 22  0.0030000  0  6G 2G 4G 7G 5G 9G24
  23364388.9444   10687224.99646   8295086.03546                  23364395.8624
        19.7504         18.0004
  21532637.8904   -9967609.58148  -7652305.65447                  21532643.9374
        29.0004         28.5004
  22688937.6474   11209519.00547   8711622.10446                  22688943.6014
        27.0004         25.5004
  25014039.2964   -2246620.45445  -1637059.55945                  25014047.8664
         8.0004          8.7504
  22508490.0934   -8567129.98147  -6589473.96647                  22508496.0694
        27.5004         26.7504
  23337785.1874   -7712992.61446  -5846363.71246                  23337793.1364
        19.2504         18.5004
 00  5  2 16 22 15.0030000  0  6G 2G 4G 7G 5G 9G24
  23372128.0934   10727896.36147   8326777.98746                  23372135.1634
        20.0004         19.0004
  21531826.1014   -9971876.31348  -7655630.36847                  21531832.1594
        29.2504         28.7504
  22696687.0074   11250242.76747   8743354.89447                  22696693.1944
        26.7504         26.0004
  25008596.0464   -2275224.37445  -1659348.35245                  25008603.4334
         8.5004          8.7504
  22508161.6944   -8568858.13347  -6590820.58447                  22508167.5424
        27.2504         26.7504
  23331413.0694   -7746478.35646  -5872456.46346                  23331420.9134
        19.5004         18.7504
 00  5  2 16 22 30.0030000  0  6G 2G 4G 7G 5G 9G24
  23379881.4444   10768643.01447
        20.2504
  21531042.7184   -9975993.54748  -7658838.58647                  21531048.7654
        29.0004         28.7504
  22704443.9604   11291003.67247   8775116.59747                  22704450.0894
        27.0004         26.0004
  25003153.6714   -2303825.09645  -1681634.56045                  25003160.5154
         9.0004          9.0004
  22507859.1244   -8570447.23847  -6592058.84947                  22507865.2534
        27.2504         27.0004
  23325054.8354   -7779891.21946  -5898492.42046                  23325062.4914
        19.5004         18.7504
 00  5  2 16 22 45.0030000  0  6G 2G 4G 7G 5G 9G24
  23387650.0544   10809463.66047
        20.2504
  21530287.2024   -9979962.56948  -7661931.31847                  21530293.0624
        29.5004         28.5004
  22712206.6874   11331800.31447   8806906.20947                  22712212.8154
        27.2504         25.7504
  24997711.7654   -2332423.82445  -1703919.26345                  24997719.1284
         9.2504          9.0004
  22507582.9134   -8571898.49547  -6593189.70247                  22507588.8784
        27.2504         27.0004
  23318710.1324   -7813232.28146  -5924472.44246                  23318717.8234
        19.7504         19.0004
 00  5  2 16 23  0.0030000  0  6G 2G 4G 7G 5G 9G24
  23395433.1404   10850365.17447      4250.15656                  23395439.8784
        20.5004         18.2504
  21529561.6474   -9983776.29448  -7664903.04247                  21529567.7414
        29.2504         28.5004
  22719978.3274   11372639.44847   8838728.89846                  22719984.2924
        27.0004         25.5004
  24992271.3514   -2361013.57345  -1726196.99445                  24992278.0424
         9.5004          8.0004
  22507334.3514   -8573204.92247  -6594207.70247                  22507340.3394
        27.7504         27.2504
  23312380.5934   -7846494.29346  -5950390.85546                  23312388.7654
        19.7504         19.0004
 00  5  2 16 23 15.0030000  0  6G 2G 4G 7G 5G 9G24
  23403230.2494   10891337.30447     36176.47846                  23403236.7414
        20.2504         18.2504
  21528863.2574   -9987444.86548  -7667761.65147                  21528869.2334
        29.5004         28.5004
  22727755.9914   11413510.60147   8870576.53546                  22727762.0854
        27.0004         25.5004
  24986830.4764   -2389604.48145  -1748475.62045                  24986837.4644
         9.0004          9.2504
  22507111.2414   -8574376.68147  -6595120.76247                  22507117.2184
        27.7504         27.2504
  23306063.9764   -7879687.34846  -5976255.53346                  23306071.9254
        19.7504         19.0004
 00  5  2 16 23 30.0030000  0  6G 2G 4G 7G 5G 9G24
  23411040.5774   10932382.71347     68159.88446                  23411047.2574
        20.0004         18.2504
  21528193.4684   -9990965.63048  -7670505.08847                  21528199.5034
        29.5004         28.5004
  22735539.9214   11454416.21447   8902451.02747                  22735546.1904
        26.7504         25.7504
  24981389.9684   -2418193.83245  -1770753.03045                  24981397.7184
         8.7504          9.0004
  22506914.5224   -8575410.97148  -6595926.70347                  22506920.5224
        28.0004         27.2504
  23299761.3044   -7912808.28746  -6002064.02246                  23299768.9834
        19.7504         19.0004
 00  5  2 16 23 45.0030000  0  6G 2G 4G 7G 5G 9G24
  23418864.5624   10973497.12347    100197.05246                  23418870.7844
        20.2504         18.0004
  21527550.9134   -9994342.61048  -7673136.49047                  21527556.8434
        29.7504         28.5004
  22743329.8744   11495351.82647   8934348.89747                  22743335.9914
        26.7504         25.7504
  24975949.1014   -2446785.82645  -1793032.45445                  24975955.2064
         9.2504          9.5004
  22506743.0774   -8576312.01148  -6596628.81847                  22506749.0894
        28.0004         27.2504
  23293471.4914   -7945861.25946  -6027819.55646                  23293479.1014
        19.7504         19.0004
 00  5  2 16 24  0.0030000  0  6G 2G 4G 7G 5G 9G24
  23426702.5224   11014685.89747    132292.17846                  23426709.4764
        20.2504         18.2504
  21526936.4684   -9997570.41548  -7675651.64747                  21526942.4684
        29.5004         28.2504
  22751126.3824   11536322.58247   8966274.14846                  22751132.3824
        27.0004         25.5004
  24970508.8904   -2475375.06245  -1815309.76845                  24970516.4404
         9.2504          9.7504
  22506598.1874   -8577074.37748  -6597222.87147                  22506604.1284
        28.0004         27.5004
  23287195.7264   -7978840.58646  -6053517.69546                  23287203.2534
        19.7504         19.0004
 00  5  2 16 24 15.0030000  0  6G 2G 4G 7G 5G 9G24
  23434554.9914   11055949.36147    164445.49146                  23434561.5424
        20.2504         18.2504
  21526350.7884  -10000648.67548  -7678050.27947                  21526356.8584
        29.5004         28.2504
  22758929.4134   11577328.75847   8998226.99146                  22758935.4374
        27.0004         25.5004
  24965068.8194   -2503961.06545  -1837584.54845                  24965076.3124
         9.5004          9.5004
  22506479.4524   -8577697.52348  -6597708.44547                  22506485.5464
        28.0004         27.5004
  23280934.0074   -8011745.70146  -6079158.01046                  23280941.6284
        19.7504         19.0004
 00  5  2 16 24 30.0030000  0  6G 2G 4G 7G 5G 9G24
  23442420.8354   11097283.83046    196654.14246                  23442427.4684
        19.7504         18.5004
  21525792.8824  -10003580.77848  -7680335.02447                  21525799.0224
        29.7504         28.5004
  22766738.6714   11618366.42347   9030204.38546                  22766744.7884
        26.7504         25.5004
  24959628.8974   -2532547.48045  -1859859.65745                  24959635.6364
         9.5004          9.5004
  22506386.6714   -8578185.11248  -6598088.38347                  22506392.7414
        28.0004         27.5004
  23274685.8744   -8044579.87146  -6104743.04246                  23274693.1904
        19.7504         19.0004
 00  5  2 16 24 45.0030000  0  6G 2G 4G 7G 5G 9G24
  23450300.4374   11138692.31947    228920.46246                  23450306.8824
        20.2504         18.2504
  21525263.2884  -10006363.63948  -7682503.47447                  21525269.3584
        29.7504         28.5004
  22774554.6404   11659438.52347   9062208.60046                  22774560.8744
        26.5004         25.2504
  24954189.8124   -2561131.13645  -1882132.60345                  24954197.3044
         9.5004          9.0004
  22506320.3124   -8578533.95648  -6598360.20947                  22506326.3704
        28.0004         27.7504
  23268451.9374   -8077339.73147  -6130270.16946                  23268459.4524
        20.0004         19.5004
 00  5  2 16 25  0.0030000  0  6G 2G 4G 7G 5G 9G24
  23458194.9374   11180178.31147    261247.17846                  23458201.6634
        20.0004         18.5004
  21524762.6404  -10008993.73648  -7684552.88647                  21524768.5344
        29.7504         28.7504
  22782377.3824   11700548.22647   9094242.12146                  22782383.5934
        26.5004         25.5004
  24948752.0774   -2589708.41145  -1904400.59345                  24948759.3474
         9.5004          9.7504
  22506280.8354   -8578740.39648  -6598521.07547                  22506286.8124
        28.2504         27.7504
  23262232.5304   -8110021.60046  -6155736.52646                  23262240.5034
        19.7504         19.2504
 00  5  2 16 25 15.0030000  0  6G 2G 4G 7G 5G 9G24
  23466103.0304   11221735.27447    293629.21846                  23466110.2414
        20.2504         18.2504
  21524290.0694  -10011477.44648  -7686488.23247                  21524296.0814
        30.0004         28.5004
  22790206.1014   11741688.83947   9126299.73146                  22790212.1834
        26.7504         25.2504
  24943313.7884   -2618285.78245  -1926668.68645                  24943320.2104
        10.0004          9.5004
  22506267.5854   -8578810.92948  -6598576.03947                  22506273.4564
        28.7504         27.7504
  23256027.1874   -8142631.66947  -6181146.93946                  23256034.8904
        20.0004         19.2504
 00  5  2 16 25 30.0030000  0  6G 2G 4G 7G 5G 9G24
  23474025.7724   11263369.71546    326071.60046                  23474033.2654
        19.5004         18.5004
  21523846.5694  -10013808.08448  -7688304.30447                  21523852.5694
        29.7504         28.5004
  22798042.2024   11782866.89647   9158386.51646                  22798048.3194
        26.7504         25.2504
  24937877.2574   -2646856.59145  -1948931.63745                  24937884.2334
        10.7504          9.5004
  22506281.1634   -8578738.83348  -6598519.85847                  22506287.2334
        28.5004         27.7504
  23249836.5224   -8175163.10947  -6206496.08046                  23249844.1674
        20.0004         19.5004
 00  5  2 16 25 45.0030000  0  6G 2G 4G 7G 5G 9G24
  23481962.3744   11305077.03746    358570.78246                  23481969.4214
        19.7504         18.5004
  21523431.3584  -10015990.19548  -7690004.63547                  21523437.2534
        30.2504         28.5004
  22805884.1324   11824077.56747   9190498.71746                  22805890.2264
        26.7504         25.0004
  24932440.5694   -2675425.30145  -1971192.93345                  24932447.6754
        11.0004         10.0004
  22506321.3194   -8578528.60148  -6598356.04447                  22506327.3194
        28.0004         27.5004
  23243660.3274   -8207620.18247  -6231787.27846                  23243668.1014
        20.0004         19.2504
 00  5  2 16 26  0.0030000  0  6G 2G 4G 7G 5G 9G24
  23489913.4994   11346860.27547    391129.11546                  23489920.5344
        20.0004         18.7504
  21523044.8514  -10018020.64748  -7691586.79447                  21523050.8514
        30.2504         28.5004
  22813733.1794   11865323.51147   9222638.39446                  22813739.2844
        26.5004         25.0004
  24927005.0854   -2703988.89245  -1993450.28045                  24927012.2724
        10.5004          9.5004
  22506388.0624   -8578177.13748  -6598082.18247                  22506394.0264
        28.2504         27.2504
  23237498.4054   -8239999.58146  -6257017.95046                  23237506.0504
        19.7504         19.2504
 00  5  2 16 26 15.0030000  0  6G 2G 4G 7G 5G 9G24
  23497878.9994   11388718.67446    423746.03446                  23497886.1404
        19.5004         18.5004
  21522687.3904  -10019900.08348  -7693051.27947                  21522693.3544
        30.0004         28.5004
  22821588.6084   11906604.06147   9254805.04446                  22821594.8784
        26.2504         25.2504
  24921570.7104   -2732547.97645  -2015704.13145                  24921577.2844
        10.0004         10.0004
  22506481.7334   -8577685.06648  -6597698.75347                  22506487.6984
        28.7504         27.7504
  23231351.7184   -8272301.82746  -6282188.49946                  23231359.5384
        19.7504         19.5004
 00  5  2 16 26 30.0030000  0  6G 2G 4G 7G 5G 9G24
  23505859.0464   11430653.73846    456422.67446                  23505866.3394
        19.5004         18.7504
  21522358.8044  -10021626.81448  -7694396.77447                  21522364.6874
        30.2504         28.5004
  22829450.7964   11947920.50947   9286999.66246                  22829456.9604
        26.2504         25.2504
  24916137.1324   -2761100.96445  -2037953.15845                  24916145.0114
        10.0004          9.7504
  22506602.5854   -8577050.76348  -6597204.49047                  22506608.6554
        28.7504         27.5004
  23225219.7104   -8304525.06946  -6307297.48546                  23225227.6714
        19.7504         19.5004
 00  5  2 16 26 45.0030000  0  6G 2G 4G 7G 5G 9G24
  23513852.2654   11472659.23146    489154.20046                  23513859.6634
        19.5004         18.7504
  21522058.1084  -10023207.03348  -7695628.10247                  21522064.0264
        30.2504         28.5004
  22837318.6324   11989266.38847   9319217.21446                  22837324.7724
        26.2504         25.0004
  24910703.1084   -2789654.03945  -2060202.32845                  24910709.7064
        10.0004          9.0004
  22506749.2414   -8576280.32248  -6596604.15347                  22506755.2654
        28.7504         27.7504
  23219101.5854   -8336675.22246  -6332349.51846                  23219109.6284
        19.7504         19.7504
 00  5  2 16 27  0.0030000  0  6G 2G 4G 7G 5G 9G24
  23521860.3354   11514741.34446    521945.42646                  23521867.5814
        19.2504         18.7504
  21521786.3194  -10024634.47148  -7696740.38047                  21521792.3784
        30.2504         28.7504
  22845193.3974   12030647.76847   9351462.43346                  22845199.4334
        26.2504         24.7504
  24905270.9834   -2818200.86045  -2082446.57045                  24905276.4794
        10.2504          9.2504
  22506922.9134   -8575367.43348  -6595892.81647                  22506928.9954
        28.5004         27.5004
  23212998.6714   -8368745.70847  -6357339.48046                  23213006.9484
        20.0004         19.7504
 00  5  2 16 27 15.0030000  0  6G 2G 4G 7G 5G 9G24
  23529881.8904   11556895.78946    554793.00146                  23529889.2414
        19.5004         18.5004
  21521543.1404  -10025913.20248  -7697736.78447                  21521549.1984
        30.2504         28.5004
  22853073.8354   12072060.19847   9383731.84646                  22853079.8474
        26.5004         24.7504
  24899839.1944   -2846745.62245  -2104689.22845                  24899846.1834
         9.7504          9.5004
  22507122.8904   -8574316.30648  -6595073.75947                  22507128.9014
        28.2504         27.2504
  23206910.4914   -8400740.63047  -6382270.55646                  23206918.6514
        20.0004         20.0004
 00  5  2 16 27 30.0030000  0  6G 2G 4G 7G 5G 9G24
  23537917.3354   11599120.92946    587695.68046                  23537924.2764
        19.2504         18.2504
  21521327.8514  -10027045.04148  -7698618.72447                  21521333.7804
        30.0004         28.5004
  22860959.8584   12113501.75047   9416023.95646                  22860965.9294
        26.5004         24.5004
  24894407.3824   -2875289.95845  -2126931.55945                  24894414.4174
         9.2504          9.7504
  22507349.1404   -8573128.66848  -6594148.33247                  22507355.1404
        28.5004         27.5004
  23200836.1404   -8432661.38047  -6407143.83346                  23200843.9484
        20.2504         19.7504
 00  5  2 16 27 45.0030000  0  6G 2G 4G 7G 5G 9G24
  23545966.9214   11641423.10846    620658.38946                  23545974.0734
        18.7504         18.2504
  21521141.6244  -10028023.22648  -7699380.93447                  21521147.5424
        30.2504         28.7504
  22868852.8194   12154978.70747   9448343.65446                  22868858.9374
        26.0004         24.5004
  24888976.3274   -2903827.35345  -2149168.45045                  24888983.6444
         8.5004          9.7504
  22507602.1794   -8571798.06648  -6593111.50647                  22507608.1794
        28.5004         27.7504
  23194777.1474   -8464501.30447  -6431954.13646                  23194785.1204
        20.2504         20.5004
 00  5  2 16 28  0.0030000  0  6G 2G 4G 7G 5G 9G24
  23554031.0304   11683799.35746    653678.82046                  23554038.0654
        18.7504         18.0004
  21520984.0774  -10028850.87748  -7700025.84547                  21520990.0654
        30.2504         28.7504
  22876751.7494   12196487.92547   9480688.48646                  22876757.8784
        26.0004         24.7504
  24883546.6474   -2932360.62945  -2171402.17045                  24883552.9994
         8.5004         10.0004
  22507881.9994   -8570327.20948  -6591965.38747                  22507888.0584
        28.5004         27.7504
  23188733.1084   -8496262.96647  -6456703.45346                  23188741.4214
        20.7504         20.5004
 00  5  2 16 28 15.0030000  0  6G 2G 4G 7G 5G 9G24
  23562109.5154   11726251.19946    686758.15346                  23562116.8194
        18.7504         18.0004
  21520855.6554  -10029526.10148  -7700551.98747                  21520861.6444
        30.7504         29.0004
  22884656.9834   12238030.87347   9513059.59946                  22884663.1244
        26.2504         24.7504
  24878118.3744   -2960888.11445  -2193631.35745                  24878125.0074
         8.7504          9.7504
  22508188.9444   -8568714.36648  -6590708.62847                  22508195.0504
        28.5004         27.7504
  23182704.1164   -8527944.59347  -6481390.40146                  23182711.8314
        20.7504         20.2504
 00  5  2 16 28 30.0030000  0  6G 2G 4G 7G 5G 9G24
  23570202.0934   11768778.82946    719896.53646                  23570209.9374
        18.5004         17.7504
  21520756.1084  -10030048.76048  -7700959.23947                  21520762.0504
        30.5004         28.7504
  22892568.7494   12279607.53947   9545456.98846                  22892574.7494
        26.2504         24.5004
  24872691.3904   -2989409.48345  -2215855.74145                  24872698.0344
         9.2504         10.5004
  22508522.7724   -8566959.30048  -6589341.05047                  22508528.7494
        28.5004         27.7504
  23176690.8124   -8559545.57147  -6506014.50846                  23176698.5034
        21.0004         20.5004
